     2              OBSERVATION DATA    GPS                 RINEX VERSION / TYPE
teqc 1999Jul19 19991123 02:59:40UTC                         PGM / RUN BY / DATE
                                                            COMMENT
Original Marker Name: 0403                                  COMMENT
Campaign Name: HPGN 1991                                    COMMENT
4-Character Station Name: 0403                              COMMENT
6-Character Antenna Code: TRMSST                            COMMENT
Vertical Measurement Point: TGP                             COMMENT
Vertical Offset to Rinex Ref. Point: 0.0629                 COMMENT
Radial Measurement Point: NGP                               COMMENT
Radial Offset to Rinex Ref. Point: 0.2334                   COMMENT
Antenna Height from Field Measurement: 1.7630 m             COMMENT
                                                            COMMENT
Original XYZ: -2672970.2243 -4328711.0660 3834210.3580      COMMENT
New XYZ position is based on association with SCEC monument COMMENT
E1F6U5X9+0011. Position of that monument is believed to be  COMMENT
valid to within 1 m horizontally; vertical accuracy         COMMENT
should be no worse than 3-times this value.                 COMMENT
                                                            COMMENT
Revised Rinex header created by UCSD GPS archive for        COMMENT
GSAC on 10-Mar-2000 (2000:070) 05:02:11 GMT                 COMMENT
For assistance contact dagnew@ucsd.edu or hjohnson@ucsd.edu COMMENT
                                                            COMMENT
HPGN CA 04 03                                               MARKER NAME
0403                                                        MARKER NUMBER
-Unknown- CALIF DEPT TRANSPORTATION                         OBSERVER / AGENCY
282 TRIMBLE 4000 SST NP 4.30 / SP 4.20                      REC # / TYPE / VERS
136 TR 4000SST L1/L2 GEO                                    ANT # / TYPE
 -2672915.6863 -4328646.4498  3834161.4374                  APPROX POSITION XYZ
        1.6846        0.0000        0.0000                  ANTENNA: DELTA H/E/N
     1     1     0                                          WAVELENGTH FACT L1/2
     5    C1    L1    L2    S1    S2                        # / TYPES OF OBSERV
     0                                                      INTERVAL
  1991     5    20    17    53   45.000000                  TIME OF FIRST OBS
  1991     5    20    20    37   60.000000                  TIME OF LAST OBS
                                                            END OF HEADER
 91  5 20 17 53 45.0000000  0  3G18G11G19
  20527378.500          -0.60417        -0.01533        27.750           2.594
  24276532.156          -0.93116        -0.21131        12.250           0.438
  20628058.242          -0.58917        -0.38532        20.500           1.969
 91  5 20 17 54  0.0000000  0  3G18G11G19
  20530206.164       14862.259 7     11581.41923        27.750           2.594
  24268888.633      -40177.352 6    -31306.43221        12.500           0.438
  20627130.875       -4861.848 7     -3788.36822        21.000           2.031
 91  5 20 17 54 15.0000000  0  3G18G11G19
  20533047.273       29788.856 7     23212.51823        27.750           2.625
  24261249.938      -80328.526 6    -62592.97621        12.000           0.344
  20626210.078       -9712.362 7     -7567.98022        20.250           1.969
 91  5 20 17 54 30.0000000  0  3G18G11G19
  20535900.945       44789.675 7     34901.45123        27.750           2.594
  24253607.531     -120443.505 5    -93851.30921        10.750           0.406
  20625289.617      -14541.903 7    -11331.24922        20.500           1.969
 91  5 20 17 54 45.0000000  0  3G18G11G19
  20538771.805       59871.013 7     46653.12623        27.500           2.688
  24245989.664     -160515.534 6   -125076.18721        12.000           0.344
  20624375.508      -19344.007 7    -15073.14122        20.250           1.938
 91  5 20 17 55  0.0000000  0  3G18G11G19
  20541659.227       75044.819 7     58476.85423        27.250           2.625
  24238376.703     -200532.486 6   -156258.16921        12.750           0.313
  20623468.055      -24107.000 7    -18784.55622        20.500           1.969
 91  5 20 17 55 15.0000000  0  3G18G11G19
  20544565.672       90315.247 7     70375.87323        27.250           2.719
  24230766.945     -240489.484 6   -187393.40921        12.000           0.375
  20622572.617      -28826.501 7    -22462.07622        20.500           2.000
 91  5 20 17 55 30.0000000  0  3G18G11G19
  20547487.289      105670.408 7     82340.91123        27.000           2.719
  24223175.242     -280397.901 6   -218490.79721        13.000           0.406
  20621680.273      -33514.394 7    -26114.97022        20.500           2.000
 91  5 20 17 55 45.0000000  0  3G18G11G19
  20550426.234      121116.694 7     94376.96423        27.250           2.500
  24215590.141     -320251.276 6   -249545.29921        12.500           0.438
  20620794.445      -38164.719 7    -29738.58822        20.500           1.938
 91  5 20 17 56  0.0000000  0  3G18G11G19
  20553382.180      136649.637 7    106480.53823        27.000           2.594
  24208015.969     -360053.501 6   -280559.94321        12.250           0.344
  20619917.180      -42781.827 7    -33336.32322        20.750           2.031
 91  5 20 17 56 15.0000000  0  3G18G11G19
  20556354.391      152270.917 7    118652.94723        27.000           2.625
  24200452.852     -399802.709 6   -311533.28321        12.250           0.406
  20619044.633      -47364.229 7    -36907.01622        20.500           2.063
 91  5 20 17 56 30.0000000  0  3G18G11G19
  20559345.359      167984.558 7    130897.32623        27.250           2.531
  24192895.516     -439494.286 5   -342461.71221        11.000           0.500
  20618178.734      -51907.786 7    -40447.43922        20.750           1.906
 91  5 20 17 56 45.0000000  0  3G18G11G19
  20562352.039      183788.723 7    143212.24023        27.000           2.500
  24185358.438     -479129.479 6   -373346.18221        12.750           0.406
  20617323.047      -56414.180 7    -43958.90322        20.500           1.906
 91  5 20 17 57  0.0000000  0  3G18G11G19
  20565377.922      199683.661 7    155597.88923        27.500           2.563
  24177829.281     -518707.867 6   -404186.41121        13.000           0.438
  20616471.031      -60883.386 7    -47441.39222        20.500           1.969
 91  5 20 17 57 15.0000000  0  3G18G11G19
  20568420.055      215668.999 7    168053.97323        27.750           2.594
  24170295.797     -558229.400 5   -434982.34621        10.500           0.500
  20615628.273      -65315.870 7    -50895.26722        20.750           1.969
 91  5 20 17 57 30.0000000  0  3G18G11G19
  20571479.445      231746.857 7    180582.15623        27.500           2.656
  24162795.961     -597691.396 6   -465731.84521        12.500           0.563
  20614793.102      -69709.301 7    -54318.70822        20.500           1.969
 91  5 20 17 57 45.0000000  0  3G18G11G19
  20574556.539      247918.148 7    193183.14523        27.750           2.625
  24155295.180     -637092.749 5   -496434.12121        11.750           0.531
  20613963.656      -74063.002 7    -57711.19522        20.500           1.969
 91  5 20 17 58  0.0000000  0  3G18G11G19
  20577652.461      264184.708 7    205858.36923        27.750           2.688
  24147807.844     -676431.088 5   -527087.29721        11.500           0.500
  20613143.906      -78375.092 7    -61071.25522        20.000           1.969
 91  5 20 17 58 15.0000000  0  3G18G11G19
  20580765.781      280548.714 7    218609.52423        27.750           2.688
  24140331.438     -715703.854 5   -557689.36321        10.750           0.469
  20612331.609      -82643.505 7    -64397.28222        20.500           2.031
 91  5 20 17 58 30.0000000  0  3G18G11G19
  20583898.227      297008.619 7    231435.40323        27.500           2.719
  24132875.891     -754911.909 5   -588241.00421        11.500           0.563
  20611525.711      -86869.589 7    -67690.33022        21.250           1.969
 91  5 20 17 58 45.0000000  0  3G18G11G19
  20587048.539      313564.512 7    244336.08523        27.750           2.719
  24125431.695     -794054.903 6   -618741.94321        12.750           0.563
  20610731.422      -91053.299 7    -70950.35422        20.250           2.000
 91  5 20 17 59  0.0000000  0  3G18G11G19
  20590218.078      330215.259 7    257310.67823        27.500           2.625
  24117989.172     -833133.568 5   -649192.76621        11.250           0.406
  20609943.477      -95196.039 7    -74178.45422        20.250           1.938
 91  5 20 17 59 15.0000000  0  3G18G11G19
  20593404.797      346965.167 7    270362.53923        27.500           2.781
  24110567.469     -872143.021 5   -679589.64921        11.250           0.500
  20609163.172      -99293.191 7    -77371.03022        20.250           2.031
 91  5 20 17 59 30.0000000  0  3G18G11G19
  20596610.430      363807.371 7    283486.31523        27.500           2.813
  24103156.063     -911089.823 5   -709937.71021        11.500           0.500
  20608391.281     -103351.889 7    -80533.64722        20.000           1.969
 91  5 20 17 59 45.0000000  0  3G18G11G19
  20599832.609      380746.699 7    296685.77723        27.000           2.656
  24095761.445     -949968.686 5   -740232.83721        11.500           0.531
  20607626.297     -107367.063 7    -83662.34322        20.500           2.031
 91  5 20 18  0  0.0000000  0  3G18G11G19
  20603075.500      397785.320 7    309962.60423        27.000           2.750
  24088376.117     -988777.220 5   -770473.15321        11.250           0.438
  20606869.828     -111336.722 7    -86755.57822        21.250           1.969
 91  5 20 18  0 15.0000000  0  3G18G11G19
  20606334.953      414916.537 7    323311.58523        27.000           2.844
  24081001.820    -1027521.537 5   -800663.44221        10.750           0.438
  20606122.953     -115267.552 7    -89818.55322        20.500           1.938
 91  5 20 18  0 30.0000000  0  3G18G11G19
  20609612.875      432140.408 7    336732.76623        27.000           2.750
  24073639.117    -1066201.053 5   -830803.23721        10.750           0.594
  20605383.477     -119159.466 7    -92851.20822        20.250           1.875
 91  5 20 18  0 45.0000000  0  3G18G11G19
  20612908.313      449461.663 7    350229.82623        27.000           2.875
  24066290.570    -1104810.837 5   -860888.68121        10.500           0.469
  20604650.969     -123007.853 7    -95849.94322        20.500           2.000
 91  5 20 18  1  0.0000000  0  4G18G11G16G19
  20616223.891      466877.846 7    363800.85923        27.250           2.719
  24058955.445    -1143352.775 5   -890921.26421        11.250           0.438
  24174765.688          -0.31915                         9.250
  20603927.750     -126815.212 6    -98816.70722        19.750           2.000
 91  5 20 18  1 15.0000000  0  4G18G11G16G19
  20619556.688      484392.301 7    377448.46823        27.250           2.781
  24051640.070    -1181823.097 5   -920898.04421        11.750           0.469
  24167680.836      -37216.649 5                         9.000
  20603209.219     -130578.067 7   -101748.79722        20.500           2.000
 91  5 20 18  1 30.0000000  0  4G18G11G16G19
  20622907.266      502005.652 7    391173.13423        27.000           2.750
  24044325.844    -1220220.923 5   -950818.33921        11.000           0.500
  24160615.727      -74335.600 5                         9.250
  20602504.188     -134296.077 6   -104645.93922        19.750           2.063
 91  5 20 18  1 45.0000000  0  4G18G11G16G19
  20626279.055      519716.089 7    404973.45623        27.250           2.781
  24037035.461    -1258547.292 5   -980682.95921        11.500           0.406
  24153568.984     -111358.180 5                         8.750
  20601803.781     -137970.771 7   -107509.33222        20.250           2.000
 91  5 20 18  2  0.0000000  0  4G18G11G16G19
  20629665.766      537523.060 7    418849.00023        27.000           2.750
  24029754.211    -1296802.479 5  -1010492.10521        11.500           0.375
  24146545.773     -148285.131 5        -0.09031         9.250           0.344
  20601108.664     -141602.694 7   -110339.39522        21.250           2.125
 91  5 20 18  2 15.0000000  0  4G18G11G16G19
  20633073.938      555430.240 7    432802.62823        27.250           2.844
  24022488.984    -1334982.381 5  -1040242.58321        11.500           0.469
  24139537.609     -185112.137 5    -28696.42321         9.250           0.313
  20600430.391     -145188.324 7   -113133.38422        20.250           1.969
 91  5 20 18  2 30.0000000  0  4G18G11G16G19
  20636500.336      573434.299 7    446831.74223        27.000           2.781
  24015238.563    -1373090.126 5  -1069936.84621        11.750           0.438
  24132543.742     -221842.445 5    -57317.44921         8.500           0.281
  20599754.352     -148731.124 7   -115894.00322        21.000           2.000
 91  5 20 18  2 45.0000000  0  4G18G11G16G19
  20639944.953      591534.651 7    460935.89023        27.000           2.719
  24008002.773    -1411125.740 6  -1099574.88321        12.250           0.438
  24125574.188     -258476.376 5    -85863.37021         8.500           0.281
  20599089.695     -152231.552 7   -118621.60222        20.250           2.063
 91  5 20 18  3  0.0000000  0  4G18G11G16G19
  20643409.313      609736.238 7    475118.92423        26.750           2.813
  24000782.031    -1449083.960 6  -1129152.63521        13.250           0.406
  24118623.547     -295008.470 5   -114329.93121         8.500           0.281
  20598431.680     -155684.629 7   -121312.30822        20.500           2.031
 91  5 20 18  3 15.0000000  0  4G18G11G16G19
  20646891.195      628038.004 7    489380.01923        26.750           2.750
  23993574.781    -1486965.046 6  -1158670.27921        13.250           0.406
  24111690.352     -331439.739 5   -142717.91621         8.500           0.281
  20597784.031     -159091.301 7   -123966.85122        20.250           2.063
 91  5 20 18  3 30.0000000  0  4G18G11G16G19
  20650392.539      646434.124 7    503714.63623        26.500           2.750
  23986379.797    -1524774.482 6  -1188132.09421        13.000           0.313
  24104776.172     -367775.534 5   -171031.51621         9.000           0.281
  20597141.297     -162457.512 7   -126589.86922        20.750           1.969
 91  5 20 18  3 45.0000000  0  4G18G11G16G19
  20653910.609      664923.839 7    518122.19023        26.500           2.656
  23979192.570    -1562512.598 6  -1217538.33221        12.250           0.281
  24097880.461     -404016.210 5   -199271.01221         8.750           0.219
  20596509.969     -165783.930 7   -129181.87822        20.500           2.000
 91  5 20 18  4  0.0000000  0  4G18G11G16G19
  20657447.977      683510.033 7    532604.92423        26.500           2.781
  23972031.484    -1600176.367 6  -1246886.62421        13.500           0.406
  24090999.773     -440159.149 5   -227434.31721         8.500           0.313
  20595886.609     -169067.983 7   -131740.87422        20.000           2.000
 91  5 20 18  4 15.0000000  0  4G18G11G16G19
  20661001.906      702192.399 7    547162.59323        26.250           2.781
  23964876.273    -1637765.699 6  -1276176.93821        13.250           0.469
  24084145.242     -476204.071 5   -255521.23721         9.250           0.250
  20595269.711     -172309.883 7   -134267.02522        20.500           2.000
 91  5 20 18  4 30.0000000  0  4G18G11G16G19
  20664575.500      720968.389 7    561793.21923        26.250           2.750
  23957734.766    -1675282.248 6  -1305410.52621        12.250           0.344
  24077296.703     -512152.975 5   -283533.36721         8.500           0.250
  20594658.734     -175511.787 7   -136762.01322        20.750           1.938
 91  5 20 18  4 45.0000000  0  4G18G11G16G19
  20668166.008      739838.100 7    576496.87523        26.250           2.875
  23950609.000    -1712725.485 6  -1334586.97921        12.500           0.438
  24070481.172     -548005.425 5   -311470.31921         9.250           0.344
  20594056.969     -178673.659 7   -139225.80322        20.500           2.063
 91  5 20 18  5  0.0000000  0  4G18G11G16G19
  20671774.922      758805.145 7    591276.37523        26.000           2.813
  23943497.578    -1750091.761 6  -1363703.48421        12.250           0.406
  24063676.719     -583757.849 5   -339329.30421         9.500           0.375
  20593463.969     -181792.357 7   -141655.95122        20.750           2.063
 91  5 20 18  5 15.0000000  0  4G18G11G16G19
  20675404.031      777872.928 7    606134.36923        26.500           2.594
  23936401.914    -1787377.187 6  -1392756.97821        12.000           0.469
  24056892.602     -619406.458 5   -367107.38721         9.500           0.344
  20592879.789     -184864.252 7   -144049.63122        20.500           2.031
 91  5 20 18  5 30.0000000  0  4G18G11G16G19
  20679052.563      797044.961 7    621073.59623        26.250           2.813
  23929326.328    -1824577.807 6  -1421744.39121        12.500           0.438
  24050129.367     -654947.370 5   -394801.57721         9.500           0.344
  20592304.875     -187885.792 7   -146404.07022        20.750           2.063
 91  5 20 18  5 45.0000000  0  4G18G11G16G19
  20682717.609      816304.195 7    636080.77823        26.000           2.813
  23922253.023    -1861710.112 5  -1450678.58021        11.500           0.375
  24043385.492     -690397.215 5   -422424.79621         9.750           0.281
  20591738.172     -190874.053 7   -148732.58122        20.500           2.031
 91  5 20 18  6  0.0000000  0  4G18G11G16G19
  20686400.844      835659.532 7    651162.83923        26.250           2.719
  23915204.852    -1898764.678 6  -1479552.18921        12.500           0.500
  24036657.742     -725746.837 5   -449969.91521         9.500           0.406
  20591176.203     -193819.922 7   -151028.05722        20.500           2.125
 91  5 20 18  6 15.0000000  0  4G18G11G16G19
  20690101.742      855110.395 7    666319.33723        25.750           2.750
  23908172.633    -1935741.799 6  -1508365.44821        12.000           0.438
  24029947.852     -760996.571 5   -477437.21321         9.500           0.250
  20590622.875     -196724.071 7   -153291.02622        20.750           1.969
 91  5 20 18  6 30.0000000  0  4G18G11G16G19
  20693822.258      874660.508 7    681553.16723        25.750           2.656
  23901146.383    -1972637.205 5  -1537115.02621        11.500           0.469
  24023259.453     -796142.745 5   -504823.82821         9.500           0.406
  20590077.500     -199582.531 7   -155518.39522        21.500           1.969
 91  5 20 18  6 45.0000000  0  4G18G11G16G19
  20697561.641      894308.797 7    696863.50123        26.000           2.781
  23894144.563    -2009451.662 6  -1565801.53121        12.500           0.500
  24016593.391     -831186.144 5   -532130.34221        10.000           0.281
  20589543.109     -202396.779 7   -157711.30922        20.500           2.063
 91  5 20 18  7  0.0000000  0  4G18G11G16G19
  20701319.695      914057.886 7    712252.38323        26.000           2.594
  23887155.578    -2046182.028 6  -1594422.51021        12.250           0.500
  24009944.086     -866123.416 5   -559354.20121         9.750           0.313
  20589016.953     -205164.015 7   -159867.59822        20.750           2.063
 91  5 20 18  7 15.0000000  0  4G18G11G16G19
  20705095.844      933902.666 7    727715.83223        26.250           2.656
  23880180.078    -2082833.176 6  -1622981.75621        12.500           0.438
  24003313.742     -900959.283 5   -586498.97121         9.500           0.406
  20588498.195     -207889.373 7   -161991.24922        20.500           2.063
 91  5 20 18  7 30.0000000  0  4G18G11G16G19
  20708890.305      953842.782 7    743253.56323        26.000           2.719
  23873222.781    -2119404.630 6  -1651478.91021        12.500           0.438
  23996705.281     -935694.097 5   -613565.01021         9.750           0.375
  20587986.547     -210572.869 7   -164082.27822        20.750           2.125
 91  5 20 18  7 45.0000000  0  4G18G11G16G19
  20712703.570      973877.989 7    758865.38923        26.500           2.625
  23866277.398    -2155896.388 6  -1679913.96721        12.750           0.438
  23990115.336     -970327.844 5   -640552.32721         9.750           0.406
  20587486.859     -213214.913 7   -166141.01522        20.250           2.000
 91  5 20 18  8  0.0000000  0  4G18G11G16G19
  20716533.281      994005.676 7    774549.28123        26.250           2.625
  23859346.328    -2192310.863 6  -1708288.78721        12.750           0.531
  23983542.859    -1004862.954 5   -667462.78721        10.000           0.313
  20586990.070     -215818.264 7   -168169.59322        20.250           2.031
 91  5 20 18  8 15.0000000  0  4G18G11G16G19
  20720381.336     1014225.971 7    790305.33423        26.500           2.594
  23852437.602    -2228647.424 6  -1736602.90821        13.000           0.406
  23976988.313    -1039298.837 5   -694295.94221        10.250           0.344
  20586501.477     -218382.793 7   -170167.92622        20.000           1.969
 91  5 20 18  8 30.0000000  0  4G18G11G16G19
  20724247.195     1034542.410 7    806136.30023        26.250           2.531
  23845533.305    -2264901.917 6  -1764853.07721        12.750           0.500
  23970457.727    -1073631.570 5   -721048.68521        10.750           0.469
  20586020.875     -220904.909 7   -172133.21422        20.500           1.969
 91  5 20 18  8 45.0000000  0  4G18G11G16G19
  20728131.461     1054954.064 7    822041.46323        26.750           2.594
  23838649.492    -2301074.762 6  -1793039.62421        12.250           0.406
  23963941.883    -1107861.787 5   -747721.58021        10.500           0.344
  20585549.617     -223385.411 7   -174066.06622        20.000           1.938
 91  5 20 18  9  0.0000000  0  4G18G11G16G19
  20732034.023     1075460.877 7    838020.77223        26.250           2.531
  23831782.328    -2337165.662 6  -1821162.30721        12.750           0.531
  23957447.602    -1141989.250 5   -774314.43521        10.500           0.406
  20585084.633     -225824.214 7   -175966.43022        20.500           2.063
 91  5 20 18  9 15.0000000  0  4G18G11G16G19
  20735954.102     1096063.862 7    854075.01723        26.250           2.531
  23824927.078    -2373173.404 6  -1849220.20521        12.250           0.563
  23950974.070    -1176012.753 5   -800826.19421        10.250           0.469
  20584630.102     -228220.587 7   -177833.73022        20.250           2.031
 91  5 20 18  9 30.0000000  0  4G18G11G16G19
  20739893.000     1116762.703 7    870203.96123        26.250           2.625
  23818093.508    -2409097.787 6  -1877213.14321        12.750           0.625
  23944517.438    -1209932.555 5   -827257.16321        10.500           0.438
  20584180.844     -230574.799 7   -179668.18022        20.500           2.000
 91  5 20 18  9 45.0000000  0  4G18G11G16G19
  20743849.875     1137556.295 7    886406.73523        25.500           2.656
  23811272.922    -2444939.369 6  -1905141.55421        12.750           0.531
  23938082.297    -1243748.994 5   -853607.63421        10.750           0.531
  20583742.172     -232887.672 7   -181470.41522        20.500           1.969
 91  5 20 18 10  0.0000000  0  4G18G11G16G19
  20747825.570     1158446.146 7    902684.51523        26.000           2.656
  23804463.367    -2480696.187 5  -1933003.93021        11.750           0.500
  23931671.453    -1277460.520 5   -879876.33621        11.000           0.500
  20583309.234     -235157.708 7   -183239.27322        20.750           2.094
 91  5 20 18 10 15.0000000  0  4G18G11G16G19
  20751819.320     1179434.052 7    919038.70023        26.000           2.594
  23797680.508    -2516365.988 6  -1960798.48521        12.750           0.594
  23925275.609    -1311065.005 5   -906061.64221        10.750           0.406
  20582886.008     -237383.147 7   -184973.37822        20.000           2.000
 91  5 20 18 10 30.0000000  0  4G18G11G16G19
  20755831.977     1200517.752 7    935467.53523        26.000           2.688
  23790909.594    -2551950.697 6  -1988526.75721        12.250           0.469
  23918899.641    -1344564.488 5   -932165.14621        10.500           0.375
  20582470.461     -239566.302 7   -186674.53522        20.000           2.000
 91  5 20 18 10 45.0000000  0  4G18G11G16G19
  20759861.914     1221697.370 7    951971.10623        26.250           2.688
  23784149.602    -2587449.405 6  -2016188.01121        12.000           0.500
  23912546.000    -1377958.115 5   -958186.17821        10.250           0.375
  20582063.492     -241706.610 7   -188342.30522        20.250           2.063
 91  5 20 18 10 59.9990000  0  4G18G11G16G19
  20763910.440     1242973.550 7    968549.91923        26.000           2.625
  23777418.151    -2622857.554 6  -2043778.68021        12.250           0.625
  23906207.972    -1411241.851 5   -984121.56421        10.250           0.344
  20581662.183     -243802.083 7   -189975.14122        21.250           2.000
 91  5 20 18 11 14.9990000  0  4G18G11G16G19
  20767979.644     1264350.346 7    985207.14023        26.750           2.594
  23770696.347    -2658178.448 6  -2071301.38421        12.250           0.563
  23899898.683    -1444418.692 5  -1009973.61221        10.000           0.406
  20581274.675     -245852.129 7   -191572.57522        20.000           1.938
 91  5 20 18 11 29.9990000  0  4G18G11G16G19
  20772064.519     1285822.271 7   1001938.48723        25.750           2.719
  23763991.870    -2693412.900 6  -2098756.71521        12.750           0.594
  23893607.730    -1477489.839 5  -1035743.32121        10.250           0.281
  20580893.573     -247860.019 7   -193137.16522        20.250           2.000
 91  5 20 18 11 44.9990000  0  4G18G11G16G19
  20776169.206     1307393.844 7   1018747.48223        26.000           2.688
  23757301.409    -2728556.143 6  -2126140.98621        12.000           0.531
  23887334.300    -1510450.666 5  -1061427.06321        10.500           0.406
  20580518.480     -249821.607 7   -194665.66822        20.250           2.063
 91  5 20 18 11 59.9990000  0  4G18G11G16G19
  20780293.198     1329063.535 7   1035632.92923        26.250           2.719
  23750629.620    -2763609.086 6  -2153454.88921        12.250           0.594
  23881080.667    -1543302.102 5  -1087025.56321        10.000           0.438
  20580155.198     -251738.261 7   -196159.16722        20.000           2.063
 91  5 20 18 12 14.9990000  0  4G18G11G16G19
  20784434.503     1350826.266 7   1052590.87723        26.500           2.656
  23743977.058    -2798576.527 6  -2180702.16421        12.250           0.563
  23874848.737    -1576049.139 5  -1112542.72221        10.500           0.344
  20579797.769     -253615.038 7   -197621.58822        20.000           2.031
 91  5 20 18 12 29.9990000  0  4G18G11G16G19
  20788594.995     1372689.403 7   1069627.05823        26.250           2.688
  23737337.855    -2833450.720 6  -2207876.77821        12.000           0.625
  23868639.675    -1608684.089 5  -1137972.53721        10.250           0.438
  20579446.831     -255444.582 7   -199047.20722        20.500           2.063
 91  5 20 18 12 44.9990000  0  4G18G11G16G19
  20792774.206     1394652.569 7   1086741.18823        26.250           2.594
  23730729.120    -2868231.842 6  -2234978.87621        13.750           0.500
  23862451.464    -1641206.934 5  -1163314.98421        10.250           0.375
  20579110.534     -257227.453 6   -200436.45522        19.750           2.000
 91  5 20 18 12 59.9990000  0  4G18G11G16G19
  20796973.026     1416716.753 7   1103934.03223        26.250           2.625
  23724119.011    -2902918.100 6  -2262007.05121        12.250           0.531
  23856283.815    -1673616.624 5  -1188569.28321        10.500           0.469
  20578780.300     -258962.256 6   -201788.24822        19.250           2.000
 91  5 20 18 13 14.9990000  0  4G18G11G16G19
  20801190.581     1438880.723 7   1121204.62923        25.500           2.688
  23717544.331    -2937510.344 6  -2288961.95921        14.000           0.594
  23850139.214    -1705914.142 5  -1213736.14821        10.500           0.344
  20578459.519     -260650.331 6   -203103.62922        19.500           2.125
 91  5 20 18 13 29.9990000  0  4G18G11G16G19
  20805427.487     1461145.426 7   1138553.72123        25.750           2.625
  23710971.839    -2972007.444 6  -2315842.75921        12.000           0.594
  23844013.495    -1738098.481 5  -1238814.84521        10.500           0.375
  20578148.698     -262290.794 6   -204381.90722        19.500           2.031
 91  5 20 18 13 44.9990000  0  4G18G11G16G19
  20809684.722     1483515.639 7   1155985.03123        25.500           2.563
  23704427.855    -3006404.047 6  -2342645.22721        13.500           0.469
  23837911.245    -1770164.045 5  -1263800.97221        10.250           0.375
  20577843.589     -263878.495 6   -205619.07122        19.750           2.063
 91  5 20 18 13 59.9990000  0  4G18G11G16G19
  20813962.519     1505997.819 7   1173503.58523        25.250           2.563
  23697898.511    -3040693.245 6  -2369364.00821        12.750           0.563
  23831832.503    -1802104.141 5  -1288689.33721        10.250           0.313
  20577555.425     -265406.982 6   -206810.09822        19.500           2.156
 91  5 20 18 14 14.9990000  0  4G18G11G16G19
  20818261.237     1528589.357 7   1191107.34623        25.000           2.594
  23691400.456    -3074876.836 6  -2396000.50021        13.750           0.531
  23825778.792    -1833920.985 5  -1313481.67021        10.500           0.438
  20577273.526     -266878.740 6   -207956.92022        19.750           2.094
 91  5 20 18 14 29.9990000  0  4G18G11G16G19
  20822582.745     1551294.062 7   1208799.29723        25.250           2.563
  23684912.776    -3108951.016 6  -2422551.73321        13.500           0.563
  23819747.355    -1865611.043 5  -1338175.19721        10.000           0.375
  20577002.245     -268290.212 7   -209056.76722        21.000           2.000
 91  5 20 18 14 44.9990000  0  4G18G11G16G19
  20826926.269     1574118.266 7   1226584.36123        25.250           2.500
  23678454.589    -3142908.831 6  -2449012.28621        14.250           0.563
  23813742.683    -1897167.313 5  -1362764.47821         9.500           0.375
  20576748.675     -269634.820 7   -210104.51322        20.000           2.031
 91  5 20 18 14 59.9990000  0  4G18G11G16G19
  20831291.597     1597063.517 7   1244463.74623        25.000           2.594
  23672011.081    -3176748.189 6  -2475380.54821        13.750           0.594
  23807761.995    -1928587.839 5  -1387247.97721         9.750           0.375
  20576503.964     -270910.851 7   -211098.82022        20.750           2.094
 91  5 20 18 15 14.9990000  0  4G18G11G16G19
  20835683.901     1620139.488 7   1262444.99123        25.250           2.563
  23665596.675    -3210459.112 6  -2501648.73521        14.000           0.531
  23801809.558    -1959862.643 5  -1411617.94421         9.500           0.375
  20576278.269     -272108.854 7   -212032.32822        20.000           2.094
 91  5 20 18 15 29.9990000  0  4G18G11G16G19
  20840100.894     1643357.208 7   1280536.68623        25.000           2.656
  23659211.714    -3244030.226 6  -2527807.96521        14.500           0.594
  23795892.753    -1990980.631 5  -1435865.70621         9.500           0.438
  20576064.964     -273217.710 7   -212896.37622        20.250           2.156
 91  5 20 18 15 44.9990000  0  4G18G11G16G19
  20844547.550     1666722.746 7   1298743.57223        25.250           2.688
  23652848.862    -3277454.919 6  -2553853.11121        14.500           0.594
  23789999.386    -2021935.233 5  -1459986.16621         9.500           0.406
  20575873.612     -274231.210 6   -213686.11522        19.750           2.063
 91  5 20 18 15 59.9990000  0  4G18G11G16G19
  20849025.753     1690248.047 7   1317074.94523        25.250           2.625
  23646515.651    -3310720.928 6  -2579774.60221        14.000           0.625
  23784141.730    -2052714.379 5  -1483969.92321         9.750           0.375
  20575700.355     -275137.515 7   -214392.32922        20.000           2.125
 91  5 20 18 16 14.9990000  0  4G18G11G16G19
  20853532.706     1713941.204 7   1335537.11923        25.000           2.719
  23640220.933    -3343819.673 6  -2605565.77321        14.250           0.563
  23778321.487    -2083309.630 5  -1507810.35421         9.750           0.438
  20575551.401     -275928.299 6   -215008.52422        19.750           2.156
 91  5 20 18 16 29.9990000  0  4G18G11G16G19
  20858075.472     1737810.274 7   1354136.36323        25.250           2.781
  23633953.870    -3376742.407 6  -2631219.77621        14.000           0.594
  23772532.089    -2113712.507 5  -1531500.86121         9.500           0.500
  20575425.940     -276595.360 6   -215528.31322        19.500           2.000
 91  5 20 18 16 44.9990000  0  4G18G11G16G19
  20862650.237     1761854.497 7   1372872.09023        25.000           2.719
  23627723.058    -3409489.613 6  -2656737.00421        14.250           0.563
  23766787.214    -2143923.627 5  -1555041.99321         9.750           0.500
  20575321.862     -277139.569 6   -215952.37422        19.750           2.000
 91  5 20 18 16 59.9990000  0  4G18G11G16G19
  20867260.331     1786074.349 7   1391744.67523        25.000           2.688
  23621529.151    -3442060.628 6  -2682116.93921        15.000           0.656
  23761072.894    -2173942.461 5  -1578433.25321         9.750           0.500
  20575238.784     -277560.507 6   -216280.37522        19.750           2.031
 91  5 20 18 17 14.9990000  0  4G18G11G16G19
  20871901.362     1810463.371 7   1410749.07923        24.750           2.625
  23615362.628    -3474460.964 6  -2707363.88321        14.750           0.625
  23755395.659    -2203775.117 5  -1601679.46521        10.000           0.438
  20575184.315     -277864.069 6   -216516.92122        19.750           2.031
 91  5 20 18 17 29.9990000  0  4G18G11G16G19
  20876572.401     1835010.982 7   1429877.05823        24.750           2.750
  23609221.331    -3506701.160 6  -2732486.04321        13.750           0.500
  23749754.495    -2233431.904 5  -1624788.63621        10.250           0.531
  20575143.589     -278061.057 7   -216670.41722        20.000           2.063
 91  5 20 18 17 44.9990000  0  4G18G11G16G19
  20881271.073     1859706.342 7   1449120.16423        24.500           2.719
  23603119.948    -3538791.343 6  -2757491.30521        15.000           0.625
  23744141.347    -2262922.702 5  -1647768.46921        10.000           0.438
  20575126.237     -278162.160 6                        19.500
 91  5 20 18 17 59.9990000  0  5G18G11G16G 6G19
  20885997.683     1884540.335 7   1468471.29623        24.500           2.594
  23597040.261    -3570740.459 6  -2782386.64321        15.250           0.688
  23738559.097    -2292256.644 5  -1670626.08621         9.750           0.500
  24343339.628      -39051.614 3                         5.750
  20575123.183     -278176.784 6                        19.750
 91  5 20 18 18 14.9990000  0  5G18G11G16G 6G19
  20890746.339     1909497.379 7   1487918.30823        24.750           2.656
  23590979.909    -3602563.772 6  -2807183.96821        13.750           0.625
  23733003.042    -2321449.391 5  -1693373.66521         9.500           0.438
  24335918.456      -78059.526 4                         6.500
  20575134.042     -278120.403 6                        19.500
 91  5 20 18 18 29.9990000  0  5G18G11G16G 6G19
  20895515.026     1934556.351 7   1507444.75223        24.250           2.688
  23584947.690    -3634281.566 6  -2831899.05921        14.500           0.563
  23727469.675    -2350521.559 5  -1716027.30621         9.750           0.406
  24328500.144     -117044.943 4                         6.250
  20575156.472     -278013.736 6                        19.500
 91  5 20 18 18 44.9990000  0  6G18G11G16G 6G19G 2
  20900301.370     1959709.553 7   1527044.61123        24.250           2.625
  23578933.542    -3665901.405 6  -2856537.81721        15.750           0.563
  23721958.800    -2379480.679 5  -1738592.84621         9.750           0.375
  24321081.753     -156015.880 3                         6.000
  20575182.730     -277864.656 6                        19.500
  23103252.808          -0.36316                        14.250
 91  5 20 18 18 59.9990000  0  6G18G11G16G 6G19G 2
  20905104.831     1984952.169 7   1546714.15823        24.250           2.500
  23572930.730    -3697427.590 6  -2881103.60921        14.250           0.594
  23716471.519    -2408331.292 5  -1761073.84521         9.750           0.375
  24313669.636     -194977.020 4        -0.32931         6.500           0.250
  20575216.472     -277677.794 7                        20.000
  23094024.792      -48492.779 6                        14.250
 91  5 20 18 19 14.9990000  0  5G18G11G16G 6G19
  20909920.964     2010261.958 7   1566436.04723        24.250           2.781
  23566942.261    -3728881.797 6  -2905613.30721        14.750           0.688
  23710996.769    -2437095.032 5  -1783487.14221         9.750           0.313
  24306252.706     -233950.358 3    -30369.04721         6.000           0.156
  20575256.964     -277475.299 6   -216213.98322        19.250           2.031
 91  5 20 18 19 29.9990000  0  5G18G11G16G 6G19
  20914753.401     2035650.706 7   1586219.45523        24.500           2.531
  23560975.659    -3760251.748 6  -2930057.35221        15.000           0.594
  23705544.737    -2465760.125 5  -1805823.57921        10.000           0.344
  24298835.222     -272924.083 4    -60738.08721         6.250           0.188
  20575299.230     -277245.467 6   -216034.89822        19.500           1.969
 91  5 20 18 19 44.9990000  0  5G18G11G16G 6G19
  20919600.003     2061119.750 7   1606065.43223        24.500           2.656
  23555028.198    -3791535.857 6  -2954434.50921        16.250           0.594
  23700107.503    -2494324.677 5  -1828081.67321        10.000           0.344
  24291422.339     -311896.868 4    -91106.40921         6.500           0.156
  20575351.761     -276986.766 6   -215833.31422        19.000           2.063
 91  5 20 18 19 59.9990000  0  5G18G11G16G 6G19
  20924460.136     2086662.322 7   1625968.70423        24.750           2.625
  23549086.683    -3822740.379 6  -2978749.64521        15.250           0.594
  23694686.956    -2522795.561 5  -1850266.76621        10.000           0.406
  24283999.347     -350875.378 4   -121479.17021         6.500           0.219
  20575402.448     -276705.783 6   -215614.36822        19.250           2.094
 91  5 20 18 20 14.9990000  0  5G18G11G16G 6G19
  20929333.972     2112275.794 7   1645927.21723        24.750           2.594
  23543162.644    -3853867.615 6  -3003004.56321        16.000           0.625
  23689287.237    -2551174.995 5  -1872380.63421         9.750           0.344
  24276580.808     -389862.373 4   -151858.54321         6.500           0.156
  20575460.909     -276405.197 6   -215380.14722        19.000           2.031
 91  5 20 18 20 29.9990000  0  5G18G11G16G 6G19
  20934222.839     2137963.250 7   1665943.38622        25.000           2.469
  23537253.573    -3884913.864 6  -3027196.37921        15.250           0.594
  23683908.081    -2579459.467 5  -1894420.47721        10.000           0.281
  24269162.073     -428854.480 4   -182241.94021         6.250           0.281
  20575521.870     -276081.900 6   -215128.22722        18.500           2.094
 91  5 20 18 20 44.9990000  0  5G18G11G16G 6G19
  20939124.597     2163724.322 7   1686016.91323        25.000           2.656
  23531355.034    -3915879.164 6  -3051325.10621        14.500           0.531
  23678542.526    -2607649.098 5  -1916386.37921        10.250           0.281
  24261740.901     -467852.078 3   -212629.57421         5.750           0.188
  20575587.737     -275736.168 6   -214858.82422        18.750           2.094
 91  5 20 18 20 59.9990000  0  5G18G11G16G 6G19
  20944042.386     2189563.126 7   1706151.01423        25.000           2.688
  23525484.933    -3946758.877 6  -3075387.14921        15.250           0.594
  23673196.440    -2635739.382 5  -1938274.91621        10.000           0.313
  24254320.448     -506850.856 3   -243018.12221         6.000           0.188
  20575657.815     -275363.658 6   -214568.55522        19.000           2.031
 91  5 20 18 21 14.9990000  0  5G18G11G16G 6G19
  20948972.839     2215476.636 7   1726343.32323        25.000           2.594
  23519626.831    -3977555.632 6  -3099384.54421        16.250           0.594
  23667868.823    -2663733.320 5  -1960088.35721        10.250           0.250
  24246901.284     -545853.868 3   -273409.97021         5.750           0.125
  20575734.151     -274967.355 6   -214259.74722        18.500           2.031
 91  5 20 18 21 29.9990000  0  5G18G11G16G 6G19
  20953916.347     2241455.871 7   1746586.85123        25.000           2.625
  23513775.370    -4008277.959 6  -3123323.96021        14.750           0.531
  23662560.987    -2691639.423 5  -1981833.37021        10.500           0.375
  24239474.011     -584870.001 3   -303812.07021         5.750           0.156
  20575810.448     -274556.390 6   -213939.51422        19.000           2.094
 91  5 20 18 21 44.9990000  0  5G18G11G16G 6G19
  20958875.722     2267512.905 7   1766891.00323        25.000           2.594
  23507954.464    -4038913.252 6  -3147195.53521        16.000           0.531
  23657266.526    -2719445.207 5  -2003500.19521        10.750           0.313
  24232050.159     -623887.087 3   -334214.87421         6.000           0.125
  20575895.730     -274118.361 6   -213598.19522        18.500           2.000
 91  5 20 18 21 59.9990000  0  5G18G11G16G 6G19
  20963849.581     2293652.464 7   1787259.45823        25.000           2.688
  23502130.901    -4069456.641 6  -3170995.52721        14.500           0.375
  23651998.972    -2747145.882 5  -2025085.12821        10.750           0.313
  24224625.683     -662900.529 4   -364614.89921         6.250           0.156
  20575984.589     -273648.877 6   -213232.35722        19.000           2.000
 91  5 20 18 22 14.9990000  0  5G18G11G16G 6G19
  20968839.003     2319873.411 7   1807691.33123        24.750           2.594
  23496340.565    -4099908.496 6  -3194724.16021        14.750           0.563
  23646745.198    -2774742.112 5  -2046588.67721        10.750           0.406
  24217204.636     -701910.944 4   -395012.52321         6.250           0.250
  20576080.190     -273148.575 6   -212842.51122        18.750           2.094
 91  5 20 18 22 29.9990000  0  5G18G11G16G 6G19
  20973843.800     2346175.782 7   1828186.65323        24.500           2.625
  23490559.964    -4130268.432 6  -3218381.18521        14.750           0.625
  23641513.347    -2802233.548 5  -2068010.55421        10.500           0.344
  24209780.167     -740918.532 4   -425407.96121         6.750           0.156
  20576180.519     -272617.363 6   -212428.58022        19.250           2.063
 91  5 20 18 22 44.9990000  0  5G18G11G16G 6G19
  20978865.128     2372559.791 7   1848745.58523        24.500           2.594
  23484798.073    -4160535.718 6  -3241966.02221        14.000           0.531
  23636304.065    -2829619.896 5  -2089350.56521        10.500           0.438
  24202359.730     -779922.818 4   -455800.84321         6.750           0.188
  20576288.034     -272054.640 6   -211990.09222        19.000           2.063
 91  5 20 18 22 59.9990000  0  5G18G11G16G 6G19
  20983901.433     2399028.761 7   1869370.72823        24.500           2.656
  23479062.612    -4190706.826 6  -3265475.90021        14.500           0.531
  23631110.050    -2856897.721 5  -2110605.97721        10.500           0.406
  24194934.175     -818920.716 4   -486188.73121         6.750           0.156
  20576402.847     -271457.285 6   -211524.62022        18.500           2.000
 91  5 20 18 23 14.9990000  0  5G18G11G16G 6G19
  20988954.870     2425582.947 7   1890062.26823        24.250           2.563
  23473335.253    -4220781.095 6  -3288910.32621        13.500           0.594
  23625940.534    -2884066.409 5  -2131776.38821        10.750           0.438
  24187514.058     -857911.842 4   -516571.31821         7.000           0.125
  20576522.198     -270825.090 6   -211032.00122        18.750           2.063
 91  5 20 18 23 29.9990000  0  5G18G11G16G 6G19
  20994024.183     2452224.465 7   1910821.85523        24.250           2.719
  23467631.464    -4250755.940 6  -3312267.26721        14.000           0.563
  23620791.839    -2911123.244 5  -2152859.62621        10.750           0.469
  24180097.323     -896894.001 4   -546946.95021         7.000           0.156
  20576647.401     -270155.828 6   -210510.49822        19.500           2.063
 91  5 20 18 23 44.9990000  0  5G18G11G16G 6G19
  20999110.175     2478949.445 7   1931646.48123        24.500           2.563
  23461945.339    -4280634.453 6  -3335549.16221        13.500           0.594
  23615663.675    -2938071.767 5  -2173858.47021        10.750           0.406
  24172681.214     -935870.661 4   -577318.29521         7.250           0.219
  20576784.065     -269453.018 6   -209962.85022        18.750           2.063
 91  5 20 18 23 59.9990000  0  5G18G11G16G 6G19
  21004211.948     2505759.643 7   1952537.50923        24.250           2.563
  23456286.019    -4310414.686 6  -3358754.44121        14.500           0.594
  23610556.448    -2964910.213 5  -2194771.53621        11.000           0.438
  24165264.206     -974840.302 5   -607684.16921         7.500           0.188
  20576924.308     -268714.878 6   -209387.67922        18.500           2.063
 91  5 20 18 24 14.9990000  0  5G18G11G16G 6G19
  21009330.519     2532655.038 7   1973494.92323        24.750           2.563
  23450629.167    -4340096.329 6  -3381882.93621        13.250           0.688
  23605470.808    -2991638.759 5  -2215598.97021        10.750           0.438
  24157846.925    -1013802.968 4   -638044.59621         7.250           0.281
  20577071.167     -267941.502 6   -208785.04522        18.500           2.031
 91  5 20 18 24 29.9990000  0  5G18G11G16G 6G19
  21014464.980     2559635.499 7   1994518.62023        25.000           2.594
  23445000.722    -4369678.997 6  -3404934.28921        14.000           0.656
  23600404.737    -3018256.663 5  -2236340.17521        10.500           0.469
  24150439.503    -1052758.525 4   -668399.48721         7.250           0.219
  20577227.308     -267132.922 6   -208154.97922        18.500           2.031
 91  5 20 18 24 44.9990000  0  5G18G11G16G 6G19
  21019615.386     2586700.265 7   2015608.00823        25.500           2.500
  23439390.042    -4399162.932 6  -3427908.71921        14.000           0.625
  23595361.534    -3044764.186 5  -2256995.39121        10.500           0.438
  24143021.878    -1091707.642 4   -698749.34821         6.750           0.344
  20577384.456     -266289.816 6   -207498.01822        18.500           2.000
 91  5 20 18 24 59.9990000  0  5G18G11G16G 6G19
  21024781.644     2613848.804 7   2036762.67723        25.500           2.531
  23433800.714    -4428548.189 6  -3450806.24721        14.250           0.531
  23590337.433    -3071161.810 5  -2277564.96821        10.500           0.375
  24135613.464    -1130650.789 4   -729094.56221         6.750           0.219
  20577551.987     -265412.567 6   -206814.44922        19.250           2.000
 91  5 20 18 25 14.9990000  0  5G18G11G16G 6G19
  21029963.487     2641084.848 7   2057985.52823        25.750           2.563
  23428231.425    -4457830.691 6  -3473623.69921        15.000           0.531
  23585337.370    -3097445.710 5  -2298045.92721        10.250           0.406
  24128203.878    -1169584.196 4   -759432.17221         6.750           0.375
  20577728.542     -264497.356 6   -206101.29722        18.500           2.031
 91  5 20 18 25 29.9990000  0  5G18G11G16G 6G19
  21035162.745     2668403.871 7   2079273.03923        26.000           2.500
  23422673.909    -4487014.501 6  -3496364.27221        13.750           0.688
  23580356.284    -3123620.250 5  -2318441.66821        10.750           0.313
  24120799.261    -1208512.214 4   -789765.59921         7.250           0.313
  20577907.456     -263548.557 6   -205361.97522        18.250           2.063
 91  5 20 18 25 44.9990000  0  5G18G11G16G 6G19
  21040378.534     2695814.579 7   2100631.99123        26.000           2.531
  23417143.214    -4516090.651 6  -3519020.93521        14.750           0.625
  23575398.167    -3149676.255 5  -2338745.04921        11.000           0.438
  24113393.440    -1247426.227 4   -820088.12521         7.250           0.313
  20578096.761     -262557.571 6   -204589.77822        18.500           1.969
 91  5 20 18 25 59.9990000  0  5G18G11G16G 6G19
  21045611.761     2723313.404 7   2122059.60023        26.250           2.500
  23411630.112    -4545062.012 6  -3541595.96621        14.500           0.594
  23570461.081    -3175616.806 5  -2358958.47121        11.000           0.469
  24105988.792    -1286329.503 5   -850402.25521         7.500           0.219
  20578292.222     -261527.452 6   -203787.09122        17.750           2.000
 91  5 20 18 26 14.9990000  0  5G18G11G16G 6G19
  21050862.378     2750900.927 7   2143556.32922        26.250           2.406
  23406137.550    -4573927.767 6  -3564088.67521        14.250           0.594
  23565546.690    -3201441.258 5  -2379081.40921        10.750           0.344
  24098588.323    -1325221.569 5   -880707.68121         7.750           0.250
  20578495.323     -260457.767 6   -202953.57022        18.250           2.031
 91  5 20 18 26 29.9990000  0  5G18G11G16G 6G19
  21056128.120     2778577.249 7   2165122.25723        25.750           2.563
  23400667.878    -4602687.328 6  -3586498.66221        15.250           0.656
  23560654.862    -3227149.220 5  -2399113.58721        11.000           0.344
  24091190.003    -1364102.231 5   -911004.20521         7.750           0.250
  20578708.042     -259348.355 6   -202089.09422        17.750           2.125
 91  5 20 18 26 44.9990000  0  5G18G11G16G 6G19
  21061411.870     2806343.961 7   2186758.61323        25.750           2.531
  23395209.011    -4631338.426 6  -3608824.12621        13.500           0.594
  23555787.097    -3252738.542 5  -2419053.31021        11.250           0.469
  24083794.050    -1402969.574 5   -941290.35321         7.750           0.250
  20578926.456     -258197.297 6   -201192.17022        18.500           2.094
 91  5 20 18 26 59.9990000  0  5G18G11G16G 6G19
  21066711.620     2834193.562 7   2208459.55423        25.250           2.563
  23389776.503    -4659888.384 6  -3631070.77521        14.000           0.563
  23550937.534    -3278216.634 5  -2438906.37321        11.500           0.406
  24076396.933    -1441831.192 5   -971572.04521         7.750           0.250
  20579148.292     -257012.074 6   -200268.62522        19.250           2.125
 91  5 20 18 27 14.9990000  0  5G18G11G16G 6G19
  21072028.456     2862132.149 7   2230229.84223        25.250           2.594
  23384362.534    -4688330.658 6  -3653233.52121        13.750           0.625
  23546110.519    -3303577.367 5  -2458667.97521        11.250           0.469
  24069005.159    -1480680.773 5  -1001844.34821         7.750           0.125
  20579385.792     -255786.493 6   -199313.63022        18.500           2.125
 91  5 20 18 27 29.9990000  0  5G18G11G16G 6G19
  21077361.362     2890160.726 7   2252070.25122        24.750           2.469
  23378969.300    -4716663.830 6  -3675311.25921        13.500           0.656
  23541307.956    -3328819.320 5  -2478337.02321        11.750           0.406
  24061613.542    -1519517.475 5  -1032106.62621         8.250           0.219
  20579624.214     -254519.549 6   -198326.40422        19.500           2.094
 91  5 20 18 27 44.9990000  0  5G18G11G16G 6G19
  21082712.800     2918279.315 7   2273980.79823        24.250           2.625
  23373605.042    -4744887.495 6  -3697303.65721        14.250           0.656
  23536528.878    -3353942.313 5  -2497913.37921        11.750           0.281
  24054227.253    -1558341.204 5  -1062358.78621         8.000           0.281
  20579874.480     -253211.276 6   -197306.97622        18.750           2.156
 91  5 20 18 27 59.9990000  0  5G18G11G16G 6G19
  21088081.058     2946486.260 7   2295960.19323        24.500           2.531
  23368255.042    -4773002.745 6  -3719211.59021        14.000           0.625
  23531770.690    -3378947.305 6  -2517397.79221        12.000           0.406
  24046840.065    -1597153.245 5  -1092601.85921         8.000           0.219
  20580130.144     -251862.863 6   -196256.26922        19.500           2.063
 91  5 20 18 28 14.9990000  0  5G18G11G16G 6G19
  21093464.058     2974783.080 7   2318009.62623        24.500           2.531
  23362922.815    -4801007.702 6  -3741033.56721        13.750           0.656
  23527033.815    -3403832.847 6  -2536789.14021        12.000           0.500
  24039457.784    -1635952.123 5  -1122834.66321         7.500           0.313
  20580395.706     -250472.692 6   -195173.02722        19.250           2.094
 91  5 20 18 28 29.9990000  0  5G18G11G16G 6G19
  21098866.355     3003169.681 7   2340129.01723        24.250           2.688
  23357616.339    -4828901.901 6  -3762769.24621        14.000           0.656
  23522321.839    -3428598.778 5  -2556087.26421        11.750           0.500
  24032076.394    -1674737.700 4  -1153057.10221         7.250           0.281
  20580667.386     -249040.785 6   -194057.25822        19.500           2.125
 91  5 20 18 28 44.9990000  0  5G18G11G16G 6G19
  21104285.565     3031646.494 7   2362318.70023        24.250           2.563
  23352332.245    -4856684.482 6  -3784417.95921        14.250           0.719
  23517630.534    -3453244.083 5  -2575291.39121        11.750           0.344
  24024701.800    -1713509.517 5  -1183268.81421         7.500           0.344
  20580950.230     -247566.731 6   -192908.65122        19.000           2.156
 91  5 20 18 28 59.9990000  0  5G18G11G16G 6G19
  21109721.894     3060213.068 7   2384578.32623        25.000           2.563
  23347060.386    -4884355.365 6  -3805979.61821        14.000           0.781
  23512965.683    -3477769.060 5  -2594401.76321        11.750           0.500
  24017321.628    -1752267.818 4  -1213469.99721         7.000           0.313
  20581238.058     -246050.728 6   -191727.35622        18.500           2.094
 91  5 20 18 29 14.9990000  0  5G18G11G16G 6G19
  21115174.503     3088867.922 7   2406906.74523        25.000           2.594
  23341824.550    -4911916.024 6  -3827455.41121        14.750           0.750
  23508321.315    -3502175.306 5  -2613419.61821        11.750           0.469
  24009948.933    -1791014.461 4  -1243662.08921         6.750           0.375
  20581533.839     -244494.321 6   -190514.57622        18.500           2.125
 91  5 20 18 29 29.9990000  0  5G18G11G16G 6G19
  21120643.964     3117610.936 7   2429303.85922        25.000           2.469
  23336588.831    -4939366.069 6  -3848844.99121        13.750           0.719
  23503699.206    -3526462.223 5  -2632344.48621        11.750           0.438
  24002577.151    -1829749.342 4  -1273845.02721         6.750           0.281
  20581836.401     -242897.574 6   -189270.35922        19.000           2.094
 91  5 20 18 29 44.9990000  0  5G18G11G16G 6G19
  21126131.370     3146443.663 7   2451770.87623        25.250           2.625
  23331390.933    -4966703.477 6  -3870146.80521        14.750           0.625
  23499102.230    -3550628.181 5  -2651175.10321        11.500           0.500
  23995210.495    -1868470.619 4  -1304017.35221         7.000           0.281
  20582149.519     -241258.644 6   -187993.27622        18.750           2.031
 91  5 20 18 29 59.9990000  0  5G18G11G16G 6G19
  21131634.573     3175364.330 7   2474306.42123        25.250           2.625
  23326206.253    -4993929.375 6  -3891361.73721        14.000           0.688
  23494524.886    -3574674.758 5  -2669912.70021        11.500           0.406
  23987842.464    -1907179.911 4  -1334180.34521         7.000           0.406
  20582469.081     -239578.913 6   -186684.40522        18.750           2.000
 91  5 20 18 30 14.9990000  0  5G18G11G16G 6G19
  21137154.394     3204369.406 7   2496907.73623        25.750           2.500
  23321052.800    -5021046.955 6  -3912492.25521        14.750           0.656
  23489971.558    -3598604.874 5  -2688559.52921        11.250           0.656
  23980479.886    -1945880.858 4  -1364336.84021         7.000           0.313
  20582797.128     -237862.250 6   -185346.75122        18.500           2.063
 91  5 20 18 30 29.9990000  0  5G18G11G16G 6G19
  21142690.448     3233458.613 7   2519574.61622        25.500           2.438
  23315912.901    -5048056.063 6  -3933538.25521        15.500           0.750
  23485437.784    -3622418.972 5  -2707115.95921        11.000           0.531
  23973115.800    -1984573.541 4  -1394486.89021         6.750           0.438
  20583127.605     -236108.867 6   -183980.48222        18.750           2.094
 91  5 20 18 30 44.9990000  0  5G18G11G16G 6G19
  21148241.761     3262634.939 7   2542309.37222        25.250           2.375
  23310796.339    -5074953.415 6  -3954497.17121        14.750           0.781
  23480930.198    -3646113.873 5  -2725579.51421        10.750           0.563
  23965757.636    -2023255.050 4  -1424628.22221         7.000           0.344
  20583471.206     -234315.572 6   -182583.11622        18.250           2.000
 91  5 20 18 30 59.9990000  0  5G18G11G16G 6G19
  21153811.448     3291899.984 7   2565113.26222        25.500           2.375
  23305697.823    -5101736.629 6  -3975367.15421        15.000           0.781
  23476444.605    -3669687.235 5  -2743948.35921        10.750           0.406
  23958395.167    -2061923.322 4  -1454759.25121         7.000           0.344
  20583819.214     -232480.323 6   -181153.05322        18.250           1.969
 91  5 20 18 31 14.9990000  0  5G18G11G16G 6G19
  21159397.097     3321250.914 7   2587984.07322        25.500           2.406
  23300623.784    -5128408.252 6  -3996150.18221        14.750           0.688
  23471982.480    -3693141.716 5  -2762224.57421        11.000           0.500
  23951041.339    -2100581.216 4  -1484882.19821         7.250           0.250
  20584176.925     -230605.737 6   -179692.33722        18.250           2.094
 91  5 20 18 31 29.9990000  0  5G18G11G16G 6G19
  21164998.823     3350690.478 7   2610923.94722        25.250           2.375
  23295567.292    -5154965.106 6  -4016843.78221        14.500           0.656
  23467539.722    -3716474.167 5  -2780405.70621        10.750           0.500
  23943688.456    -2139225.772 5  -1514994.76621         7.750           0.344
  20584539.292     -228689.063 6   -178198.83122        19.000           2.125
 91  5 20 18 31 44.9990000  0  5G18G11G16G 6G19
  21170616.503     3380214.266 7   2633929.45222        25.250           2.406
  23290535.831    -5181411.543 6  -4037451.33721        14.750           0.719
  23463122.261    -3739688.876 5  -2798495.09021        10.750           0.531
  23936333.925    -2177861.668 4  -1545100.55721         7.250           0.219
  20584914.026     -226734.998 6   -176676.18522        18.250           2.031
 91  5 20 18 31 59.9990000  0  5G18G11G16G 6G19
  21176252.151     3409827.367 7   2657004.55522        25.250           2.313
  23285524.269    -5207741.826 6  -4057968.38021        14.500           0.719
  23458730.097    -3762780.611 5  -2816488.64621        11.000           0.563
  23928985.933    -2216483.583 5  -1575195.46921         7.500           0.281
  20585292.089     -224738.148 6   -175120.20222        18.750           2.031
 91  5 20 18 32 14.9990000  0  5G18G11G16G 6G19
  21181903.347     3439527.061 7   2680147.13222        25.000           2.406
  23280534.511    -5233958.282 6  -4078396.73721        14.250           0.781
  23454358.839    -3785751.946 5  -2834388.38921        11.500           0.531
  23921638.589    -2255094.107 5  -1605281.51621         7.500           0.250
  20585680.917     -222701.079 6   -173532.87922        18.500           2.125
 91  5 20 18 32 29.9990000  0  5G18G11G16G 6G19
  21187570.714     3469313.478 7   2703357.28622        24.750           2.313
  23275569.644    -5260060.107 6  -4098735.76921        14.250           0.750
  23450010.987    -3808602.206 5  -2852193.79421        11.500           0.563
  23914291.987    -2293692.889 5  -1635358.39021         7.750           0.313
  20586075.042     -220623.314 6   -171913.84222        18.750           2.094
 91  5 20 18 32 44.9990000  0  5G18G11G16G 6G19
  21193255.870     3499183.780 7   2726632.80522        25.000           2.406
  23270623.042    -5286049.848 6  -4118987.45421        14.500           0.750
  23445683.026    -3831334.111 5  -2869906.96721        11.250           0.469
  23906949.339    -2332282.590 4  -1665428.19821         7.250           0.281
  20586478.339     -218507.525 6   -170265.17722        18.500           2.031
 91  5 20 18 32 59.9990000  0  5G18G11G16G 6G19
  21198956.472     3529144.326 7   2749978.63922        24.750           2.375
  23265703.980    -5311920.852 6  -4139146.63021        15.000           0.750
  23441380.612    -3853941.075 5  -2887522.78021        11.500           0.563
  23899607.722    -2370857.092 5  -1695486.15521         7.750           0.406
  20586890.073     -216347.527 6   -168582.06622        18.500           1.938
 91  5 20 18 33 14.9990000  0  5G18G11G16G 6G19
  21204676.198     3559195.411 7   2773395.03022        25.250           2.344
  23260798.073    -5337672.313 6  -4159212.65321        14.000           0.781
  23437103.503    -3876422.308 5  -2905040.62821        11.750           0.531
  23892271.659    -2409415.671 5  -1725531.70321         7.750           0.406
  20587309.940     -214142.646 6   -166863.98122        18.500           2.094
 91  5 20 18 33 29.9990000  0  5G18G11G16G 6G19
  21210411.448     3589339.146 7   2796883.61423        24.750           2.500
  23255923.105    -5363301.730 6  -4179183.57321        14.000           0.781
  23432849.589    -3898775.478 5  -2922458.68721        11.750           0.594
  23884937.292    -2447956.386 5  -1755563.34821         7.750           0.313
  20587735.128     -211890.952 6   -165109.41722        19.000           2.000
 91  5 20 18 33 44.9990000  0  5G18G11G16G 6G19
  21216164.644     3619571.361 7   2820441.14323        24.750           2.500
  23251064.589    -5388812.801 6  -4199062.28321        14.250           0.781
  23428618.026    -3921004.803 5  -2939780.23221        11.750           0.594
  23877608.675    -2486483.104 5  -1785584.05821         7.750           0.438
  20588175.026     -209596.311 6   -163321.39122        18.250           2.031
 91  5 20 18 33 59.9990000  0  5G18G11G16G 6G19
  21221935.690     3649892.847 7   2844068.23423        25.250           2.563
  23246234.378    -5414204.232 6  -4218847.77221        14.250           0.813
  23424412.878    -3943108.967 6  -2957004.25321        12.000           0.500
  23870277.136    -2524994.921 5  -1815593.16521         7.500           0.406
  20588618.081     -207257.581 6   -161499.01022        18.750           2.000
 91  5 20 18 34 14.9990000  0  5G18G11G16G 6G19
  21227722.042     3680304.740 7   2867765.77123        25.000           2.531
  23241425.065    -5439474.507 6  -4238538.83921        14.500           0.781
  23420231.355    -3965086.576 6  -2974129.66121        12.000           0.594
  23862951.917    -2563490.648 5  -1845589.73921         7.500           0.344
  20589073.659     -204873.580 6   -159641.34522        18.250           1.938
 91  5 20 18 34 29.9990000  0  5G18G11G16G 6G19
  21233526.519     3710805.558 7   2891532.60623        25.000           2.625
  23236643.292    -5464624.695 6  -4258136.34221        15.250           0.750
  23416071.198    -3986938.954 5  -2991157.49921        11.250           0.563
  23855626.565    -2601971.587 4  -1875574.79521         7.250           0.344
  20589534.167     -202445.649 6   -157749.45322        18.500           2.031
 91  5 20 18 34 44.9990000  0  5G18G11G16G 6G19
  21239347.253     3741394.232 7   2915367.88823        25.000           2.688
  23231879.683    -5489655.437 6  -4277640.78221        15.000           0.750
  23411940.480    -4008666.735 5  -3008088.23621        11.500           0.625
  23848309.792    -2640438.827 5  -1905549.15721         7.500           0.344
  20590005.378     -199974.837 6   -155824.14722        18.250           2.063
 91  5 20 18 34 59.9990000  0  5G18G11G16G 6G19
  21245185.940     3772073.155 7   2939273.50023        25.250           2.594
  23227138.394    -5514564.105 6  -4297050.08321        14.750           0.688
  23407825.784    -4030267.529 5  -3024920.01821        11.250           0.531
  23840989.292    -2678889.881 5  -1935510.92421         7.750           0.281
  20590483.706     -197458.684 6   -153863.51122        18.750           2.063
 91  5 20 18 35 14.9990000  0  5G18G11G16G 6G19
  21251040.792     3802841.772 7   2963248.99423        25.000           2.594
  23222418.815    -5539350.618 6  -4316364.20221        15.000           0.813
  23403740.495    -4051741.254 5  -3041652.80021        11.500           0.438
  23833675.628    -2717325.039 5  -1965460.30321         7.500           0.219
  20590971.378     -194897.340 6   -151867.65922        18.250           2.000
 91  5 20 18 35 29.9990000  0  5G18G11G16G 6G19
  21256911.542     3833695.880 7   2987291.10823        24.750           2.500
  23217730.909    -5564018.784 6  -4335586.11221        15.500           0.688
  23399678.237    -4073092.086 5  -3058289.81321        11.500           0.500
  23826365.776    -2755748.434 5  -1995400.51321         8.000           0.313
  20591467.378     -192295.008 6   -149839.87322        18.250           2.000
 91  5 20 18 35 44.9990000  0  5G18G11G16G 6G19
  21262799.448     3864636.684 7   3011400.78323        24.750           2.656
  23213056.112    -5588567.035 6  -4354714.58421        14.750           0.719
  23395638.222    -4094318.656 5  -3074830.00421        11.750           0.563
  23819057.386    -2794158.670 5  -2025330.47721         8.250           0.281
  20591970.159     -189650.402 6   -147779.14222        18.250           2.000
 91  5 20 18 35 59.9990000  0  5G18G11G16G 6G19
  21268705.464     3895667.237 7   3035580.38823        25.000           2.563
  23208405.011    -5612992.086 6  -4373747.05121        14.750           0.781
  23391625.323    -4115417.750 5  -3091270.84721        11.500           0.531
  23811751.464    -2832552.903 5  -2055247.97421         8.250           0.313
  20592479.339     -186960.528 6   -145683.13822        19.000           1.969
 91  5 20 18 36 14.9990000  0  5G18G11G16G 6G19
  21274625.597     3926781.700 7   3059825.38123        24.750           2.594
  23203782.714    -5637299.194 6  -4392687.62021        14.750           0.844
  23387634.394    -4136394.703 6  -3107616.52321        12.250           0.469
  23804444.440    -2870936.732 5  -2085157.35721         8.250           0.313
  20593001.222     -184230.795 6   -143556.07422        18.250           2.000
 91  5 20 18 36 29.9990000  0  5G18G11G16G 6G19
  21280562.159     3957979.106 7   3084135.00222        24.750           2.438
  23199179.308    -5661488.494 6  -4411536.38821        15.000           0.719
  23383666.401    -4157250.087 6  -3123867.46821        12.500           0.375
  23797144.011    -2909310.575 5  -2115058.95821         8.500           0.250
  20593528.097     -181461.803 6   -141398.41822        18.250           1.969
 91  5 20 18 36 44.9990000  0  5G18G11G16G 6G19
  21286515.917     3989263.734 7   3108512.58522        25.000           2.469
  23194598.425    -5685555.627 6  -4430289.95921        14.500           0.781
  23379721.683    -4177979.303 6  -3140020.09721        12.000           0.469
  23789843.292    -2947670.356 5  -2144949.63921         8.500           0.281
  20594063.370     -178649.431 6   -139206.96322        18.250           1.969
 91  5 20 18 36 59.9990000  0  5G18G11G16G 6G19
  21292486.776     4020636.595 7   3132958.91722        25.250           2.406
  23190040.644    -5709499.476 6  -4448947.46721        14.750           0.813
  23375798.878    -4198581.825 6  -3156073.99421        12.000           0.563
  23782548.511    -2986015.230 5  -2174828.67121         8.250           0.313
  20594607.589     -175792.540 6   -136980.81522        18.000           1.938
 91  5 20 18 37 14.9990000  0  5G18G11G16G 6G19
  21298471.605     4052096.411 7   3157473.00822        25.000           2.375
  23185507.769    -5733320.724 6  -4467509.45421        14.750           0.813
  23371902.370    -4219058.322 5  -3172029.70121        11.750           0.469
  23775251.980    -3024346.153 5  -2204696.82621         8.250           0.250
  20595159.519     -172892.271 6   -134720.86922        18.250           1.969
 91  5 20 18 37 29.9990000  0  5G18G11G16G 6G19
  21304475.136     4083640.474 7   3182052.74822        24.750           2.344
  23180997.456    -5757021.605 6  -4485977.64821        14.750           0.688
  23368029.386    -4239411.027 5  -3187888.94221        11.750           0.438
  23767961.784    -3062665.662 5  -2234556.12021         8.000           0.313
  20595716.347     -169951.152 6   -132429.09322        19.000           1.844
 91  5 20 18 37 44.9990000  0  5G18G11G16G 6G19
  21310494.409     4115269.409 7   3206698.62522        24.750           2.313
  23176513.456    -5780600.740 6  -4504350.95521        14.750           0.844
  23364182.815    -4259638.935 5  -3203650.94721        11.750           0.500
  23760670.651    -3100972.632 5  -2264405.60621         8.000           0.281
  20596286.331     -166968.000 6   -130104.56122        18.500           1.875
 91  5 20 18 37 59.9990000  0  5G18G11G16G 6G19
  21316529.948     4146985.956 7   3231412.75822        24.750           2.219
  23172054.831    -5804055.558 6  -4522627.40321        16.000           0.844
  23360355.128    -4279739.493 5  -3219313.71721        11.500           0.531
  23753381.956    -3139264.808 5  -2294243.60421         7.750           0.250
  20596865.011     -163940.387 6   -127745.39122        18.250           1.875
 91  5 20 18 38 14.9990000  0  5G18G11G16G 6G19
  21322580.995     4178787.112 7   3256192.82222        24.500           2.313
  23167614.870    -5827388.346 6  -4540808.76821        15.750           0.781
  23356553.690    -4299715.240 5  -3234879.22621        11.500           0.438
  23746097.284    -3177544.852 5  -2324072.09821         7.500           0.344
  20597447.456     -160871.047 6   -125353.69722        18.000           1.938
 91  5 20 18 38 29.9990000  0  5G18G11G16G 6G19
  21328649.347     4210672.309 7   3281038.37622        24.750           2.156
  23163188.097    -5850599.273 6  -4558895.17721        14.750           0.750
  23352776.269    -4319566.178 5  -3250347.48021        11.500           0.594
  23738818.956    -3215813.138 5  -2353891.46821         8.000           0.375
  20598038.964     -157760.299 6   -122929.73922        17.750           1.969
 91  5 20 18 38 44.9990000  0  5G18G11G16G 6G19
  21334732.347     4242642.543 7   3305950.19222        24.750           2.156
  23158797.878    -5873686.841 6  -4576885.46421        15.000           0.750
  23349023.440    -4339291.424 5  -3265717.80421        11.250           0.531
  23731538.495    -3254068.537 5  -2383700.78421         8.500           0.375
  20598638.401     -154606.850 6   -120472.50622        18.000           1.813
 91  5 20 18 38 59.9990000  0  5G18G11G16G 6G19
  21340832.917     4274700.657 7   3330930.48922        24.750           2.219
  23154425.198    -5896648.026 6  -4594777.26221        15.000           0.750
  23345294.417    -4358888.002 5  -3280987.86621        11.000           0.500
  23724263.378    -3292308.245 5  -2413497.86421         8.750           0.438
  20599248.409     -151408.113 6   -117979.98022        17.750           2.000
 91  5 20 18 39 14.9990000  0  5G18G11G16G 6G19
  21346949.667     4306844.264 7   3355977.40022        24.250           2.219
  23150084.151    -5919484.753 6  -4612572.08121        15.500           0.750
  23341588.862    -4378357.722 5  -3296159.07521        11.000           0.406
  23716988.042    -3330534.503 5  -2443284.48921         8.750           0.375
  20599864.769     -148166.243 6   -115453.84922        18.250           1.906
 91  5 20 18 39 29.9990000  0  5G18G11G16G 6G19
  21353083.222     4339071.539 7   3381089.50222        24.250           2.250
  23145764.534    -5942198.191 6  -4630270.83221        15.750           0.719
  23337907.917    -4397702.162 5  -3311232.66521        11.000           0.563
  23709716.159    -3368748.740 5  -2473061.72921         8.750           0.406
  20600486.542     -144882.693 6   -112895.24322        19.250           1.938
 91  5 20 18 39 44.9990000  0  5G18G11G16G 6G19
  21359230.995     4371381.953 7   3406266.38722        24.500           2.188
  23141462.097    -5964788.747 6  -4647873.83821        15.750           0.781
  23334249.636    -4416921.678 5  -3326208.92321        10.500           0.531
  23702445.565    -3406951.676 5  -2502830.15321         9.000           0.500
  20601122.339     -141557.920 6   -110304.51422        18.250           1.875
 91  5 20 18 39 59.9990000  0  5G18G11G16G 6G19
  21365395.730     4403778.426 7   3431510.33722        24.000           2.313
  23137183.839    -5987252.836 6  -4665378.29721        15.500           0.750
  23330616.683    -4436013.168 5  -3341085.40321        10.500           0.500
  23695179.417    -3445140.057 5  -2532587.25421         9.250           0.438
  20601760.769     -138188.699 6   -107679.14822        18.500           1.875
 91  5 20 18 40 14.9990000  0  5G18G11G16G 6G19
  21371576.675     4436262.405 7   3456822.47122        23.500           2.219
  23132937.964    -6009588.796 6  -4682782.91221        16.250           0.656
  23327009.831    -4454974.982 5  -3355860.84721        10.250           0.531
  23687913.214    -3483312.534 5  -2562331.94821         9.000           0.438
  20602414.222     -134773.641 6   -105018.06322        18.000           1.906
 91  5 20 18 40 29.9990000  0  5G18G11G16G 6G19
  21377775.925     4468832.380 7   3482201.61422        23.750           2.438
  23128707.456    -6031797.593 6  -4700088.44721        15.750           0.781
  23323425.284    -4473808.340 5  -3370536.18521        10.500           0.500
  23680652.120    -3521470.299 5  -2592065.19221         8.750           0.344
  20603070.972     -131314.011 6   -102322.25022        18.250           1.906
 91  5 20 18 40 44.9990000  0  5G18G11G16G 6G19
  21383989.612     4501485.741 7   3507645.71822        24.000           2.250
  23124510.128    -6053881.467 6  -4717296.62121        16.500           0.750
  23319864.690    -4492515.499 5  -3385113.20321        11.250           0.594
  23673390.909    -3559615.788 5  -2621788.87021         8.750           0.375
  20603738.401     -127812.223 6    -99593.58922        18.000           1.906
 91  5 20 18 40 59.9990000  0  5G18G11G16G 6G19
  21390219.394     4534226.455 7   3533157.91522        23.500           2.250
  23120330.808    -6075835.967 6  -4734404.00221        16.250           0.844
  23316329.565    -4511092.248 5  -3399588.58721        11.250           0.531
  23666136.480    -3597744.844 5  -2651499.72521         8.750           0.344
  20604411.386     -124263.997 6    -96828.73722        18.500           1.969
 91  5 20 18 41 14.9990000  0  5G18G11G16G 6G19
  21396465.667     4567053.297 7   3558737.21322        23.500           2.281
  23116175.636    -6097661.898 6  -4751411.18321        16.250           0.688
  23312819.425    -4529539.525 5  -3413963.09021        11.750           0.563
  23658884.222    -3635858.673 5  -2681198.71921         8.500           0.250
  20605096.847     -120670.558 6    -94028.66122        18.250           1.906
 91  5 20 18 41 29.9990000  0  5G18G11G16G 6G19
  21402729.058     4599967.824 7   3584384.83022        23.250           2.344
  23112049.448    -6119357.348 6  -4768316.70721        16.250           0.688
  23309334.878    -4547855.755 5  -3428235.48221        11.750           0.469
  23651634.003    -3673955.620 5  -2710884.58521         8.250           0.156
  20605791.167     -117030.122 6    -91191.95922        17.750           1.938
 91  5 20 18 41 44.9990000  0  5G18G11G16G 6G19
  21409009.261     4632967.096 7   3610098.48822        23.250           2.375
  23107945.862    -6140925.030 6  -4785122.66921        16.250           0.750
  23305872.308    -4566043.638 5  -3442407.85721        11.750           0.469
  23644387.769    -3712038.653 5  -2740559.57721         8.250           0.313
  20606492.292     -113345.779 6    -88321.04822        18.250           1.875
 91  5 20 18 41 59.9990000  0  5G18G11G16G 6G19
  21415305.722     4666052.945 7   3635879.61722        23.250           2.250
  23103866.573    -6162362.653 6  -4801827.27321        16.000           0.750
  23302435.495    -4584101.188 5  -3456478.68121        11.750           0.500
  23637146.097    -3750105.682 5  -2770222.11021         8.500           0.219
  20607199.417     -109615.284 6    -85414.17122        18.500           1.844
 91  5 20 18 42 14.9990000  0  5G18G11G16G 6G19
  21421616.573     4699220.157 7   3661724.13822        23.000           2.250
  23099812.730    -6183675.193 6  -4818434.41821        16.250           0.781
  23299024.323    -4602033.295 5  -3470451.75921        11.750           0.500
  23629902.581    -3788161.946 5  -2799876.24621         8.250           0.250
  20607918.706     -105843.909 6    -82475.43722        18.250           1.938
 91  5 20 18 42 29.9990000  0  5G18G11G16G 6G19
  21427944.753     4732469.881 7   3687632.94622        23.000           2.156
  23095778.386    -6204860.835 6  -4834942.67421        16.500           0.781
  23295636.831    -4619838.354 5  -3484325.83121        11.750           0.469
  23622663.378    -3826205.968 5  -2829520.85721         8.750           0.313
  20608644.745     -102029.983 6    -79503.54822        18.250           1.781
 91  5 20 18 42 44.9990000  0  5G18G11G16G 6G19
  21434286.995     4765805.149 7   3713608.41422        22.750           2.250
  23091766.862    -6225915.938 6  -4851349.21621        16.000           0.844
  23292273.433    -4637512.922 5  -3498098.23221        11.750           0.469
  23615426.292    -3864234.357 5  -2859153.28421         8.750           0.344
  20609378.940      -98170.086 6    -76495.84322        18.250           1.844
 91  5 20 18 42 59.9990000  0  5G18G11G16G 6G19
  21440647.050     4799227.095 7   3739651.42422        23.000           2.063
  23087782.698    -6246839.150 6  -4867652.99021        15.750           0.813
  23288934.683    -4655055.746 5  -3511767.96821        11.500           0.438
  23608195.230    -3902246.008 5  -2888772.68921         9.250           0.281
  20610120.190      -94263.199 6    -73451.51822        18.250           1.938
 91  5 20 18 43 14.9990000  0  5G18G11G16G 6G19
  21447023.894     4832729.337 7   3765756.99822        23.000           2.063
  23083834.448    -6267636.472 6  -4883858.65421        16.500           0.844
  23285619.581    -4672473.349 5  -3525340.13121        11.750           0.375
  23600962.894    -3940247.113 5  -2918383.84321         9.000           0.344
  20610873.815      -90315.544 6    -70375.42722        18.000           1.906
 91  5 20 18 43 29.9990000  0  5G18G11G16G 6G19
  21453413.425     4866315.049 7   3791927.62122        23.000           2.063
  23079902.081    -6288304.555 6  -4899963.61721        16.750           0.781
  23282330.081    -4689762.677 5  -3538812.33921        11.750           0.469
  23593734.011    -3978234.655 5  -2947984.44721         9.000           0.344
  20611632.862      -86323.951 6    -67265.09622        18.000           1.906
 91  5 20 18 43 44.9990000  0  5G18G11G16G 6G19
  21459821.448     4899984.422 7   3818163.43122        22.750           1.938
  23075995.730    -6308842.932 6  -4915967.52621        17.250           0.844
  23279065.230    -4706922.846 5  -3552183.90621        11.500           0.469
  23586506.386    -4016208.478 5  -2977574.34521         9.000           0.406
  20612401.792      -82288.251 6    -64120.39722        18.000           1.906
 91  5 20 18 43 59.9990000  0  5G18G11G16G 6G19
  21466244.925     4933739.623 7   3844466.11922        23.000           2.000
  23072107.987    -6329248.951 6  -4931868.28921        17.000           0.844
  23275825.105    -4723951.382 5  -3565452.91321        11.750           0.500
  23579285.901    -4054166.074 5  -3007151.60421         9.000           0.375
  20613175.612      -78205.968 6    -60939.40022        19.000           2.000
 91  5 20 18 44 14.9990000  0  5G18G11G16G 6G19
  21472683.948     4967575.634 7   3870831.77522        23.000           1.969
  23068252.706    -6349526.928 6  -4947669.27321        17.250           0.875
  23272607.573    -4740853.003 5  -3578623.00121        11.500           0.344
  23572061.339    -4092112.086 5  -3036719.84621         8.750           0.469
  20613963.214      -74081.594 6    -57725.60522        18.250           1.938
 91  5 20 18 44 29.9990000  0  5G18G11G16G 6G19
  21479138.472     5001493.765 7   3897261.42422        23.250           1.906
  23064410.620    -6369675.281 6  -4963369.25621        16.000           0.844
  23269415.894    -4757626.309 5  -3591693.12221        11.500           0.438
  23564842.839    -4130045.049 5  -3066277.91521         8.250           0.469
  20614754.448      -69913.628 6    -54477.84322        18.500           1.875
 91  5 20 18 44 44.9990000  0  5G18G11G16G 6G19
  21485609.433     5035496.549 7   3923757.03222        23.250           2.000
  23060605.370    -6389690.989 6  -4978965.87221        16.500           0.813
  23266247.917    -4774267.997 5  -3604660.66821        11.250           0.406
  23557626.933    -4167962.333 5  -3095823.75221         8.250           0.438
  20615558.480      -65699.428 6    -51194.05722        18.250           1.906
 91  5 20 18 44 59.9990000  0  5G18G11G16G 6G19
  21492093.964     5069578.536 7   3950314.35922        23.000           2.063
  23056820.112    -6409579.198 6  -4994463.14821        16.500           0.813
  23263106.792    -4790783.638 5  -3617529.99721        11.250           0.500
  23550415.151    -4205869.358 5  -3125361.61221         8.000           0.469
  20616365.995      -61444.594 6    -47878.60222        18.750           1.969
 91  5 20 18 45 14.9990000  0  5G18G11G16G 6G19
  21498595.214     5103742.691 7   3976935.70722        23.000           2.063
  23053066.300    -6429336.630 6  -5009858.52521        17.000           0.813
  23259987.730    -4807170.206 5  -3630298.75921        11.250           0.531
  23543201.675    -4243763.023 5  -3154889.05921         8.000           0.375
  20617185.480      -57145.719 6    -44528.83322        18.500           1.938
 91  5 20 18 45 29.9990000  0  5G18G11G16G 6G19
  21505112.253     5137986.151 7   4003618.86322        23.250           2.031
  23049326.230    -6448965.909 6  -5025154.03221        16.500           0.813
  23256895.870    -4823430.433 5  -3642969.07721        11.500           0.563
  23535993.245    -4281646.176 5  -3184408.30421         8.000           0.406
  20618011.519      -52805.685 6    -41146.99322        18.250           2.000
 91  5 20 18 45 44.9990000  0  5G18G11G16G 6G19
  21511644.401     5172311.747 7   4030366.02422        23.000           2.094
  23045617.847    -6468463.174 6  -5040346.67821        16.500           0.781
  23253825.683    -4839560.628 5  -3655538.06521        11.500           0.500
  23528787.300    -4319515.328 5  -3213916.65121         8.000           0.375
  20618846.386      -48420.970 6    -37730.33722        18.500           1.844
 91  5 20 18 45 59.9990000  0  5G18G11G16G 6G19
  21518192.901     5206719.495 7   4057177.19822        23.250           2.094
  23041929.175    -6487828.286 6  -5055436.34321        16.250           0.813
  23250778.550    -4855560.859 5  -3668005.79721        11.500           0.594
  23521581.980    -4357370.478 5  -3243414.08421         8.000           0.531
  20619687.839      -43991.442 6    -34278.76122        18.750           1.906
 91  5 20 18 46 14.9990000  0  5G18G11G16G 6G19
  21524756.690     5241215.166 7   4084056.88422        22.750           2.219
  23038276.269    -6507055.270 6  -5070418.37721        16.500           0.875
  23247760.831    -4871425.080 5  -3680367.53421        11.750           0.625
  23514384.003    -4395205.878 5  -3272896.13821         8.250           0.375
  20620540.409      -39511.411 6    -30787.82922        18.500           2.031
 91  5 20 18 46 29.9990000  0  5G18G11G16G 6G19
  21531336.206     5275795.710 7   4111002.70022        22.750           2.219
  23034637.628    -6526146.905 6  -5085294.92721        15.750           0.750
  23244767.597    -4887156.727 6  -3692625.97521        12.000           0.500
  23507188.808    -4433024.698 5  -3302365.26421         8.500           0.438
  20621402.495      -34983.947 6    -27259.94022        18.750           1.938
 91  5 20 18 46 44.9990000  0  5G18G11G16G 6G19
  21537934.144     5310459.642 7   4138013.50222        23.000           2.156
  23031030.683    -6545103.982 6  -5100066.63621        16.000           0.750
  23241798.776    -4902756.364 6  -3704781.54421        12.000           0.500
  23499992.862    -4470827.835 5  -3331822.18421         8.250           0.406
  20622272.230      -30410.010 6    -23695.83922        18.500           1.906
 91  5 20 18 46 59.9990000  0  5G18G11G16G 6G19
  21544545.956     5345208.638 7   4165090.58122        22.500           2.250
  23027454.917    -6563924.539 6  -5114731.97921        16.500           0.750
  23238855.659    -4918222.196 6  -3716832.85221        12.250           0.625
  23492804.667    -4508613.600 5  -3361265.55921         8.500           0.438
  20623151.534      -25787.634 6    -20093.99022        18.750           1.906
 91  5 20 18 47 14.9990000  0  5G18G11G16G 6G19
  21551173.269     5380041.134 7   4192232.72522        22.500           2.250
  23023896.855    -6582609.856 6  -5129291.92821        16.500           0.875
  23235938.472    -4933555.937 6  -3728781.23621        12.250           0.563
  23485616.206    -4546383.510 5  -3390696.59021         8.750           0.500
  20624040.534      -21118.653 6    -16455.82222        18.250           1.906
 91  5 20 18 47 29.9990000  0  5G18G11G16G 6G19
  21557817.097     5414951.613 7   4219435.63522        22.500           2.188
  23020364.058    -6601164.993 6  -5143750.44321        16.500           0.875
  23233043.159    -4948762.642 5  -3740630.62621        11.750           0.500
  23478432.667    -4584142.903 5  -3420119.39721         8.500           0.375
  20624936.597      -16408.247 6    -12785.38322        18.750           1.844
 91  5 20 18 47 44.9990000  0  5G18G11G16G 6G19
  21564476.425     5449944.343 7   4246702.64022        22.750           2.250
  23016860.730    -6619585.399 6  -5158103.96721        17.250           0.906
  23230176.183    -4963837.846 5  -3752377.53921        11.750           0.531
  23471248.706    -4621887.387 5  -3449530.61721         8.500           0.406
  20625842.565      -11651.906 6     -9079.14422        18.500           1.813
 91  5 20 18 47 59.9990000  0  5G18G11G16G 6G19
  21571150.144     5485017.020 7   4274031.94122        22.750           2.156
  23013375.956    -6637873.126 6  -5172354.10721        16.250           0.875
  23227331.276    -4978783.803 5  -3764023.75421        11.750           0.469
  23464069.167    -4659619.169 5  -3478931.93121         8.500           0.406
  20626757.159       -6851.688 6     -5338.72122        18.000           1.844
 91  5 20 18 48 14.9990000  0  5G18G11G16G 6G19
  21577839.519     5520169.692 7   4301423.57422        22.500           2.188
  23009923.784    -6656027.414 6  -5186500.26221        16.500           0.875
  23224511.808    -4993599.873 5  -3775568.75821        11.750           0.406
  23456891.769    -4697337.727 5  -3508322.93521         8.500           0.531
  20627679.315       -2007.049 6     -1563.67922        18.750           1.844
 91  5 20 18 48 29.9990000  0  5G18G11G16G 6G19
  21584545.214     5555408.950 7   4328882.67622        22.500           2.031
  23006492.159    -6674041.256 6  -5200536.98521        16.000           0.875
  23221720.112    -5008279.344 5  -3787007.31021        11.750           0.531
  23449717.659    -4735036.465 5  -3537698.48221         8.250           0.563
  20628606.730        2888.537 6      2251.05822        19.250           1.781
 91  5 20 18 48 44.9990000  0  5G18G11G16G 6G19
  21591266.151     5590729.239 7   4356404.91622        22.500           2.000
  23003089.480    -6691919.979 6  -5214468.42621        16.000           0.844
  23218951.534    -5022827.567 5  -3798343.60521        11.750           0.469
  23442545.519    -4772720.831 5  -3567062.86021         8.250           0.500
  20629550.230        7829.446 6      6101.11022        18.750           1.875
 91  5 20 18 48 59.9990000  0  5G18G11G16G 6G19
  21598003.581     5626127.752 7   4383988.11522        22.500           2.031
  22999716.745    -6709666.055 6  -5228296.49321        16.500           0.906
  23216204.933    -5037247.193 5  -3809579.67621        11.250           0.406
  23435375.987    -4810393.626 5  -3596418.18821         8.250           0.500
  20630498.823       12813.155 6      9984.51322        18.500           1.906
 91  5 20 18 49 14.9990000  0  5G18G11G16G 6G19
  21604754.206     5661605.421 7   4411632.99122        22.250           1.969
  22996368.206    -6727278.053 6  -5242020.09221        16.750           0.844
  23213488.409    -5051536.843 5  -3820714.49721        11.750           0.469
  23428207.511    -4848053.493 5  -3625763.46321         8.250           0.375
  20631454.331       17840.905 6     13902.23822        18.500           1.781
 91  5 20 18 49 29.9990000  0  5G18G11G16G 6G19
  21611520.542     5697165.493 7   4439342.07722        22.000           1.844
  22993039.503    -6744752.327 6  -5255636.38221        16.750           0.781
  23210793.425    -5065693.294 5  -3831745.51221        11.750           0.469
  23421046.464    -4885697.115 5  -3655096.07321         8.500           0.531
  20632422.370       22916.194 6     17857.00122        18.500           1.813
 91  5 20 18 49 44.9990000  0  5G18G11G16G 6G19
  21618303.480     5732805.177 7   4467113.20022        21.750           1.844
  22989738.315    -6762091.557 6  -5269147.43121        16.250           0.781
  23208126.612    -5079719.303 5  -3842674.88021        11.500           0.438
  23413886.839    -4923327.295 5  -3684418.20821         9.000           0.438
  20633395.034       28036.325 6     21846.70722        19.000           1.906
 91  5 20 18 49 59.9990000  0  5G18G11G16G 6G19
  21625099.409     5768523.246 7   4494945.39922        21.500           1.813
  22986464.456    -6779296.328 6  -5282553.70821        16.750           0.813
  23205480.487    -5093615.796 5  -3853503.32921        11.500           0.469
  23406729.409    -4960944.966 5  -3713730.59621         9.000           0.406
  20634377.417       33200.411 6     25870.66222        19.750           1.781
 91  5 20 18 50 14.9990000  0  5G18G11G16G 6G19
  21631911.839     5804320.883 7   4522839.60322        21.500           1.750
  22983217.456    -6796365.076 6  -5295853.99921        16.250           0.750
  23202861.870    -5107381.188 5  -3864229.61221        11.750           0.375
  23399572.909    -4998548.613 5  -3743032.06421         9.250           0.469
  20635369.362       38409.731 6     29929.86722        18.750           1.844
 91  5 20 18 50 29.9990000  0  5G18G11G16G 6G19
  21638738.745     5840195.735 7   4550793.97522        21.500           1.750
  22979998.386    -6813299.643 6  -5309049.74721        17.250           0.938
  23200263.972    -5121017.285 5  -3874855.15721        11.500           0.563
  23392417.644    -5036140.355 5  -3772324.24021         9.250           0.438
  20636370.081       43662.448 6     34022.88822        18.500           1.844
 91  5 20 18 50 44.9990000  0  5G18G11G16G 6G19
  21645581.940     5876152.988 7   4578812.55122        21.500           1.750
  22976796.198    -6830094.893 6  -5322136.92521        16.250           0.906
  23197694.339    -5134519.152 5  -3885376.10121        11.500           0.438
  23385268.456    -5073715.335 5  -3801603.35921         9.250           0.438
  20637377.753       48963.372 6     38153.46722        18.750           1.813
 91  5 20 18 50 59.9990000  0  5G18G11G16G 6G19
  21652438.651     5912189.001 7   4606892.50822        21.250           1.688
  22973637.284    -6846753.827 6  -5335117.88821        17.750           0.813
  23195150.206    -5147890.157 5  -3895795.07721        11.500           0.563
  23378120.940    -5111276.763 5  -3830871.92721         9.250           0.406
  20638395.183       54309.301 6     42319.12022        18.000           1.844
 91  5 20 18 51 14.9990000  0  5G18G11G16G 6G19
  21659312.480     5948304.073 7   4635034.05722        21.500           1.781
  22970485.159    -6863276.141 6  -5347992.39521        16.750           0.906
  23192631.151    -5161130.108 5  -3906111.93821        11.500           0.500
  23370975.659    -5148824.554 5  -3860129.86821         9.250           0.344
  20639421.058       59700.508 6     46520.04722        18.250           1.844
 91  5 20 18 51 29.9990000  0  5G18G11G16G 6G19
  21666198.839     5984495.993 7   4663235.47622        21.500           1.656
  22967365.175    -6879663.315 6  -5360761.58721        16.500           0.906
  23190137.308    -5174240.415 5  -3916327.77821        11.250           0.500
  23363831.690    -5186360.223 5  -3889378.35521         9.000           0.469
  20640457.667       65135.372 6     50754.99722        18.000           1.875
 91  5 20 18 51 44.9990000  0  5G18G11G16G 6G19
  21673100.253     6020763.073 7   4691495.46922        21.000           1.750
  22964269.909    -6895916.492 6  -5373426.37821        16.000           0.813
  23187667.409    -5187222.437 5  -3926443.65421        11.500           0.469
  23356690.769    -5223885.307 5  -3918618.60621         9.000           0.406
  20641497.698       70612.605 6     55022.95922        18.000           1.875
 91  5 20 18 51 59.9990000  0  5G18G11G16G 6G19
  21680017.222     6057109.570 7   4719817.34822        21.000           1.906
  22961209.081    -6912031.314 6  -5385983.35621        16.500           0.938
  23185222.245    -5200072.287 5  -3936456.52621        11.750           0.469
  23349551.964    -5261395.632 5  -3947847.35221         9.250           0.438
  20642545.706       76136.422 6     59327.22222        19.000           1.875
 91  5 20 18 52 14.9990000  0  5G18G11G16G 6G19
  21686947.933     6093532.307 7   4748198.63822        21.000           1.656
  22958165.995    -6928010.737 6  -5398434.83221        16.250           0.813
  23182801.058    -5212792.998 5  -3946368.78321        11.500           0.500
  23342415.495    -5298894.311 5  -3977067.02121         9.250           0.406
  20643608.597       81703.546 6     63665.22622        18.250           1.844
 91  5 20 18 52 29.9990000  0  5G18G11G16G 6G19
  21693893.776     6130030.734 7   4776638.91522        21.000           1.750
  22955157.823    -6943854.521 6  -5410780.60521        17.000           0.844
  23180404.081    -5225384.517 5  -3956180.37821        11.500           0.375
  23335283.136    -5336381.471 5  -4006277.72421         9.250           0.375
  20644674.355       87314.080 6     68037.06422        18.750           1.906
 91  5 20 18 52 44.9990000  0  5G18G11G16G 6G19
  21700853.644     6166604.427 7   4805137.83522        21.250           1.875
  22952160.456    -6959562.982 6  -5423020.93921        16.500           0.844
  23178033.831    -5237847.429 5  -3965891.74621        11.500           0.500
  23328151.315    -5373857.470 5  -4035479.73321         9.000           0.438
  20645752.323       92967.527 6     72442.33122        18.250           1.938
 91  5 20 18 52 59.9990000  0  5G18G11G16G 6G19
  21707827.597     6203257.057 7   4833698.26022        21.000           1.813
  22949200.019    -6975132.094 6  -5435152.68021        16.750           0.938
  23175686.097    -5250177.383 5  -3975499.51521        11.250           0.438
  23321023.526    -5411318.473 5  -4064670.05121         9.250           0.375
  20646835.784       98667.913 6     76884.18322        18.750           1.938
 91  5 20 18 53 14.9990000  0  5G18G11G16G 6G19
  21714817.222     6239987.575 7   4862319.37922        21.250           1.844
  22946266.917    -6990562.620 6  -5447176.45621        17.000           0.875
  23173366.901    -5262375.339 5  -3985004.42321        11.500           0.406
  23313895.534    -5448765.336 5  -4093849.34921         9.000           0.500
  20647929.433      104414.514 6     81362.03822        18.000           1.969
 91  5 20 18 53 29.9990000  0  5G18G11G16G 6G19
  21721821.534     6276794.330 7   4890999.89722        21.250           1.938
  22943348.159    -7005855.558 6  -5459092.99621        16.750           0.938
  23171070.933    -5274442.710 5  -3994407.58821        11.500           0.406
  23306773.659    -5486199.391 5  -4123018.67721         9.500           0.438
  20649030.722      110205.766 6     85874.69522        18.250           1.969
 91  5 20 18 53 44.9990000  0  5G18G11G16G 6G19
  21728840.620     6313680.550 7   4919742.34122        21.750           1.844
  22940468.964    -7021007.615 6  -5470899.78321        17.000           0.875
  23168798.448    -5286376.433 5  -4003706.60221        11.250           0.469
  23299654.597    -5523617.465 5  -4152175.56421         9.500           0.406
  20650143.112      116044.978 6     90424.71222        18.000           2.031
 91  5 20 18 53 59.9990000  0  5G18G11G16G 6G19
  21735875.019     6350644.138 7   4948545.07322        21.500           1.813
  22937611.862    -7036020.427 6  -5482598.05221        17.000           0.750
  23166552.605    -5298178.103 5  -4012902.72621        11.000           0.406
  23292534.425    -5561021.364 5  -4181321.37621         9.500           0.344
  20651263.784      121930.405 6     95010.75322        17.750           2.125
 91  5 20 18 54 14.9990000  0  5G18G11G16G 6G19
  21742924.589     6387683.597 7   4977406.92622        21.750           1.844
  22934779.222    -7050895.150 6  -5494188.72121        17.000           0.781
  23164332.698    -5309849.214 5  -4021997.10521        11.250           0.438
  23285419.050    -5598412.515 5  -4210457.28021         9.750           0.469
  20652390.581      127860.602 6     99631.67022        18.000           1.969
 91  5 20 18 54 29.9990000  0  5G18G11G16G 6G19
  21749987.370     6424800.446 7   5006329.07922        21.500           1.875
  22931983.026    -7065629.810 6  -5505670.25221        17.250           0.906
  23162135.112    -5321387.889 5  -4030988.28021        11.000           0.469
  23278305.808    -5635789.166 5  -4239581.88021         9.250           0.406
  20653527.034      133837.496 6    104288.98022        18.500           2.000
 91  5 20 18 54 44.9990000  0  5G18G11G16G 6G19
  21757062.894     6461989.186 7   5035307.25122        21.000           1.938
  22929204.956    -7080229.597 6  -5517046.67721        17.750           0.906
  23159965.003    -5332799.337 5  -4039880.33321        11.000           0.469
  23271197.698    -5673156.587 5  -4268699.28721         9.500           0.500
  20654674.495      139855.861 6    108978.60622        18.500           1.906
 91  5 20 18 54 59.9990000  0  5G18G11G16G 6G19
  21764154.847     6499253.591 7   5064344.37322        21.000           1.844
  22926452.175    -7094690.475 6  -5528314.87321        17.250           0.875
  23157817.894    -5344079.974 5  -4048670.45821        11.250           0.406
  23264087.378    -5710510.973 5  -4297806.54521         9.750           0.594
  20655827.519      145919.428 6    113703.45522        18.500           2.031
 91  5 20 18 55 14.9990000  0  5G18G11G16G 6G19
  21771261.651     6536595.612 7   5093441.98722        21.250           1.813
  22923719.644    -7109010.064 6  -5539472.97321        16.500           0.844
  23155695.034    -5355227.206 5  -4057356.62921        11.000           0.500
  23256983.315    -5747850.073 5  -4326901.85821        10.000           0.438
  20656990.620      152030.575 6    118465.37322        18.500           2.031
 91  5 20 18 55 29.9990000  0  5G18G11G16G 6G19
  21778379.386     6574009.260 7   5122595.40722        21.250           1.844
  22921016.175    -7123193.846 6  -5550525.24621        15.500           0.813
  23153599.612    -5366246.822 5  -4065943.35921        11.250           0.406
  23249879.886    -5785179.604 5  -4355989.75121         9.750           0.500
  20658161.542      158183.727 6    123260.02822        19.000           1.906
 91  5 20 18 55 44.9990000  0  5G18G11G16G 6G19
  21785513.550     6611496.419 7   5151806.11222        21.000           1.813
  22918359.136    -7137239.768 6  -5561470.08921        17.000           0.781
  23151526.019    -5377137.005 5  -4074429.23421        11.250           0.438
  23242778.269    -5822497.671 5  -4385068.70421        10.000           0.500
  20659342.542      164380.581 6    128088.73722        18.250           2.000
 91  5 20 18 55 59.9990000  0  5G18G11G16G 6G19
  21792662.214     6649061.332 7   5181077.40422        20.750           1.750
  22915709.464    -7151143.279 6  -5572303.99121        16.500           0.875
  23149479.409    -5387893.436 5  -4082810.87721        11.250           0.406
  23235679.792    -5859799.893 5  -4414135.29321        10.250           0.500
  20660530.120      170625.603 6    132954.97422        18.500           1.938
 91  5 20 18 56 14.9990000  0  5G18G11G16G 6G19
  21799824.683     6686700.535 7   5210406.58422        20.750           1.875
  22913092.058    -7164907.244 6  -5583029.12221        16.500           0.938
  23147458.651    -5398519.185 5  -4091090.70921        11.250           0.500
  23228583.487    -5897089.385 5  -4443191.97921        10.250           0.500
  20661726.589      176915.699 6    137856.33522        18.500           2.000
 91  5 20 18 56 29.9990000  0  5G18G11G16G 6G19
  21807001.409     6724415.467 7   5239794.77122        20.750           1.781
  22910493.003    -7178530.069 6  -5593644.29221        16.250           0.906
  23145460.433    -5409012.642 5  -4099267.45321        11.250           0.531
  23221489.386    -5934364.641 5  -4472237.56121        10.000           0.469
  20662930.183      183252.461 6    142794.06122        19.000           1.844
 91  5 20 18 56 44.9990000  0  5G18G11G16G 6G19
  21814193.300     6762205.394 7   5269241.39922        20.750           1.625
  22907923.136    -7192012.105 6  -5604149.76821        15.750           0.875
  23143489.558    -5419374.082 5  -4107341.31021        11.250           0.563
  23214397.175    -5971626.219 5  -4501272.50421        10.500           0.500
  20664145.870      189635.391 6    147767.75722        18.250           1.969
 91  5 20 18 56 59.9990000  0  5G18G11G16G 6G19
  21821398.542     6800066.862 7   5298743.77422        20.750           1.625
  22905384.761    -7205356.611 6  -5614548.05321        16.250           0.938
  23141542.597    -5429607.089 5  -4115315.10921        11.000           0.438
  23207310.776    -6008877.542 5  -4530299.44121        10.250           0.500
  20665368.284      196060.997 6    152774.71022        18.750           2.000
 91  5 20 18 57 14.9990000  0  5G18G11G16G 6G19
  21828616.526     6838001.972 7   5328303.52522        20.250           1.656
  22902868.480    -7218561.002 6  -5624837.18221        16.500           0.875
  23139620.565    -5439709.376 5  -4123187.03421        11.000           0.469
  23200225.581    -6046116.202 5  -4559316.52021        10.500           0.563
  20666600.050      202531.892 6    157816.95122        18.500           2.000
 91  5 20 18 57 29.9990000  0  5G18G11G16G 6G19
  21835848.511     6876012.389 7   5357921.95822        20.250           1.656
  22900391.120    -7231623.295 6  -5635015.56421        17.000           0.875
  23137721.659    -5449679.114 5  -4130955.65821        11.000           0.469
  23193142.456    -6083340.311 5  -4588322.24921        10.500           0.469
  20667839.933      209049.838 6    162895.85622        18.750           2.031
 91  5 20 18 57 44.9990000  0  5G18G11G16G 6G19
  21843098.112     6914099.296 7   5387599.99122        20.000           1.688
  22897939.175    -7244541.736 6  -5645081.85421        18.000           0.875
  23135851.394    -5459514.517 5  -4138619.64121        11.250           0.500
  23186058.808    -6120548.471 5  -4617315.56921        10.250           0.500
  20669091.128      215616.390 6    168012.64022        18.250           2.000
 91  5 20 18 57 59.9990000  0  5G18G11G16G 6G19
  21850360.456     6952260.165 7   5417335.65722        20.250           1.594
  22895500.089    -7257318.718 6  -5655037.92821        17.250           0.906
  23134003.245    -5469218.212 5  -4146180.98221        11.500           0.531
  23178981.933    -6157743.038 5  -4646298.29021        10.500           0.438
  20670349.308      222229.128 6    173165.41122        18.250           1.969
 91  5 20 18 58 14.9990000  0  5G18G11G16G 6G19
  21857635.815     6990494.665 7   5447128.69022        20.000           1.531
  22893099.487    -7269954.157 6  -5664883.70021        17.500           1.000
  23132183.073    -5478790.305 5  -4153639.77621        11.250           0.563
  23171908.987    -6194924.195 5  -4675270.56121        10.500           0.344
  20671616.347      228887.988 6    178354.11822        18.250           2.000
 91  5 20 18 58 29.9990000  0  5G18G11G16G 6G19
  21864925.253     7028803.549 7   5476979.69322        20.000           1.531
  22890721.456    -7282446.978 6  -5674618.35221        17.250           0.875
  23130386.394    -5488229.970 5  -4160995.37421        11.250           0.438
  23164834.339    -6232091.020 5  -4704231.66721        10.500           0.438
  20672890.870      235594.182 6    183579.71122        18.500           2.031
 91  5 20 18 58 44.9990000  0  5G18G11G16G 6G19
  21872230.034     7067185.546 6   5506887.66122        19.750           1.531
  22888373.644    -7294798.346 6  -5684242.76521        17.750           1.000
  23128613.276    -5497538.432 5  -4168248.75021        11.500           0.438
  23157765.644    -6269244.677 5  -4733182.51621        10.250           0.469
  20674178.081      242346.387 6    188841.15622        18.250           2.000
 91  5 20 18 58 59.9990000  0  5G18G11G16G 6G19
  21879546.870     7105639.816 6   5536851.94322        19.750           1.531
  22886048.839    -7307008.383 6  -5693757.05321        17.500           0.906
  23126868.565    -5506716.023 5  -4175400.12221        11.500           0.438
  23150694.933    -6306385.585 5  -4762123.41821        10.250           0.438
  20675471.597      249144.271 6    194138.19822        18.750           1.969
 91  5 20 18 59 14.9990000  0  5G18G11G16G 6G19
  21886879.081     7144169.430 6   5566874.94222        19.750           1.500
  22883752.136    -7319073.678 6  -5703158.55021        17.500           0.906
  23125148.417    -5515759.603 5  -4182447.09221        11.750           0.438
  23143634.620    -6343510.453 5  -4791051.82221        10.250           0.500
  20676774.300      255991.073 6    199473.35722        18.250           2.000
 91  5 20 18 59 29.9990000  0  5G18G11G16G 6G19
  21894224.597     7182773.501 6   5596955.95821        19.500           1.438
  22881482.698    -7330994.881 6  -5712447.78921        17.250           0.906
  23123452.722    -5524669.660 6  -4189390.01021        12.000           0.406
  23136569.995    -6380620.058 5  -4819968.33421        10.250           0.438
  20678084.753      262886.004 6    204846.01722        18.750           1.906
 91  5 20 18 59 44.9990000  0  5G18G11G16G 6G19
  21901585.144     7221451.952 6   5627094.93822        19.500           1.594
  22879244.683    -7342771.973 6  -5721624.72721        17.250           0.938
  23121785.378    -5533446.696 6  -4196229.27621        12.000           0.438
  23129512.800    -6417714.669 5  -4848873.15921        10.500           0.344
  20679408.065      269829.114 6    210256.22422        18.500           2.000
 91  5 20 18 59 59.9990000  0  5G18G11G16G 6G19
  21908959.800     7260199.513 6   5657287.75822        19.250           1.531
  22877031.370    -7354409.708 6  -5730693.07121        17.500           0.969
  23120139.347    -5542095.504 6  -4202968.61921        12.250           0.406
  23122455.784    -6454798.951 5  -4877769.93521        10.500           0.406
  20680735.690      276815.585 6    215700.21122        18.750           2.000
 91  5 20 19  0 14.9990000  0  5G18G11G16G 6G19
  21916346.878     7299023.750 6   5687540.32822        19.250           1.531
  22874844.808    -7365900.083 6  -5739646.57521        17.750           1.000
  23118517.144    -5550608.037 6  -4209601.79021        12.500           0.438
  23115399.933    -6491865.143 5  -4906652.63021        10.750           0.531
  20682076.339      283853.108 6    221183.98522        18.500           2.000
 91  5 20 19  0 29.9990000  0  5G18G11G16G 6G19
  21923748.870     7337922.849 6   5717851.22922        19.500           1.625
  22872679.995    -7377244.690 6  -5748486.51621        16.750           1.000
  23116925.823    -5558986.060 6  -4216130.13921        12.250           0.469
  23108350.972    -6528915.008 5  -4935522.60121        10.500           0.594
  20683425.065      290940.223 6    226706.40222        18.250           1.969
 91  5 20 19  0 44.9990000  0  5G18G11G16G 6G19
  21931165.940     7376893.103 6   5748217.58222        19.500           1.594
  22870547.222    -7388446.804 6  -5757215.42321        16.250           0.938
  23115353.683    -5567233.147 6  -4222556.46821        12.000           0.469
  23101304.534    -6565952.079 5  -4964382.58621        10.750           0.500
  20684782.558      298073.232 6    232264.57922        18.500           1.906
 91  5 20 19  0 59.9990000  0  5G18G11G16G 6G19
  21938595.097     7415937.955 6   5778642.05621        19.250           1.469
  22868445.362    -7399502.879 6  -5765830.52921        16.500           1.000
  23113811.526    -5575345.932 6  -4228878.15021        12.000           0.406
  23094259.081    -6602972.876 5  -4993229.91221        10.500           0.594
  20686146.667      305255.724 6    237861.32022        19.250           1.906
 91  5 20 19  1 14.9990000  0  5G18G11G16G 6G19
  21946038.745     7455051.670 6   5809120.19022        19.000           1.531
  22866373.042    -7410418.253 6  -5774336.00121        17.250           0.938
  23112292.401    -5583329.737 6  -4235099.31121        12.000           0.500
  23087213.995    -6639982.730 5  -5022068.69821        10.250           0.531
  20687525.519      312482.358 6    243492.45422        18.500           1.938
 91  5 20 19  1 29.9990000  0  5G18G11G16G 6G19
  21953494.480     7494231.191 6   5839649.60222        19.000           1.688
  22864312.714    -7421195.603 6  -5782733.91521        16.500           0.906
  23110794.480    -5591187.601 5  -4241222.34521        11.500           0.594
  23080172.909    -6676984.490 5  -5050901.18121        10.500           0.563
  20688908.534      319750.555 6    249155.97222        18.250           1.906
 91  5 20 19  1 44.9990000  0  5G18G11G16G 6G19
  21960963.456     7533481.931 6   5870234.51122        19.000           1.531
  22862294.362    -7431829.172 6  -5791019.81021        17.500           1.000
  23109325.167    -5598913.934 6  -4247242.89321        12.000           0.375
  23073133.839    -6713972.590 5  -5079723.02621        10.250           0.563
  20690299.597      327065.739 6    254856.11022        18.250           1.969
 91  5 20 19  1 59.9990000  0  5G18G11G16G 6G19
  21968446.933     7572807.387 6   5900877.64422        19.250           1.563
  22860292.315    -7442315.152 6  -5799190.70921        17.000           0.938
  23107880.925    -5606504.682 6  -4253157.78021        12.250           0.438
  23066099.198    -6750943.294 5  -5108531.30721        10.500           0.500
  20691701.519      334431.693 6    260595.79922        17.750           1.844
 91  5 20 19  2 14.9990000  0  5G18G11G16G 6G19
  21975944.519     7612204.879 6   5931576.90622        18.750           1.563
  22858327.159    -7452656.043 6  -5807248.52321        17.000           1.000
  23106461.987    -5613962.855 5  -4258969.38221        11.750           0.531
  23059067.565    -6787899.422 5  -5137328.23921        10.750           0.563
  20693112.120      341845.661 6    266372.91322        18.250           2.000
 91  5 20 19  2 29.9990000  0  5G18G11G16G 6G19
  21983454.519     7651674.384 6   5962332.28221        18.750           1.469
  22856387.050    -7462851.501 6  -5815193.03421        17.000           1.000
  23105066.683    -5621288.172 6  -4264677.45221        12.000           0.563
  23052037.855    -6824840.533 5  -5166113.46021        11.000           0.469
  20694528.440      349308.006 6    272187.72022        19.000           2.000
 91  5 20 19  2 44.9990000  0  5G18G11G16G 6G19
  21990979.401     7691213.863 6   5993142.18521        18.500           1.438
  22854479.292    -7472902.962 6  -5823025.33621        18.000           0.969
  23103700.800    -5628482.131 6  -4270283.16121        12.500           0.531
  23045010.972    -6861768.239 5  -5194888.23021        10.750           0.438
  20695960.972      356817.241 6    278039.06822        17.750           2.000
 91  5 20 19  2 59.9990000  0  5G18G11G16G 6G19
  21998515.394     7730821.113 6   6024004.88921        18.750           1.438
  22852591.175    -7482812.193 6  -5830746.79621        17.250           0.906
  23102356.120    -5635546.790 6  -4275788.11421        12.500           0.469
  23037984.870    -6898684.621 5  -5223654.18121        11.000           0.531
  20697398.269      364371.471 6    283925.46722        17.250           2.000
 91  5 20 19  3 14.9990000  0  5G18G11G16G 6G19
  22006066.776     7770502.495 6   6054925.36421        18.750           1.406
  22850728.683    -7492572.854 6  -5838352.49121        16.750           0.906
  23101036.753    -5642475.954 6  -4281187.49721        12.250           0.469
  23030962.948    -6935583.236 5  -5252406.28321        11.000           0.469
  20698845.948      371977.116 6    289851.93422        17.750           1.969
 91  5 20 19  3 29.9990000  0  5G18G11G16G 6G19
  22013630.550     7810252.390 6   6085899.22321        18.250           1.406
  22848910.300    -7502190.228 6  -5845846.54121        18.000           0.906
  23099742.651    -5649275.144 6  -4286485.59121        12.500           0.594
  23023944.925    -6972469.589 5  -5281148.84921        11.000           0.438
  20700303.237      379628.581 6    295814.11322        17.500           2.031
 91  5 20 19  3 44.9990000  0  5G18G11G16G 6G19
  22021208.870     7850076.776 6   6116931.12421        18.500           1.375
  22847101.198    -7511658.184 6  -5853224.15221        16.750           0.813
  23098473.628    -5655938.274 6  -4291677.66621        12.250           0.500
  23016929.964    -7009337.509 5  -5309877.03721        11.250           0.563
  20701767.511      387332.030 6    301816.79022        18.000           2.000
 91  5 20 19  3 59.9990000  0  5G18G11G16G 6G19
  22028800.331     7889970.398 6   6148016.97921        18.750           1.313
  22845328.589    -7520981.594 6  -5860489.13921        16.750           0.906
  23097230.175    -5662470.478 6  -4296767.72121        12.250           0.531
  23009917.355    -7046192.211 5  -5338594.93721        11.250           0.563
  20703244.300      395082.435 6    307856.06422        17.500           2.031
 91  5 20 19  4 14.9990000  0  5G18G11G16G 6G19
  22036406.526     7929931.353 6   6179155.30121        18.750           1.375
  22843578.948    -7530161.734 6  -5867642.48621        16.500           0.875
  23096012.886    -5668872.800 6  -4301756.56521        12.500           0.531
  23002903.831    -7083034.876 5  -5367303.43821        11.250           0.500
  20704726.323      402878.498 6    313930.91122        18.000           2.031
 91  5 20 19  4 29.9990000  0  5G18G11G16G 6G19
  22044022.933     7969961.179 6   6210347.28821        19.000           1.313
  22841857.425    -7539197.012 6  -5874682.95021        16.250           0.750
  23094820.175    -5675143.952 6  -4306643.19721        12.250           0.438
  22995895.440    -7119864.070 5  -5396001.45621        11.250           0.594
  20706216.058      410721.843 6    320042.60822        19.000           2.063
 91  5 20 19  4 44.9990000  0  5G18G11G16G 6G19
  22051653.839     8010061.701 6   6241594.36721        19.000           1.281
  22840170.980    -7548085.128 6  -5881608.73421        16.000           0.875
  23093651.800    -5681281.944 6  -4311426.07121        12.250           0.531
  22988891.050    -7156677.654 5  -5424687.29721        11.250           0.438
  20707720.730      418614.662 6    326192.84722        18.000           2.031
 91  5 20 19  4 59.9990000  0  5G18G11G16G 6G19
  22059297.878     8050230.521 6   6272894.65621        19.000           1.156
  22838507.855    -7556828.261 6  -5888421.55421        17.000           0.844
  23092506.081    -5687289.240 5  -4316107.09621        11.750           0.500
  22981886.276    -7193477.955 5  -5453362.79221        11.000           0.531
  20709230.487      426554.754 6    332379.92822        18.500           2.094
 91  5 20 19  5 14.9990000  0  5G18G11G16G 6G19
  22066954.565     8090468.723 6   6304249.02321        18.500           1.156
  22836874.565    -7565424.963 6  -5895120.28021        17.500           0.906
  23091388.862    -5693164.303 6  -4320685.08421        12.000           0.438
  22974887.886    -7230263.637 5  -5482026.88121        11.250           0.563
  20710750.901      434543.420 6    338604.84922        18.000           2.094
 91  5 20 19  5 29.9990000  0  5G18G11G16G 6G19
  22074625.933     8130778.613 6   6335659.23721        18.750           1.156
  22835257.917    -7573872.808 6  -5901702.98121        15.250           0.938
  23090297.144    -5698904.826 6  -4325158.23621        12.000           0.500
  22967888.261    -7267032.282 5  -5510677.70421        11.250           0.594
  20712281.417      442583.114 6    344869.54322        18.750           2.094
 91  5 20 19  5 44.9990000  0  5G18G11G16G 6G19
  22082309.776     8171157.751 6   6367123.41121        18.250           1.281
  22833689.534    -7582173.766 6  -5908171.26621        17.250           0.906
  23089231.065    -5704513.005 5  -4329528.26421        11.750           0.469
  22960898.698    -7303786.025 5  -5539316.91821        11.000           0.656
  20713820.980      450671.673 6    351172.30322        17.750           2.000
 91  5 20 19  5 59.9990000  0  5G18G11G16G 6G19
  22090006.925     8211604.661 6   6398640.40021        18.250           1.219
  22832128.706    -7590328.954 6  -5914525.94221        16.000           1.063
  23088187.972    -5709990.173 6  -4333796.21021        12.000           0.313
  22953902.144    -7340526.129 5  -5567945.49521        11.000           0.563
  20715368.589      458807.924 6    357512.23222        18.500           2.125
 91  5 20 19  6 14.9990000  0  5G18G11G16G 6G19
  22097716.347     8252117.852 6   6430209.03221        18.500           1.250
  22830601.565    -7598339.391 6  -5920767.82421        15.250           1.000
  23087170.292    -5715337.660 6  -4337963.08421        12.250           0.531
  22946917.855    -7377253.620 5  -5596564.25921        10.750           0.625
  20716926.581      466990.920 6    363888.58422        18.000           2.125
 91  5 20 19  6 29.9990000  0  5G18G11G16G 6G19
  22105439.292     8292698.178 6   6461829.98021        18.500           1.219
  22829121.511    -7606204.168 6  -5926896.21821        18.250           0.906
  23086179.940    -5720554.540 6  -4342028.21621        12.250           0.469
  22939928.761    -7413967.835 5  -5625172.66521        10.500           0.563
  20718492.847      475221.367 6    370301.91422        17.250           2.125
 91  5 20 19  6 44.9990000  0  5G18G11G16G 6G19
  22113175.776     8333347.897 6   6493504.99821        18.500           1.250
  22827639.128    -7613920.669 6  -5932909.06021        16.000           0.969
  23085211.776    -5725638.411 6  -4345989.69221        12.250           0.438
  22932945.394    -7450666.014 5  -5653768.59321        10.500           0.469
  20720068.573      483501.854 6    376754.23522        18.000           2.125
 91  5 20 19  6 59.9990000  0  5G18G11G16G 6G19
  22120924.183     8374065.177 6   6525232.66121        18.500           1.281
  22826200.909    -7621490.606 6  -5938807.71721        16.500           1.031
  23084266.956    -5730590.988 5  -4349848.87021        11.750           0.438
  22925966.355    -7487350.126 5  -5682353.55321        10.750           0.594
  20721652.339      491830.751 6    383244.27922        18.000           2.125
 91  5 20 19  7 14.9990000  0  5G18G11G16G 6G19
  22128684.190     8414850.446 6   6557013.31121        18.000           1.125
  22824783.292    -7628913.025 6  -5944591.40421        15.750           1.063
  23083351.628    -5735411.510 6  -4353605.14521        12.250           0.500
  22918986.308    -7524019.255 5  -5710926.84121        11.000           0.531
  20723249.628      500208.827 6    389772.64122        17.750           2.063
 91  5 20 19  7 29.9990000  0  5G18G11G16G 6G19
  22136458.394     8455702.238 6   6588845.79321        18.500           1.250
  22823408.644    -7636189.123 6  -5950261.07721        17.000           0.906
  23082457.737    -5740101.539 6  -4357259.72921        12.250           0.469
  22912010.331    -7560674.799 5  -5739489.54921        11.500           0.500
  20724849.909      508634.709 6    396338.25822        18.250           2.188
 91  5 20 19  7 44.9990000  0  5G18G11G16G 6G19
  22144244.886     8496620.139 6   6620729.78421        18.500           1.313
  22822045.362    -7643319.033 6  -5955816.84221        16.250           0.875
  23081591.878    -5744661.026 6  -4360812.60321        12.250           0.469
  22905035.987    -7597316.797 5  -5768041.70621        11.250           0.625
  20726463.964      517108.501 6    402941.20622        18.250           2.125
 91  5 20 19  7 59.9990000  0  5G18G11G16G 6G19
  22152041.815     8537598.680 6   6652661.02321        18.250           1.219
  22820718.745    -7650308.066 6  -5961262.83021        17.250           0.938
  23080749.112    -5749095.543 6  -4364268.10021        12.250           0.563
  22898068.026    -7633950.620 5  -5796587.48921        11.500           0.469
  20728081.558      525624.641 6    409577.14622        18.250           2.094
 91  5 20 19  8 14.9990000  0  5G18G11G16G 6G19
  22159852.339     8578641.382 6   6684642.26821        18.250           1.281
  22819414.636    -7657152.247 6  -5966595.95421        17.000           0.969
  23079927.136    -5753401.267 6  -4367623.25021        12.000           0.500
  22891099.534    -7670572.416 5  -5825123.89321        11.500           0.688
  20729713.940      534187.132 6    416249.20622        18.250           2.125
 91  5 20 19  8 29.9990000  0  5G18G11G16G 6G19
  22167676.230     8619754.498 6   6716678.37421        18.250           1.375
  22818140.675    -7663845.082 6  -5971811.13121        16.500           0.969
  23079133.089    -5757571.979 6  -4370873.17221        12.250           0.406
  22884135.480    -7707175.821 5  -5853645.96221        11.750           0.531
  20731351.987      542802.409 6    422962.39322        18.250           2.094
 91  5 20 19  8 44.9990000  0  5G18G11G16G 6G19
  22175512.151     8660928.977 6   6748762.29721        18.000           1.250
  22816896.292    -7670395.239 6  -5976915.14621        17.250           0.938
  23078364.136    -5761616.195 6  -4374024.55221        12.250           0.563
  22877171.120    -7743769.650 5  -5882160.65221        11.500           0.031
  20733001.534      551461.810 6    429709.97022        18.000           2.156
 91  5 20 19  8 59.9990000  0  5G18G11G16G 6G19
  22183358.808     8702168.748 6   6780897.09521        17.750           1.344
  22815669.440    -7676798.559 6  -5981904.74121        17.000           0.938
  23077619.636    -5765530.279 6  -4377074.51521        12.500           0.594
  22870211.026    -7780349.803 5  -5910665.09321        11.250           0.594
  20734656.034      560169.462 6    436495.14222        19.000           2.281
 91  5 20 19  9 14.9990000  0  5G18G11G16G 6G19
  22191219.722     8743471.022 6   6813080.59021        17.500           1.188
  22814490.589    -7683057.781 6  -5986782.04021        18.750           0.906
  23076900.175    -5769316.685 6  -4380024.99421        12.500           0.438
  22863252.394    -7816918.869 5  -5939160.36121        11.000           0.500
  20736323.026      568922.830 6    443315.93722        17.750           2.094
 91  5 20 19  9 29.9990000  0  5G18G11G16G 6G19
  22199089.284     8784834.662 6   6845311.91221        18.000           1.188
  22813319.362    -7689173.757 6  -5991547.72021        17.500           0.875
  23076205.792    -5772976.610 6  -4382876.92321        12.750           0.531
  22856293.175    -7853478.000 5  -5967647.94421        11.000           0.688
  20737996.839      577720.800 6    450171.47822        18.500           2.156
 91  5 20 19  9 44.9990000  0  5G18G11G16G 6G19
  22206973.081     8826258.490 6   6877590.13121        17.750           1.313
  22812181.269    -7695147.019 6  -5996202.20321        17.000           1.000
  23075530.425    -5776510.795 6  -4385630.86121        13.000           0.563
  22849334.425    -7890027.711 5  -5996128.18721        11.500           0.563
  20739679.105      586562.744 6    457061.29022        18.500           2.188
 91  5 20 19  9 59.9990000  0  5G18G11G16G 6G19
  22214868.253     8867751.453 6   6909922.22221        17.250           1.313
  22811074.808    -7700968.407 6  -6000738.34621        17.000           0.906
  23074883.425    -5779910.181 6  -4388279.76421        12.750           0.563
  22842382.839    -7926558.909 5  -6024594.00621        11.750           0.500
  20741370.784      595457.897 6    463992.56722        18.500           2.094
 91  5 20 19 10 14.9990000  0  5G18G11G16G 6G19
  22222777.855     8909312.364 6   6942307.25921        17.000           1.188
  22809996.097    -7706638.840 6  -6005156.85921        17.000           1.000
  23074261.526    -5783175.952 6  -4390824.55221        12.750           0.531
  22835439.370    -7963072.570 5  -6053046.15321        11.500           0.563
  20743076.386      604405.311 6    470964.56522        18.250           2.188
 91  5 20 19 10 29.9990000  0  5G18G11G16G 6G19
  22230698.964     8950936.625 6   6974741.65321        17.000           1.188
  22808946.222    -7712162.659 6  -6009461.13621        17.250           0.875
  23073665.612    -5786312.456 6  -4393268.60621        12.750           0.469
  22828494.230    -7999573.118 5  -6081488.10121        11.250           0.625
  20744787.495      613400.644 6    477973.89922        18.250           2.125
 91  5 20 19 10 44.9990000  0  5G18G11G16G 6G19
  22238631.089     8992626.164 6   7007226.91821        17.000           1.250
  22807919.034    -7717537.770 6  -6013649.52821        16.750           0.969
  23073092.995    -5789317.801 6  -4395610.46121        12.750           0.531
  22821545.347    -8036058.493 5  -6109918.21521        11.250           0.500
  20746508.480      622445.955 6    485022.17822        18.750           2.156
 91  5 20 19 10 59.9990000  0  5G18G11G16G 6G19
  22246577.112     9034381.276 6   7039763.27821        17.250           1.156
  22806934.151    -7722763.661 6  -6017721.64821        18.250           1.031
  23072546.433    -5792191.588 6  -4397849.80321        12.500           0.469
  22814608.292    -8072528.150 5  -6138336.08321        11.000           0.625
  20748237.956      631541.867 6    492109.87822        18.500           2.125
 91  5 20 19 11 14.9990000  0  5G18G11G16G 6G19
  22254534.964     9076200.259 6   7072349.41521        17.250           1.188
  22805954.456    -7727841.651 6  -6021678.51921        17.000           1.031
  23072023.855    -5794935.310 6  -4399987.78921        12.250           0.438
  22807675.706    -8108983.558 5  -6166742.83721        11.500           0.563
  20749979.698      640686.944 6    499235.89822        18.500           2.094
 91  5 20 19 11 29.9990000  0  5G18G11G16G 6G19
  22262505.425     9118083.735 6   7104985.79521        17.000           1.219
  22805020.269    -7732770.859 6  -6025519.45621        17.250           0.938
  23071527.151    -5797547.897 6  -4402023.60421        12.500           0.469
  22800733.378    -8145423.915 5  -6195137.87521        11.250           0.594
  20751727.690      649881.831 6    506400.72622        18.750           2.188
 91  5 20 19 11 44.9990000  0  5G18G11G16G 6G19
  22270488.886     9160033.344 6   7137673.71521        16.500           1.219
  22804119.597    -7737549.510 6  -6029243.08521        18.500           0.906
  23071055.870    -5800028.174 6  -4403956.33021        12.250           0.531
  22793809.456    -8181847.389 5  -6223519.74521        11.500           0.719
  20753488.972      659128.336 6    513605.77322        18.500           2.094
 91  5 20 19 11 59.9990000  0  5G18G11G16G 6G19
  22278483.159     9202046.377 6   7170411.05221        16.750           1.188
  22803231.222    -7742179.986 6  -6032851.24421        17.750           1.000
  23070608.628    -5802378.471 6  -4405787.75721        12.250           0.438
  22786873.870    -8218256.555 5  -6251890.48321        11.750           0.625
  20755256.112      668424.244 6    520849.32022        18.750           2.031
 91  5 20 19 12 14.9990000  0  5G18G11G16G 6G19
  22286489.245     9244117.336 6   7203193.52321        16.750           1.250
  22802381.081    -7746667.118 6  -6036347.70221        18.750           1.031
  23070183.128    -5804603.850 6  -4407521.85921        12.250           0.438
  22779953.425    -8254656.312 5  -6280253.87521        11.500           0.594
  20757035.620      677764.617 6    528127.51922        18.000           2.125
 91  5 20 19 12 29.9990000  0  5G18G11G16G 6G19
  22294507.401     9286249.805 6   7236023.92721        17.000           1.094
  22801554.355    -7751007.219 6  -6039729.60121        18.500           0.969
  23069786.831    -5806701.132 6  -4409156.14821        12.250           0.438
  22773023.730    -8291042.980 5  -6308607.07121        11.750           0.563
  20758820.526      687153.112 6    535443.21122        18.250           2.156
 91  5 20 19 12 44.9990000  0  5G18G11G16G 6G19
  22302536.558     9328445.373 6   7268903.49721        17.000           1.094
  22800760.909    -7755198.581 6  -6042995.58921        18.500           1.031
  23069411.042    -5808668.361 6  -4410689.08921        12.500           0.438
  22766105.722    -8327414.792 5  -6336948.70121        11.500           0.656
  20760617.964      696591.358 6    542797.66322        17.750           2.188
 91  5 20 19 12 59.9990000  0  5G18G11G16G 6G19
  22310577.933     9370704.430 6   7301832.55121        16.750           1.125
  22799988.831    -7759240.517 6  -6046145.15521        18.500           0.969
  23069062.050    -5810504.990 6  -4412120.27721        12.500           0.563
  22759188.315    -8363771.196 5  -6365278.31721        11.500           0.563
  20762423.862      706080.078 6    550191.45522        17.500           2.094
 91  5 20 19 13 14.9990000  0  5G18G11G16G 6G19
  22318630.894     9413023.934 6   7334808.69521        16.750           1.063
  22799240.526    -7763135.744 6  -6049180.40021        17.500           1.031
  23068737.683    -5812213.736 6  -4413451.80221        12.500           0.531
  22752268.597    -8400114.907 6  -6393598.03521        12.000           0.500
  20764238.870      715616.804 6    557622.64922        17.750           2.156
 91  5 20 19 13 29.9990000  0  5G18G11G16G 6G19
  22326695.644     9455403.326 6   7367831.50921        16.750           1.031
  22798534.378    -7766884.584 6  -6052101.56921        18.000           1.000
  23068436.706    -5813795.241 6  -4414684.19021        12.500           0.531
  22745355.253    -8436446.284 5  -6421908.15521        11.250           0.656
  20766060.253      725201.033 6    565090.86522        18.750           2.219
 91  5 20 19 13 44.9990000  0  5G18G11G16G 6G19
  22334772.542     9497844.674 6   7400902.60221        16.500           1.094
  22797850.800    -7770484.802 6  -6054906.92121        17.500           0.906
  23068161.144    -5815247.554 6  -4415815.90721        12.500           0.438
  22738450.331    -8472763.189 5  -6450206.98521        11.750           0.625
  20767896.331      734834.958 6    572597.80122        17.750           2.094
 91  5 20 19 13 59.9990000  0  5G18G11G16G 6G19
  22342860.472     9540346.115 6   7434020.51721        16.750           1.031
  22797183.644    -7773937.671 6  -6057597.48721        17.000           0.906
  23067908.386    -5816571.936 6  -4416847.93721        12.750           0.531
  22731540.112    -8509066.968 5  -6478495.59321        11.250           0.688
  20769739.198      744517.308 6    580142.47222        17.750           2.125
 91  5 20 19 14 14.9990000  0  5G18G11G16G 6G19
  22350960.058     9582907.690 6   7467185.28621        16.750           1.000
  22796567.339    -7777243.045 6  -6060173.09121        18.250           1.000
  23067681.417    -5817768.267 6  -4417780.17521        12.500           0.688
  22724631.472    -8545357.428 5  -6506773.82321        11.250           0.594
  20771589.683      754248.352 6    587725.08322        17.750           2.219
 91  5 20 19 14 29.9990000  0  5G18G11G16G 6G19
  22359070.745     9625529.744 6   7500397.19321        16.500           0.906
  22795957.581    -7780400.371 6  -6062633.35421        17.000           0.906
  23067476.112    -5818836.218 6  -4418612.38521        12.500           0.531
  22717726.901    -8581634.139 5  -6535041.34021        11.250           0.688
  20773451.433      764028.510 6    595345.96922        17.500           2.219
 91  5 20 19 14 44.9990000  0  5G18G11G16G 6G19
  22367193.409     9668213.850 6   7533657.44521        16.750           1.000
  22795393.292    -7783407.803 6  -6064976.80821        18.000           0.906
  23067297.276    -5819774.159 6  -4419343.28421        12.000           0.531
  22710824.730    -8617895.188 5  -6563296.64521        11.250           0.656
  20775321.495      773859.563 6    603006.51022        17.750           2.063
 91  5 20 19 14 59.9990000  0  5G18G11G16G 6G19
  22375328.315     9710956.753 6   7566963.50221        16.750           0.906
  22794844.253    -7786268.122 6  -6067205.63521        18.250           0.875
  23067145.456    -5820584.987 6  -4419975.14421        12.250           0.469
  22703928.167    -8654143.399 5  -6591541.94721        11.500           0.656
  20777199.355      783738.753 6    610704.56522        18.500           2.094
 91  5 20 19 15 14.9990000  0  5G18G11G16G 6G19
  22383472.534     9753758.922 6   7600315.74521        16.500           0.969
  22794329.089    -7788980.813 6  -6069319.41321        18.250           0.906
  23067016.323    -5821268.264 6  -4420507.60521        12.000           0.469
  22697032.933    -8690378.302 5  -6619776.89721        11.750           0.656
  20779091.706      793666.747 6    618440.64522        17.750           2.125
 91  5 20 19 15 29.9990000  0  5G18G11G16G 6G19
  22391627.745     9796613.717 6   7633708.99621        16.250           0.938
  22793839.847    -7791552.408 6  -6071323.24221        18.000           0.938
  23066906.886    -5821831.039 5  -4420946.16021        11.750           0.469
  22690139.480    -8726606.368 6  -6648006.50521        12.000           0.594
  20780988.745      803637.103 6    626209.73122        17.500           2.250
 91  5 20 19 15 44.9990000  0  5G18G11G16G 6G19
  22399791.526     9839517.102 6   7667140.11421        16.250           1.000
  22793383.847    -7793986.480 6  -6073219.92821        18.750           1.000
  23066821.956    -5822276.703 5  -4421293.48421        11.500           0.500
  22683249.175    -8762831.273 6  -6676233.65521        12.000           0.719
  20782893.855      813646.153 6    634008.97222        17.500           2.094
 91  5 20 19 15 59.9990000  0  5G18G11G16G 6G19
  22407966.050     9882480.810 6   7700618.24121        16.000           0.969
  22792937.573    -7796271.232 6  -6075000.26121        18.250           0.969
  23066764.933    -5822593.258 6  -4421540.17521        12.000           0.531
  22676359.987    -8799041.080 6  -6704449.03121        12.000           0.625
  20784808.948      823705.820 6    641847.65222        17.250           2.125
 91  5 20 19 16 14.9990000  0  5G18G11G16G 6G19
  22416153.456     9925505.286 6   7734143.71121        15.750           1.000
  22792537.589    -7798405.770 6  -6076663.52521        18.500           0.938
  23066726.612    -5822780.086 6                        12.000
  22669471.362    -8835235.033 6  -6732652.05621        12.250           0.688
  20786731.597      833817.135 6    649726.58522        17.750           2.031
 91  5 20 19 16 29.9990000  0  5G18G11G16G 6G19
  22424353.745     9968590.481 6   7767716.49221        16.000           0.969
  22792154.800    -7800389.766 6  -6078209.50121        17.500           0.781
  23066716.019    -5822837.295 6                        12.000
  22662583.245    -8871412.838 6  -6760842.49221        12.250           0.750
  20788667.300      843980.255 6    657645.87622        17.250           2.000
 91  5 20 19 16 44.9990000  0  5G18G11G16G 6G19
  22432562.183    10011736.255 6   7801336.48221        16.000           0.938
  22791807.308    -7802223.444 6  -6079638.34721        18.000           0.906
  23066730.628    -5822765.247 6                        12.000
  22655701.347    -8907574.753 6  -6789020.54921        12.250           0.781
  20790609.448      854194.795 6    665605.23922        17.750           2.063
 91  5 20 19 16 59.9990000  0  5G18G11G16G 6G19
  22440783.651    10054941.427 6   7835002.74821        15.750           0.938
  22791484.659    -7803907.639 6  -6080950.70221        17.500           0.938
  23066769.003    -5822564.845 6                        12.000
  22648829.284    -8943721.537 6  -6817186.82521        12.500           0.656
  20792560.011      864460.065 6    673604.13122        18.750           2.219
 91  5 20 19 17 14.9990000  0  5G18G11G16G 6G19
  22449017.315    10098203.847 6   7868713.63221        15.750           0.813
  22791189.909    -7805444.174 6  -6082148.00021        17.250           0.938
  23066826.464    -5822237.813 5                        11.750
  22641947.190    -8979855.000 6  -6845342.70721        12.000           0.750
  20794527.526      874774.318 6    681641.19322        18.000           2.031
 91  5 20 19 17 29.9990000  0  5G18G11G16G 6G19
  22457262.058    10141525.809 6   7902470.89721        15.250           0.938
  22790938.667    -7806830.535 6  -6083228.28721        18.750           1.000
  23066914.980    -5821782.177 5  -4420908.40521        11.750           0.375
  22635075.003    -9015972.713 6  -6873486.31621        12.500           0.719
  20796496.495      885140.046 6    689718.37222        18.250           2.063
 91  5 20 19 17 44.9990000  0  5G18G11G16G 6G19
  22465517.026    10184904.178 6   7936272.12321        15.500           0.781
  22790699.776    -7808069.798 6  -6084193.94321        18.500           1.063
  23067027.659    -5821200.987 5  -4420455.56421        11.750           0.469
  22628207.886    -9052077.683 6  -6901620.01521        12.500           0.719
  20798479.862      895554.219 6    697833.29222        17.750           2.000
 91  5 20 19 17 59.9990000  0  5G18G11G16G 6G19
  22473781.753    10228337.169 6   7970115.90721        15.750           0.813
  22790486.925    -7809163.320 6  -6085046.04321        17.750           0.969
  23067164.159    -5820495.709 5  -4419906.04121        11.750           0.500
  22621334.206    -9088171.415 6  -6929744.94521        12.750           0.688
  20800467.558      906015.527 6    705984.94322        18.250           2.031
 91  5 20 19 18 14.9990000  0  5G18G11G16G 6G19
  22482058.394    10271828.862 6   8004005.44021        15.500           0.750
  22790311.956    -7810106.741 6  -6085781.18021        18.000           1.000
  23067323.050    -5819662.248 5  -4419256.64121        11.750           0.375
  22614475.331    -9124249.443 6  -6957857.64421        12.250           0.688
  20802471.753      916528.322 6    714176.71322        17.750           1.906
 91  5 20 19 18 29.9990000  0  5G18G11G16G 6G19
  22490348.401    10315389.065 6   8037948.35321        15.250           0.844
  22790164.378    -7810890.138 6  -6086391.62621        19.250           0.969
  23067507.370    -5818690.614 5  -4418499.56621        11.500           0.500
  22607609.550    -9160301.828 6  -6985950.35821        12.500           0.688
  20804481.964      927102.633 6    722416.42022        18.000           2.031
 91  5 20 19 18 44.9990000  0  5G18G11G16G 6G19
  22498648.612    10359007.413 6   8071936.58021        15.250           0.813
  22790046.573    -7811523.728 6  -6086885.32221        19.250           0.875
  23067714.519    -5817590.963 5  -4417642.73321        11.250           0.500
  22600751.440    -9196338.687 6  -7014030.98021        12.250           0.531
  20806506.792      937728.381 6    730696.20422        17.750           1.938
 91  5 20 19 18 59.9990000  0  5G18G11G16G 6G19
  22506960.019    10402685.796 6   8105971.57621        15.000           0.781
  22789948.792    -7812005.100 6  -6087260.42821        18.000           0.906
  23067945.839    -5816361.317 5  -4416684.61821        11.250           0.469
  22593901.331    -9232357.760 6  -7042097.73321        12.500           0.688
  20808538.308      948407.691 6    739017.71822        17.500           1.938
 91  5 20 19 19 14.9990000  0  5G18G11G16G 6G19
  22515281.480    10446416.763 6   8140047.54821        15.250           0.781
  22789885.300    -7812341.640 6  -6087522.67121        18.250           1.000
  23068203.823    -5815009.142 5  -4415631.01621        11.250           0.531
  22587043.198    -9268366.348 6  -7070156.33021        12.750           0.688
  20810579.214      959133.504 6    747375.48322        17.750           2.031
 91  5 20 19 19 29.9990000  0  5G18G11G16G 6G19
  22523613.823    10490205.897 6   8174168.85021        15.000           0.719
  22789851.425    -7812527.285 6                        18.500
  23068486.026    -5813528.804 5  -4414477.54621        11.250           0.594
  22580195.636    -9304358.547 6  -7098202.14121        12.250           0.656
  20812628.722      969911.826 6    755774.15622        18.000           2.000
 91  5 20 19 19 44.9990000  0  5G18G11G16G 6G19
  22531958.136    10534048.609 6   8208331.90121        15.000           0.813
  22789840.636    -7812566.554 6                        18.750
  23068791.909    -5811924.807 5  -4413227.72421        11.250           0.500
  22573354.651    -9340338.669 6  -7126238.55021        13.000           0.563
  20814690.144      980738.263 6    764210.32622        17.500           2.094
 91  5 20 19 19 59.9990000  0  5G18G11G16G 6G19
  22540310.003    10577945.212 6   8242536.94321        14.750           0.844
  22789857.026    -7812458.891 6                        17.750
  23069120.730    -5810196.311 5  -4411880.89521        11.250           0.563
  22566509.480    -9376306.223 6  -7154265.16221        13.250           0.688
  20816758.519      991613.349 6    772684.40222        17.750           2.000
 91  5 20 19 20 14.9990000  0  5G18G11G16G 6G19
  22548674.190    10621899.777 6   8276787.14921        14.500           0.781
  22789911.362    -7812200.256 6                        17.000
  23069476.581    -5808339.629 5  -4410434.17421        11.000           0.563
  22559666.644    -9412256.937 6  -7182278.65521        13.000           0.688
  20818839.347     1002541.224 6    781199.61722        17.250           1.938
 91  5 20 19 20 29.9990000  0  5G18G11G16G 6G19
  22557050.284    10665908.717 6   8311079.72121        14.250           0.813
  22789987.323    -7811793.820 6                        17.250
  23069854.440    -5806358.465 5  -4408890.44121        11.250           0.594
  22552824.980    -9448194.143 6  -7210281.61621        12.750           0.688
  20820926.448     1013518.811 6    789753.56622        17.750           1.969
 91  5 20 19 20 44.9990000  0  5G18G11G16G 6G19
  22565435.730    10709972.818 6   8345415.27521        14.500           0.750
  22790091.409    -7811238.744 6  -6086663.27921        17.250           0.938
  23070253.105    -5804251.861 5  -4407248.97421        11.000           0.469
  22545987.909    -9484116.981 6  -7238273.39021        12.750           0.750
  20823027.034     1024546.897 6    798346.86422        17.500           2.125
 91  5 20 19 20 59.9990000  0  5G18G11G16G 6G19
  22573829.464    10754090.223 6   8379792.35721        14.250           0.813
  22790217.065    -7810536.270 6  -6086115.90021        15.750           0.938
  23070678.761    -5802021.245 5  -4405510.88021        11.500           0.531
  22539157.519    -9520026.825 6  -7266255.03821        13.000           0.688
  20825134.269     1035624.174 6    806978.49822        17.750           2.063
 91  5 20 19 21 14.9990000  0  5G18G11G16G 6G19
  22582235.425    10798258.902 6   8414209.40421        14.250           0.844
  22790390.339    -7809688.261 6  -6085455.12821        17.750           0.906
  23071123.925    -5799668.479 5  -4403677.59921        11.250           0.531
  22532323.487    -9555925.417 6  -7294227.91021        12.750           0.781
  20827249.917     1046748.968 6    815647.16122        17.500           2.063
 91  5 20 19 21 29.9990000  0  5G18G11G16G 6G19
  22590649.878    10842481.332 6   8448668.33221        13.750           0.719
  22790576.159    -7808692.063 6  -6084678.86121        17.750           0.875
  23071597.683    -5797191.053 5  -4401747.17721        11.000           0.438
  22525497.190    -9591809.904 6  -7322189.80121        12.750           0.781
  20829375.237     1057924.003 6    824354.96722        19.000           2.031
 91  5 20 19 21 44.9990000  0  5G18G11G16G 6G19
  22599076.136    10886757.879 6   8483169.43021        13.750           0.844
  22790796.417    -7807547.285 6  -6083786.81821        17.250           0.906
  23072091.651    -5794588.755 5  -4399719.45521        11.250           0.500
  22518670.550    -9627679.917 6  -7350140.40621        12.750           0.719
  20831514.222     1069149.651 6    833102.21022        18.250           2.125
 91  5 20 19 21 59.9990000  0  5G18G11G16G 6G19
  22607510.276    10931083.579 6   8517708.83421        13.500           0.844
  22791039.245    -7806258.485 6  -6082782.56821        17.000           1.000
  23072609.495    -5791866.312 5  -4397598.12621        10.750           0.469
  22511848.026    -9663540.146 6  -7378083.38721        12.750           0.781
  20833658.050     1080421.409 6    841885.37922        18.500           2.125
 91  5 20 19 22 14.9990000  0  5G18G11G16G 6G19
  22615956.581    10975464.013 6   8552290.87121        13.250           0.844
  22791319.378    -7804819.766 6  -6081661.48421        18.250           0.844
  23073149.917    -5789017.848 5  -4395378.58121        10.750           0.500
  22505029.503    -9699384.656 6  -7406014.12621        13.000           0.781
  20835815.175     1091745.342 6    850709.21122        18.000           2.125
 91  5 20 19 22 29.9990000  0  5G18G11G16G 6G19
  22624411.956    11019899.464 6   8586915.79221        13.250           0.875
  22791622.456    -7803230.938 6  -6080423.43821        18.250           0.938
  23073718.847    -5786043.082 5  -4393060.62421        11.000           0.469
  22498208.519    -9735213.072 6  -7433932.32421        13.000           0.813
  20837978.323     1103121.660 6    859573.86222        18.000           2.094
 91  5 20 19 22 44.9990000  0  5G18G11G16G 6G19
  22632878.089    11064385.506 6   8621580.13421        13.750           0.813
  22791945.706    -7801496.028 6  -6079071.56421        17.750           0.938
  23074307.339    -5782946.413 5  -4390647.68221        11.250           0.500
  22491391.808    -9771029.441 6  -7461841.13121        13.250           0.781
  20840152.058     1114546.344 6    868476.19822        18.000           2.094
 91  5 20 19 22 59.9990000  0  5G18G11G16G 6G19
  22641351.901    11108922.674 6   8656284.30821        14.250           0.875
  22792308.276    -7799614.176 6  -6077605.17621        17.750           1.000
  23074922.222    -5779727.300 5  -4388139.31921        11.250           0.563
  22484579.394    -9806832.866 6  -7489739.85921        13.000           0.781
  20842336.206     1126020.395 6    877417.00722        18.000           2.094
 91  5 20 19 23 14.9990000  0  5G18G11G16G 6G19
  22649837.831    11153508.889 6   8691026.69521        14.000           0.906
  22792690.948    -7797587.529 6  -6076025.98921        18.000           0.969
  23075557.230    -5776387.816 5  -4385537.17921        11.250           0.438
  22477770.519    -9842625.388 6  -7517630.08321        13.250           0.781
  20844529.159     1137541.726 6    886394.65722        17.750           2.156
 91  5 20 19 23 29.9990000  0  5G18G11G16G 6G19
  22658332.987    11198149.754 6   8725811.66921        13.750           0.938
  22793106.089    -7795410.287 6  -6074329.41221        17.750           1.000
  23076216.862    -5772922.251 5  -4382836.77721        11.250           0.406
  22470960.276    -9878401.065 6  -7545507.18021        13.250           0.688
  20846730.847     1149116.236 6    895413.74222        18.250           1.969
 91  5 20 19 23 44.9990000  0  5G18G11G16G 6G19
  22666838.245    11242840.588 6   8760635.57921        14.000           0.875
  22793542.550    -7793086.611 6  -6072518.76021        16.250           1.000
  23076897.401    -5769335.117 5  -4380041.65121        11.500           0.469
  22464157.097    -9914164.216 6  -7573374.52221        13.500           0.875
  20848943.612     1160739.742 6    904471.00922        17.750           2.000
 91  5 20 19 23 59.9990000  0  5G18G11G16G 6G19
  22675353.683    11287583.407 6   8795499.99621        14.250           0.969
  22794013.995    -7790614.240 6  -6070592.23521        17.000           1.000
  23077604.370    -5765624.289 5  -4377150.14221        11.500           0.438
  22457351.292    -9949912.445 6  -7601230.23821        13.250           0.750
  20851164.151     1172414.603 6    913568.29222        18.000           2.031
 91  5 20 19 24 14.9990000  0  5G18G11G16G 6G19
  22683875.862    11332375.413 6   8830402.74121        14.000           0.875
  22794515.315    -7787996.254 6  -6068552.24421        17.000           1.031
  23078334.183    -5761792.728 5  -4374164.54721        11.250           0.375
  22450553.792    -9985648.725 6  -7629076.64021        13.500           0.719
  20853396.323     1184137.809 6    922703.25222        17.750           2.156
 91  5 20 19 24 29.9990000  0  5G18G11G16G 6G19
  22692409.956    11377219.638 6   8865346.17221        14.250           0.906
  22795040.206    -7785229.059 6  -6066396.00021        16.750           0.969
  23079087.378    -5757837.079 5  -4371082.26921        11.000           0.406
  22443753.136   -10021369.458 6  -7656910.92821        14.000           0.750
  20855634.667     1195912.994 6    931878.70722        18.000           2.031
 91  5 20 19 24 44.9990000  0  5G18G11G16G 6G19
  22700953.558    11422113.114 6   8900327.99421        14.250           0.875
  22795596.722    -7782315.654 6  -6064125.81621        17.500           0.969
  23079862.144    -5753760.390 5  -4367905.68421        10.750           0.438
  22436960.925   -10057077.589 6  -7684735.39421        13.500           0.719
  20857886.097     1207737.546 6    941092.62822        17.750           1.938
 91  5 20 19 24 59.9990000  0  5G18G11G16G 6G19
  22709504.159    11467053.351 6   8935346.23921        14.250           0.844
  22796176.065    -7779258.024 6  -6061743.25321        17.000           1.000
  23080658.815    -5749564.905 5  -4364636.51221        10.750           0.438
  22430166.480   -10092775.083 6  -7712551.56621        13.500           0.688
  20860143.628     1219609.349 6    950343.37422        18.250           2.125
 91  5 20 19 25 14.9990000  0  5G18G11G16G 6G19
  22718064.698    11512037.986 6   8970399.08221        14.000           0.875
  22796790.019    -7776058.397 6  -6059250.06021        17.750           0.938
  23081480.175    -5745253.060 5  -4361276.67421        10.500           0.469
  22423375.276   -10128464.100 6  -7740361.14321        13.500           0.844
  20862413.597     1231526.171 6    959629.19222        17.750           2.063
 91  5 20 19 25 29.9990000  0  5G18G11G16G 6G19
  22726635.831    11557076.537 6   9005493.93721        14.000           0.844
  22797424.378    -7772707.088 6  -6056638.64921        17.750           0.906
  23082327.144    -5740814.859 5  -4357818.37721        10.250           0.469
  22416587.995   -10164134.754 6  -7768156.40621        13.500           0.781
  20864691.737     1243497.985 6    968957.86122        17.750           2.000
 91  5 20 19 25 44.9990000  0  5G18G11G16G 6G19
  22735214.706    11602153.484 6   9040618.70821        13.750           0.719
  22798090.222    -7769219.578 6  -6053921.12221        17.250           0.844
  23083192.042    -5736266.096 5  -4354273.94221        10.250           0.500
  22409799.737   -10199802.578 6  -7795949.46421        13.500           0.844
  20866977.815     1255509.297 6    978317.31422        18.000           2.000
 91  5 20 19 25 59.9990000  0  5G18G11G16G 6G19
  22743802.550    11647283.589 6   9075784.90821        13.750           0.813
  22798780.894    -7765580.762 6  -6051085.69421        17.250           1.000
  23084078.417    -5731591.908 5  -4350631.76721        10.000           0.500
  22403015.331   -10235452.296 6  -7823728.41121        13.750           0.781
  20869270.815     1267575.438 6    987719.48722        18.750           2.094
 91  5 20 19 26 14.9990000  0  5G18G11G16G 6G19
  22752401.112    11692468.874 6   9110994.09921        14.250           0.719
  22799498.550    -7761788.595 6  -6048130.76221        16.750           0.844
  23084993.565    -5726790.242 5  -4346890.25121        10.000           0.469
  22396234.745   -10271081.816 6  -7851491.63621        14.000           0.750
  20871580.597     1279698.479 6    997165.99822        18.000           2.031
 91  5 20 19 26 29.9990000  0  5G18G11G16G 6G19
  22761007.894    11737697.929 6   9146237.39821        14.000           0.719
  22800248.698    -7757854.043 6  -6045064.89121        17.250           0.844
  23085928.683    -5721872.439 5  -4343058.25021        10.000           0.563
  22389457.753   -10306702.182 6  -7879247.71921        14.250           0.813
  20873895.784     1291867.299 6   1006648.17522        17.750           2.031
 91  5 20 19 26 44.9990000  0  5G18G11G16G 6G19
  22769625.058    11782977.056 6   9181519.71121        13.750           0.750
  22801035.237    -7753770.709 6  -6041883.07121        17.500           0.875
  23086890.347    -5716832.201 5  -4339130.83621        10.500           0.406
  22382682.565   -10342306.846 6  -7906991.56621        14.250           0.688
  20876221.144     1304088.614 6   1016171.26222        18.000           2.094
 91  5 20 19 26 59.9990000  0  5G18G11G16G 6G19
  22778249.917    11828304.243 6   9216839.48621        13.250           0.625
  22801829.167    -7749540.509 6  -6038586.83221        16.500           0.813
  23087872.370    -5711671.315 5  -4335109.41821        10.750           0.438
  22375909.925   -10377897.498 6  -7934724.49921        14.500           0.813
  20878557.401     1316360.612 6   1025733.84022        17.750           2.000
 91  5 20 19 27 14.9990000  0  5G18G11G16G 6G19
  22786883.558    11873677.995 6   9252195.53021        12.750           0.688
  22802671.581    -7745164.588 6  -6035177.03421        18.500           0.906
  23088876.433    -5706391.198 5  -4330995.08521        10.750           0.531
  22369139.370   -10413475.347 6  -7962447.45421        14.250           0.688
  20880903.026     1328682.127 6   1035335.00822        17.750           2.000
 91  5 20 19 27 29.9990000  0  5G18G11G16G 6G19
  22795523.269    11919082.448 6   9287575.50021        12.500           0.750
  22803517.636    -7740658.742 6  -6031666.00421        16.500           0.781
  23089902.144    -5701007.659 5  -4326800.16221        11.000           0.438
  22362368.136   -10449056.056 6  -7990172.63721        14.500           0.656
  20883251.159     1341037.594 6   1044962.62622        18.750           2.063
 91  5 20 19 27 44.9990000  0  5G18G11G16G 6G19
  22804170.245    11964521.173 6   9322982.17121        12.250           0.625
  22804409.198    -7736019.196 6  -6028050.79121        17.750           0.906
  23090943.823    -5695517.279 5  -4322521.98821        11.000           0.500
  22355598.151   -10484635.818 6  -8017897.08321        14.500           0.781
  20885611.698     1353430.706 6   1054619.58222        17.750           2.031
 91  5 20 19 27 59.9990000  0  5G18G11G16G 6G19
  22812826.542    12010005.900 6   9358424.69321        12.250           0.594
  22805318.206    -7731234.041 6  -6024322.08621        17.250           0.844
  23092012.362    -5689908.066 5  -4318151.22221        11.000           0.500
  22348827.565   -10520202.538 6  -8045611.36421        14.250           0.750
  20887980.089     1365873.771 6   1064315.45622        17.500           2.031
 91  5 20 19 28 14.9990000  0  5G18G11G16G 6G19
  22821490.190    12055536.764 6   9393903.15921        12.000           0.594
  22806254.894    -7726302.916 6  -6020479.67821        17.000           0.781
  23093101.347    -5684179.887 5  -4313687.76621        10.750           0.500
  22342063.776   -10555755.922 6  -8073315.26021        14.500           0.750
  20890356.276     1378367.051 6   1074050.46522        17.500           2.031
 91  5 20 19 28 29.9990000  0  5G18G11G16G 6G19
  22830161.433    12101110.845 6   9429415.31021        12.000           0.531
  22807222.831    -7721228.722 6  -6016525.77221        18.250           0.813
  23094215.097    -5678335.694 5  -4309133.89221        10.500           0.500
  22335301.394   -10591298.715 6  -8101010.89921        14.250           0.813
  20892744.089     1390907.821 6   1083822.47022        17.250           2.031
 91  5 20 19 28 44.9990000  0  5G18G11G16G 6G19
  22838844.534    12146730.176 6   9464962.71121        12.000           0.688
  22808218.503    -7716008.888 6  -6012458.37021        17.250           0.781
  23095349.706    -5672373.177 5  -4304487.82821        10.750           0.469
  22328540.167   -10626828.338 6  -8128696.27621        14.250           0.656
  20895139.362     1403498.720 6   1093633.53622        17.500           2.063
 91  5 20 19 28 59.9990000  0  5G18G11G16G 6G19
  22847533.315    12192394.398 5   9500545.08521        11.500           0.531
  22809243.003    -7710643.533 6  -6008277.60721        18.000           0.875
  23096509.394    -5666292.520 5  -4299749.69921        10.750           0.438
  22321779.683   -10662344.770 6  -8156371.38121        14.250           0.688
  20897547.401     1416139.663 6   1103483.60722        17.000           2.063
 91  5 20 19 29 14.9990000  0  5G18G11G16G 6G19
  22856230.151    12238103.836 5   9536162.70821        11.500           0.563
  22810287.753    -7705132.737 6  -6003983.48121        17.750           0.906
  23097687.190    -5660093.975 5  -4294919.72221        10.250           0.531
  22315025.511   -10697847.964 6  -8184036.17421        14.250           0.719
  20899961.308     1428830.893 6   1113372.86522        17.750           2.000
 91  5 20 19 29 29.9990000  0  5G18G11G16G 6G19
  22864938.042    12283859.463 5   9571816.31421        11.750           0.563
  22811359.792    -7699475.098 6  -5999574.95021        16.750           0.969
  23098889.792    -5653775.972 5  -4289996.65421        10.000           0.500
  22308270.558   -10733336.354 6  -8211689.42321        14.250           0.813
  20902380.940     1441573.734 6   1123302.32822        19.250           2.031
 91  5 20 19 29 44.9990000  0  5G18G11G16G 6G19
  22873654.526    12329659.458 5   9607504.48721        11.750           0.656
  22812464.105    -7693672.035 6  -5995053.09921        17.750           0.969
  23100114.276    -5647340.348 5  -4284981.92921        10.250           0.531
  22301520.386   -10768811.321 6  -8239332.20721        14.500           0.781
  20904818.495     1454366.831 6   1133270.95522        18.000           2.063
 91  5 20 19 29 59.9990000  0  5G18G11G16G 6G19
  22882379.425    12375502.344 6   9643226.07821        12.250           0.563
  22813594.761    -7687725.175 6  -5990419.19721        17.000           0.969
  23101358.933    -5640788.701 5  -4279876.81221        10.000           0.438
  22294773.558   -10804274.485 6  -8266965.80521        14.250           0.844
  20907258.737     1467208.678 6   1143277.57222        18.250           2.125
 91  5 20 19 30 14.9990000  0  5G18G11G16G 6G19
  22891110.190    12421387.804 6   9678980.84821        12.000           0.625
  22814759.620    -7681634.250 6  -5985673.04221        18.250           0.906
  23102631.683    -5634120.994 5  -4274681.22921         9.750           0.406
  22288024.948   -10839725.378 6  -8294589.83121        13.500           0.813
  20909715.987     1480099.843 6   1153322.62322        18.000           2.063
 91  5 20 19 30 29.9980000  0  5G18G11G16G 6G19
  22899848.779    12467312.715 6   9714766.36821        12.000           0.531
  22815940.803    -7675399.797 6  -5980815.03821        16.250           1.000
  23103920.639    -5627337.895 5  -4269395.75621         9.750           0.500
  22281282.709   -10875161.655 6  -8322202.47221        13.500           0.938
  20912176.123     1493039.425 6   1163405.39922        19.000           2.188
 91  5 20 19 30 44.9980000  0  5G18G11G16G 6G19
  22908598.397    12513285.355 6   9750589.07721        12.000           0.531
  22817154.240    -7669018.633 6  -5975842.72321        17.000           0.969
  23105236.709    -5620436.187 5  -4264017.84321        10.000           0.500
  22274541.639   -10910585.616 6  -8349805.50621        13.750           0.844
  20914650.170     1506031.571 6   1173529.13222        18.000           2.031
 91  5 20 19 30 59.9980000  0  5G18G11G16G 6G19
  22917353.889    12559301.837 5   9786445.93721        11.500           0.625
  22818394.342    -7662492.046 6  -5970757.08621        16.250           0.906
  23106569.865    -5613417.338 5  -4258548.65821         9.750           0.438
  22267802.553   -10945995.566 6  -8377397.62721        14.000           0.906
  20917132.889     1519074.645 6   1183692.54622        18.500           2.188
 91  5 20 19 31 14.9980000  0  5G18G11G16G 6G19
  22926119.053    12605360.978 5   9822336.03521        11.500           0.500
  22819672.701    -7655820.746 6  -5965558.68621        17.750           0.813
  23107927.365    -5606282.133 5  -4252988.80321        10.000           0.438
  22261068.662   -10981392.315 6  -8404979.46521        14.000           0.781
  20919624.287     1532168.004 6   1193895.14322        18.000           2.125
 91  5 20 19 31 29.9980000  0  5G18G11G16G 6G19
  22934893.834    12651465.163 5   9858261.24921        11.750           0.469
  22820968.061    -7649002.291 6  -5960245.61521        17.000           0.844
  23109304.990    -5599028.231 5  -4247336.47121         9.750           0.406
  22254335.732   -11016773.068 6  -8432548.84621        14.250           0.906
  20922127.975     1545314.274 6   1204138.97022        18.000           2.125
 91  5 20 19 31 44.9980000  0  5G18G11G16G 6G19
  22943673.522    12697611.121 6   9894218.98921        12.000           0.594
  22822289.084    -7642039.687 6  -5954820.23021        16.750           0.844
  23110709.584    -5591658.778 5  -4241594.08921         9.750           0.469
  22247603.443   -11052140.832 6  -8460108.09321        14.250           0.906
  20924637.209     1558510.605 6   1214421.80122        18.250           2.094
 91  5 20 19 31 59.9980000  0  5G18G11G16G 6G19
  22952462.912    12743799.587 6   9930209.87121        12.000           0.563
  22823650.232    -7634932.084 6  -5949281.85821        17.750           0.813
  23112133.912    -5584173.369 5  -4235761.36021         9.750           0.469
  22240876.654   -11087494.681 6  -8487656.50321        14.500           0.813
  20927157.662     1571758.012 6   1224744.43922        18.250           2.125
 91  5 20 19 32 14.9980000  0  5G18G11G16G 6G19
  22961260.607    12790030.361 6   9966233.70921        12.250           0.531
  22825023.764    -7627679.500 6  -5943630.49921        15.750           0.781
  23113581.553    -5576571.860 5  -4229838.16721        10.000           0.531
  22234153.857   -11122834.542 6  -8515194.02221        14.750           0.906
  20929688.443     1585056.557 6   1235106.92322        18.000           2.125
 91  5 20 19 32 29.9980000  0  5G18G11G16G 6G19
  22970066.951    12836303.775 6  10002290.77521        12.250           0.625
  22826433.740    -7620281.579 6  -5937865.92121        17.250           0.719
  23115050.061    -5568854.050 5  -4223824.34221        10.000           0.313
  22227430.162   -11158159.827 6  -8542720.17621        14.500           0.875
  20932229.272     1598406.816 6   1245509.70622        18.000           2.094
 91  5 20 19 32 44.9980000  0  5G18G11G16G 6G19
  22978878.482    12882616.024 6  10038378.10221        12.250           0.625
  22827857.350    -7612741.845 6  -5931990.78821        16.000           0.688
  23116542.373    -5561023.573 5  -4217722.72021         9.750           0.500
  22220711.436   -11193473.981 6  -8570237.65421        15.000           0.875
  20934777.842     1611805.388 6   1255950.13022        17.750           2.125
 91  5 20 19 32 59.9980000  0  5G18G11G16G 6G19
  22987699.170    12928970.418 5  10074498.25821        11.500           0.625
  22829329.475    -7605057.054 6  -5926002.67321        17.000           0.719
  23118051.787    -5553077.314 5  -4211530.88821         9.250           0.469
  22213994.443   -11228773.593 6  -8597743.80121        14.750           0.906
  20937336.139     1625255.536 6   1266430.74622        18.000           2.250
 91  5 20 19 33 14.9980000  0  5G18G11G16G 6G19
  22996528.951    12975365.993 5  10110650.50721        11.500           0.688
  22830819.100    -7597227.830 6  -5919901.99221        17.750           0.781
  23119586.014    -5545015.911 5  -4205249.33621         9.250           0.438
  22207277.740   -11264059.307 6  -8625239.12621        14.500           0.875
  20939908.014     1638756.824 6   1276951.20722        17.750           2.219
 91  5 20 19 33 29.9980000  0  5G18G11G16G 6G19
  23005366.881    13021803.537 5  10146835.46121        11.750           0.688
  22832329.842    -7589253.363 6  -5913688.13421        16.500           0.750
  23121143.154    -5536838.798 5  -4198877.61121         9.250           0.500
  22200566.912   -11299329.906 6  -8652722.67321        14.500           0.844
  20942487.686     1652310.283 6   1287512.32522        18.000           2.094
 91  5 20 19 33 44.9980000  0  5G18G11G16G 6G19
  23014211.990    13068279.873 6  10183050.63521        12.000           0.625
  22833875.443    -7581136.562 6  -5907363.37121        17.000           0.875
  23122719.897    -5528548.932 5  -4192418.02121         9.000           0.438
  22193856.912   -11334588.349 6  -8680196.75121        14.250           0.844
  20945074.709     1665913.002 6   1298111.82522        17.750           2.063
 91  5 20 19 33 59.9980000  0  5G18G11G16G 6G19
  23023062.998    13114796.537 5  10219297.24521        11.750           0.531
  22835454.686    -7572875.877 6  -5900926.48821        17.750           0.750
  23124319.529    -5520144.763 5  -4185869.37521         9.250           0.406
  22187148.764   -11369832.906 6  -8707660.00521        14.250           0.813
  20947672.967     1679566.754 6   1308751.09022        18.250           2.188
 91  5 20 19 34 14.9980000  0  5G18G11G16G 6G19
  23031922.514    13161352.413 6  10255574.41221        12.000           0.563
  22837051.998    -7564472.059 6  -5894378.06721        16.750           0.875
  23125940.068    -5511627.421 5  -4179232.54421         9.250           0.500
  22180443.193   -11405064.210 6  -8735112.92721        14.250           0.875
  20950281.053     1693270.839 6   1319429.57722        18.000           2.156
 91  5 20 19 34 29.9980000  0  5G18G11G16G 6G19
  23040788.967    13207945.665 6  10291880.69221        12.000           0.563
  22838681.748    -7555926.835 6                        17.500
  23127578.545    -5502998.659 5                         9.000
  22173741.920   -11440283.800 6  -8762556.72721        14.500           0.813
  20952897.717     1707023.705 6   1330146.07222        18.000           2.188
 91  5 20 19 34 44.9980000  0  5G18G11G16G 6G19
  23049664.748    13254580.460 6  10328219.35721        12.250           0.500
  22840330.092    -7547235.789 6                        17.000
  23129243.990    -5494253.973 5                         9.250
  22167045.686   -11475487.228 6  -8789987.93221        14.250           0.844
  20955527.459     1720830.073 6   1340904.25622        18.000           2.188
 91  5 20 19 34 59.9980000  0  5G18G11G16G 6G19
  23058546.490    13301254.649 5  10364588.69921        11.750           0.594
  22842014.732    -7538401.087 6                        16.250
  23130932.475    -5485395.985 5                         9.250
  22160346.482   -11510676.526 6  -8817408.12621        14.500           0.906
  20958162.084     1734687.911 6   1351702.55022        18.250           2.156
 91  5 20 19 35 14.9980000  0  5G18G11G16G 6G19
  23067434.576    13347967.310 5  10400988.02121        11.500           0.563
  22843711.889    -7529423.374 6                        15.250
  23132635.537    -5476425.390 5                         9.000
  22153653.865   -11545852.068 6  -8844817.60521        15.000           0.875
  20960810.061     1748596.611 6   1362540.47422        18.250           2.156
 91  5 20 19 35 29.9980000  0  5G18G11G16G 6G19
  23076334.295    13394719.019 5  10437417.76621        11.500           0.625
  22845457.920    -7520302.251 6                        16.500
  23134365.162    -5467341.797 5                         9.250
  22146962.459   -11581013.474 6  -8872216.07421        15.000           0.875
  20963465.811     1762556.641 6   1373418.39822        18.000           2.125
 91  5 20 19 35 44.9980000  0  5G18G11G16G 6G19
  23085237.490    13441507.858 5  10473876.44421        11.500           0.563
  22847215.053    -7511039.108 6                        15.750
  23136116.295    -5458146.394 5                         9.250
  22140273.217   -11616161.851 6  -8899604.38821        15.000           0.781
  20966132.107     1776566.842 6   1384335.41122        18.000           2.094
 91  5 20 19 35 59.9980000  0  5G18G11G16G 6G19
  23094146.397    13488334.708 5  10510364.73721        11.500           0.594
  22849016.045    -7501633.014 6  -5845412.70121        17.750           0.938
  23137888.272    -5448838.715 5  -4130306.66021         9.500           0.406
  22133590.623   -11651296.063 6  -8926981.65621        15.000           0.969
  20968807.522     1790628.405 6   1395292.45322        18.000           2.125
 91  5 20 19 36 14.9980000  0  5G18G11G16G 6G19
  23103064.248    13535200.705 5  10546883.54621        11.500           0.500
  22850830.732    -7492082.689 6  -5837970.89521        17.250           0.781
  23139679.240    -5439417.407 5  -4122965.44621         9.250           0.563
  22126905.373   -11686414.769 6  -8954346.85621        15.000           0.938
  20971493.740     1804742.628 6   1406290.51922        18.000           1.969
 91  5 20 19 36 29.9980000  0  5G18G11G16G 6G19
  23111990.084    13582103.066 5  10583430.68921        11.750           0.531
  22852679.647    -7482390.920 6  -5830418.89221        17.250           0.875
  23141494.850    -5429885.492 5  -4115538.03421         9.000           0.438
  22120225.545   -11721520.549 6  -8981701.97321        14.750           0.969
  20974188.240     1818906.896 6   1417327.58622        18.250           2.063
 91  5 20 19 36 44.9980000  0  5G18G11G16G 6G19
  23120921.178    13629040.711 5  10620005.32621        11.500           0.531
  22854540.850    -7472558.667 6  -5822757.40821        17.000           0.875
  23143329.951    -5420243.928 5  -4108025.18821         9.000           0.500
  22113546.014   -11756614.276 6  -9009047.69521        15.000           0.969
  20976893.678     1833120.473 6   1428403.07322        18.000           2.094
 91  5 20 19 36 59.9980000  0  5G18G11G16G 6G19
  23129860.404    13676013.036 5  10656606.97921        11.250           0.500
  22856442.482    -7462586.329 6  -5814986.76221        16.750           0.813
  23145182.772    -5410493.357 5  -4100427.40321         8.750           0.500
  22106871.779   -11791696.158 6  -9036384.18921        15.000           0.938
  20979606.857     1847383.103 6   1439516.78922        18.250           2.094
 91  5 20 19 37 14.9980000  0  5G18G11G16G 6G19
  23138806.131    13723022.576 5  10693237.64221        10.750           0.500
  22858363.522    -7452471.437 6  -5807105.04221        16.250           0.875
  23147059.982    -5400631.309 5  -4092742.76121         8.500           0.469
  22100198.459   -11826763.536 6  -9063709.38521        15.000           1.063
  20982333.631     1861697.453 6   1450670.79822        18.000           2.031
 91  5 20 19 37 29.9980000  0  5G18G11G16G 6G19
  23147760.982    13770069.930 5  10729897.76121        10.750           0.406
  22860309.889    -7442212.739 6  -5799111.27221        16.250           0.844
  23148959.857    -5390656.874 5  -4084970.54121         8.500           0.438
  22093525.678   -11861815.077 6  -9091022.24021        14.750           0.969
  20985064.514     1876064.727 6   1461866.04822        18.250           2.063
 91  5 20 19 37 44.9980000  0  5G18G11G16G 6G19
  23156717.084    13817151.602 5  10766584.61321        10.500           0.469
  22862297.779    -7431813.753 6  -5791008.17521        16.500           0.906
  23150879.639    -5380573.555 5  -4077113.47321         8.750           0.469
  22086859.139   -11896854.101 6  -9118325.33621        15.500           1.000
  20987808.482     1890481.823 6   1473100.11822        17.750           2.125
 91  5 20 19 37 59.9980000  0  5G18G11G16G 6G19
  23165684.053    13864266.555 5  10803297.40721        10.250           0.438
  22864305.201    -7421275.689 6  -5782796.73321        17.500           0.844
  23152818.537    -5370382.694 5  -4069172.60521         8.750           0.469
  22080193.748   -11931881.681 6  -9145619.52521        15.250           1.094
  20990563.576     1904947.744 6   1484372.24422        17.500           2.125
 91  5 20 19 38 14.9980000  0  5G18G11G16G 6G19
  23174657.701    13911416.459 5  10840037.41321        10.250           0.438
  22866332.795    -7410596.591 6  -5774475.35921        16.750           0.719
  23154780.631    -5360082.237 5  -4061146.35221         9.000           0.438
  22073533.061   -11966895.566 6  -9172903.03221        15.250           1.031
  20993324.826     1919464.649 6   1495684.09622        17.500           2.094
 91  5 20 19 38 29.9980000  0  5G18G11G16G 6G19
  23183633.537    13958597.756 5  10876801.90221        10.750           0.438
  22868389.850    -7399779.847 6  -5766046.75721        16.250           0.719
  23156759.756    -5349675.871 5  -4053037.57021         9.250           0.500
  22066871.889   -12001899.141 6  -9200178.51421        15.500           1.000
  20996093.881     1934029.270 6   1507033.12922        18.500           1.969
 91  5 20 19 38 44.9980000  0  5G18G11G16G 6G19
  23192623.803    14005814.544 5  10913594.05621        10.500           0.375
  22870471.600    -7388821.308 6  -5757507.64221        15.750           0.813
  23158760.061    -5339159.411 5  -4044842.98421         9.500           0.469
  22060213.779   -12036887.965 6  -9227442.50721        15.500           1.063
  20998878.772     1948645.764 6   1518422.58222        17.750           1.938
 91  5 20 19 38 59.9980000  0  5G18G11G16G 6G19
  23201610.756    14053064.976 5  10950412.39921        10.500           0.469
  22872595.232    -7377722.783 6  -5748859.46121        17.500           0.875
  23160780.818    -5328534.947 5  -4036564.25321         9.500           0.406
  22053555.678   -12071863.649 6  -9254696.24921        15.000           1.000
  21001668.404     1963312.631 6   1529851.28122        17.250           2.000
 91  5 20 19 39 14.9980000  0  5G18G11G16G 6G19
  23210612.514    14100352.730 5  10987259.84921        10.250           0.406
  22874729.014    -7366480.256 6  -5740099.07621        17.000           0.844
  23162828.701    -5317798.077 5  -4028197.91521         9.500           0.344
  22046903.982   -12106822.010 6  -9281936.49621        15.000           1.000
  21004470.936     1978034.067 6   1541322.50722        17.750           2.000
 91  5 20 19 39 29.9980000  0  5G18G11G16G 6G19
  23219616.561    14147675.263 5  11024134.38921        10.250           0.344
  22876905.678    -7355096.406 6  -5731228.54621        17.250           0.781
  23164888.139    -5306952.022 5  -4019746.51421         9.500           0.375
  22040255.350   -12141765.499 6  -9309165.15621        15.250           0.938
  21007284.076     1992807.527 6   1552834.27222        17.250           2.094
 91  5 20 19 39 44.9980000  0  5G18G11G16G 6G19
  23228628.287    14195030.696 5  11061034.56421        10.250           0.344
  22879085.232    -7343572.947 6  -5722249.24621        16.500           0.781
  23166973.295    -5295998.825 5  -4011211.60721         9.500           0.406
  22033608.897   -12176695.724 6  -9336383.47521        15.500           1.000
  21010102.436     2007631.429 6   1564385.33822        17.250           2.063
 91  5 20 19 39 59.9980000  0  5G18G11G16G 6G19
  23237646.365    14242416.285 5  11097958.24521        10.250           0.406
  22881304.623    -7331912.307 6  -5713163.05521        15.750           0.719
  23169077.607    -5284940.815 5  -4002595.04221         9.500           0.438
  22026964.412   -12211614.937 6  -9363593.21921        15.500           1.031
  21012931.982     2022503.392 6   1575973.85422        17.750           2.125
 91  5 20 19 40 14.9980000  0  5G18G11G16G 6G19
  23246667.982    14289838.849 5  11134910.71721         9.750           0.375
  22883550.998    -7320107.853 6  -5703964.80721        16.000           0.781
  23171203.787    -5273771.265 5  -3993891.55221         9.750           0.406
  22020320.920   -12246516.265 6  -9390789.02721        15.750           1.063
  21015771.357     2037430.379 6   1587605.24922        17.500           2.000
 91  5 20 19 40 29.9980000  0  5G18G11G16G 6G19
  23255699.795    14337298.675 5  11171892.22321        10.000           0.469
  22885828.459    -7308159.052 6  -5694654.06321        16.000           0.844
  23173348.623    -5262490.013 5  -3985101.02921         9.250           0.438
  22013682.693   -12281398.970 6  -9417970.32321        15.750           0.969
  21018627.022     2052413.184 6   1599280.13722        17.500           1.969
 91  5 20 19 40 44.9980000  0  5G18G11G16G 6G19
  23264740.936    14384795.142 5  11208902.30421        10.250           0.281
  22888119.475    -7296066.157 6  -5685231.05421        14.750           0.813
  23175518.889    -5251097.158 5  -3976223.54521         9.500           0.438
  22007049.834   -12316263.271 6  -9445137.28021        16.250           0.969
  21021487.428     2067451.703 6   1610998.44322        17.750           2.000
 91  5 20 19 40 59.9980000  0  5G18G11G16G 6G19
  23273784.912    14432325.894 5  11245939.08021         9.500           0.438
  22890455.639    -7283831.477 6  -5675697.55821        15.500           0.781
  23177705.506    -5239595.206 5  -3967261.04221         8.750           0.375
  22000419.170   -12351111.139 6  -9472291.43521        16.500           1.000
  21024360.076     2082543.664 6   1622758.39522        17.250           1.969
 91  5 20 19 41 14.9980000  0  5G18G11G16G 6G19
  23282836.443    14479892.224 5  11283003.58521         9.750           0.375
  22892809.186    -7271453.866 6  -5666052.68321        15.500           0.781
  23179914.295    -5227983.228 5  -3958212.81621         8.750           0.406
  21993787.147   -12385941.379 6  -9499431.85321        16.000           1.031
  21027238.998     2097690.557 6   1634561.14922        17.750           2.094
 91  5 20 19 41 29.9980000  0  5G18G11G16G 6G19
  23291894.084    14527490.111 5  11320092.67321         9.250           0.438
  22895201.951    -7258937.300 6  -5656299.52321        16.250           0.813
  23182149.357    -5216265.069 5  -3949081.85021         8.750           0.438
  21987164.631   -12420757.650 6  -9526561.37721        16.000           0.906
  21030133.779     2112888.629 6   1646403.77822        17.250           2.031
 91  5 20 19 41 44.9980000  0  5G18G11G16G 6G19
  23300956.389    14575119.385 5  11357206.22121         9.000           0.438
  22897602.170    -7246281.317 6  -5646437.73321        15.500           0.813
  23184399.162    -5204440.466 5  -3939867.94221         9.250           0.531
  21980542.287   -12455559.363 6  -9553679.56321        16.500           1.063
  21033035.811     2128138.442 6   1658286.72722        17.750           1.969
 91  5 20 19 41 59.9980000  0  5G18G11G16G 6G19
  23310025.600    14622781.049 5  11394344.99921         8.500           0.406
  22900044.139    -7233485.011 6  -5636466.61221        16.500           0.875
  23186666.826    -5192508.809 5  -3930570.62821         8.750           0.438
  21973923.420   -12490345.487 6  -9580785.60421        16.500           0.969
  21035944.826     2143441.039 6   1670210.81122        18.500           1.906
 91  5 20 19 42 14.9980000  0  5G18G11G16G 6G19
  23319101.139    14670476.825 5  11431510.36721         8.250           0.438
  22902503.279    -7220546.578 6  -5626384.71821        16.000           0.719
  23188958.006    -5180468.337 5  -3921188.51921         8.500           0.469
  21967305.459   -12525113.921 6  -9607877.85221        16.500           1.031
  21038870.787     2158798.524 6   1682177.65022        17.750           1.969
 91  5 20 19 42 29.9980000  0  5G18G11G16G 6G19
  23328180.256    14718203.415 5  11468699.75121         7.750           0.344
  22904981.686    -7207469.191 6  -5616194.55521        15.000           0.813
  23191268.795    -5168322.169 5  -3911724.04421         8.750           0.438
  21960694.357   -12559867.576 6  -9634958.59121        16.500           1.000
  21041799.404     2174207.761 6   1694184.82322        18.250           1.875
 91  5 20 19 42 44.9980000  0  5G18G11G16G 6G19
  23337267.654    14765961.501 5  11505913.66421         7.750           0.344
  22907511.873    -7194252.365 6  -5605895.76221        17.250           0.938
  23193600.772    -5156069.920 5  -3902176.90321         9.000           0.406
  21954080.725   -12594605.934 6  -9662027.40921        16.750           1.000
  21044742.889     2189669.490 6   1706232.89722        17.500           1.906
 91  5 20 19 42 59.9980000  0  5G18G11G16G 6G19
  23346362.131    14813751.395 5  11543152.37121         7.750           0.406
  22910044.272    -7180895.529 6  -5595487.84821        15.750           0.781
  23195952.701    -5143711.368 5  -3892546.94221         9.250           0.500
  21947474.943   -12629328.024 6  -9689083.55421        16.750           1.000
  21047694.842     2205184.582 6   1718322.55622        18.000           1.969
 91  5 20 19 43 14.9980000  0  5G18G11G16G 6G19
  23355463.311    14861567.684 5  11580411.63721         7.750           0.344
  22912609.889    -7167403.662 6  -5584974.72321        16.250           0.781
  23198323.662    -5131251.392 5  -3882837.94921         9.250           0.406
  21940869.990   -12664038.733 6  -9716130.82321        16.500           1.031
  21050659.232     2220748.173 6   1730450.00322        17.500           1.938
 91  5 20 19 43 29.9980000  0  5G18G11G16G 6G19
  23364573.998    14909418.840 5  11617698.08421         8.250           0.281
  22915205.365    -7153768.443 6  -5574349.88621        16.250           0.813
  23200717.443    -5118681.658 5  -3873043.41921         9.500           0.406
  21934266.936   -12698729.547 6  -9743162.59321        16.250           1.031
  21053628.256     2236368.855 6   1742621.93722        17.750           1.906
 91  5 20 19 43 44.9980000  0  5G18G11G16G 6G19
  23373683.451    14957298.247 5  11655006.53921         8.000           0.375
  22917821.295    -7139996.422 6  -5563618.45921        15.000           0.844
  23203127.006    -5106008.964 5  -3863168.65421         9.750           0.469
  21927668.975   -12733406.691 6  -9770183.71321        16.000           1.219
  21056611.451     2252040.266 6   1754833.40622        17.500           2.031
 91  5 20 19 43 59.9980000  0  5G18G11G16G 6G19
  23382801.389    15005209.890 5  11692340.10021         8.250           0.469
  22920479.373    -7126083.510 6  -5552777.25321        16.500           0.781
  23205559.115    -5093229.247 5  -3853210.50521        10.000           0.375
  21921075.092   -12768066.045 6  -9797190.96621        16.500           1.031
  21059606.553     2267766.666 6   1767087.71822        17.250           1.875
 91  5 20 19 44 14.9980000  0  5G18G11G16G 6G19
  23391926.514    15053153.293 5  11729698.42021         8.250           0.344
  22923151.201    -7112030.087 6  -5541826.54721        16.500           0.781
  23208012.592    -5080343.049 5  -3843169.39421         9.750           0.375
  21914482.373   -12802707.530 6  -9824184.29721        16.500           1.063
  21062608.975     2283547.830 6   1779384.70322        17.250           1.875
 91  5 20 19 44 29.9980000  0  5G18G11G16G 6G19
  23401053.842    15101122.691 5  11767076.99521         8.500           0.406
  22925844.834    -7097841.794 6  -5530770.74921        15.750           0.750
  23210484.881    -5067356.256 5  -3833049.87721        10.000           0.438
  21907891.967   -12837336.600 6  -9851167.95221        16.500           1.063
  21065620.115     2299378.449 6   1791720.22722        17.750           2.000
 91  5 20 19 44 44.9980000  0  5G18G11G16G 6G19
  23410187.154    15149123.089 5  11804479.72521         8.000           0.344
  22928581.803    -7083513.830 6  -5519606.11121        17.750           0.813
  23212977.076    -5054263.994 5  -3822848.19121         9.500           0.344
  21901303.990   -12871948.256 6  -9878138.04621        16.250           1.156
  21068644.779     2315263.560 6   1804098.20722        17.000           1.844
 91  5 20 19 44 59.9980000  0  5G18G11G16G 6G19
  23419323.490    15197153.778 5  11841906.07021         8.250           0.406
  22931327.545    -7069046.468 6  -5508332.86021        15.500           0.844
  23215486.318    -5041066.594 5  -3812564.55821         9.500           0.438
  21894722.623   -12906542.516 6  -9905094.57821        17.250           1.031
  21071677.748     2331202.950 6   1816518.48422        17.250           1.969
 91  5 20 19 45 14.9980000  0  5G18G11G16G 6G19
  23428469.115    15245210.664 5  11879352.81021         8.250           0.406
  22934111.443    -7054443.897 6  -5496954.26321        16.250           0.844
  23218015.975    -5027767.974 5  -3802202.07021         9.500           0.406
  21888141.420   -12941123.394 6  -9932040.68721        17.000           1.063
  21074720.100     2347192.670 6   1828977.98222        17.250           1.844
 91  5 20 19 45 29.9980000  0  5G18G11G16G 6G19
  23437621.162    15293297.442 5  11916822.86821         8.750           0.438
  22936907.311    -7039702.201 6  -5485467.23921        15.250           0.813
  23220565.748    -5014364.726 5  -3791758.02921         9.250           0.375
  21881564.115   -12975686.748 6  -9958973.14321        16.750           1.063
  21077771.240     2363236.873 6   1841479.92822        17.750           1.906
 91  5 20 19 45 44.9980000  0  5G18G11G16G 6G19
  23446775.068    15341409.599 5  11954312.66321         8.500           0.375
  22939748.014    -7024825.846 6  -5473875.30521        16.250           0.719
  23223137.998    -5000861.509 5  -3781236.12021         9.250           0.375
  21874989.811   -13010236.868 6  -9985895.27421        16.750           1.125
  21080834.865     2379331.316 6   1854021.02722        17.250           1.844
 91  5 20 19 45 59.9980000  0  5G18G11G16G 6G19
  23455938.279    15389547.564 5  11991822.59021         8.500           0.438
  22942596.959    -7009814.257 6  -5462177.98221        15.500           0.781
  23225726.373    -4987257.479 5  -3770635.64721         9.250           0.313
  21868417.537   -13044773.023 6 -10012806.52921        16.750           1.188
  21083908.647     2395476.854 6   1866601.93722        17.250           1.969
 91  5 20 19 46 14.9980000  0  5G18G11G16G 6G19
  23465105.022    15437717.897 5  12029357.74221         8.750           0.406
  22945481.342    -6994660.902 6  -5450370.18821        15.750           0.875
  23228338.467    -4973546.647 5  -3759951.94821         9.500           0.281
  21861850.709   -13079288.350 6 -10039701.55521        16.750           1.063
  21086991.404     2411680.105 6   1879227.82222        17.250           1.906
 91  5 20 19 46 29.9980000  0  5G18G11G16G 6G19
  23474276.147    15485915.263 5  12066913.96221         8.250           0.281
  22948401.607    -6979370.762 6  -5438455.81621        17.000           0.813
  23230964.764    -4959733.838 5  -3749188.79421         9.000           0.375
  21855284.795   -13113787.588 6 -10066584.03721        16.250           1.094
  21090081.397     2427936.384 6   1891895.02322        17.750           1.844
 91  5 20 19 46 44.9980000  0  5G18G11G16G 6G19
  23483455.795    15534142.080 5  12104493.13221         8.500           0.406
  22951321.889    -6963941.706 6  -5426433.18621        15.250           0.750
  23233612.545    -4945816.952 5  -3738344.53621         9.000           0.375
  21848720.834   -13148268.244 6 -10093452.04821        16.500           1.156
  21093190.529     2444247.989 6   1904605.34122        17.500           1.969
 91  5 20 19 46 59.9980000  0  5G18G11G16G 6G19
  23492638.842    15582396.731 5  12142093.98021         8.750           0.313
  22954296.561    -6948375.484 6  -5414303.68621        16.500           0.875
  23236281.732    -4931797.642 5  -3727420.47021         9.000           0.406
  21842164.475   -13182731.959 6 -10120306.85621        16.500           1.094
  21096301.607     2460613.533 6   1917357.68822        17.750           1.844
 91  5 20 19 47 14.9980000  0  5G18G11G16G 6G19
  23501826.592    15630678.698 5  12179716.10621         8.500           0.250
  22957281.545    -6932672.197 6  -5402067.37821        16.750           0.750
  23238966.232    -4917676.515 5  -3716417.06621         9.000           0.469
  21835610.311   -13217178.457 6 -10147148.24421        16.250           1.156
  21099429.951     2477033.088 6   1930152.11822        17.250           1.813
 91  5 20 19 47 29.9980000  0  5G18G11G16G 6G19
  23511019.256    15678988.655 5  12217360.04221         8.750           0.469
  22960292.959    -6916830.812 6  -5389723.45721        15.000           0.750
  23241674.951    -4903452.578 5  -3705333.56721         9.000           0.344
  21829057.811   -13251606.728 6 -10173975.43721        16.500           1.063
  21102560.842     2493507.794 6   1942989.52322        17.750           2.000
 91  5 20 19 47 44.9980000  0  5G18G11G16G 6G19
  23520217.732    15727325.117 5  12255024.65021         8.500           0.344
  22963332.623    -6900852.881 6  -5377273.15021        15.750           0.719
  23244400.639    -4889127.516 5  -3694171.25121         9.000           0.375
  21822511.178   -13286017.959 6 -10200789.34421        16.750           1.094
  21105710.545     2510036.338 6   1955868.87722        17.250           1.906
 91  5 20 19 47 59.9980000  0  5G18G11G16G 6G19
  23529422.795    15775689.820 5  12292711.24421         8.750           0.313
  22966402.693    -6884736.897 6  -5364715.25621        16.500           0.781
  23247146.631    -4874699.816 5  -3682928.97321         9.000           0.375
  21815965.467   -13320410.452 6 -10227588.65821        16.500           1.125
  21108864.959     2526620.326 6   1968791.43522        17.250           1.969
 91  5 20 19 48 14.9980000  0  5G18G11G16G 6G19
  23538629.982    15824081.144 5  12330418.59321         8.750           0.344
  22969500.014    -6868484.082 6  -5352050.74821        16.250           0.781
  23249910.904    -4860170.907 5  -3671607.81621         9.000           0.375
  21809424.193   -13354785.156 6 -10254374.10621        16.500           1.125
  21112030.397     2543258.864 6   1981756.49822        17.250           1.906
 91  5 20 19 48 29.9980000  0  5G18G11G16G 6G19
  23547846.420    15872502.291 5  12368149.15821         8.750           0.344
  22972613.490    -6852091.326 6  -5339277.18621        15.000           0.813
  23252694.607    -4845537.575 5  -3660205.29121         9.250           0.344
  21802887.693   -13389138.521 6 -10281142.92521        17.000           1.156
  21115206.147     2559955.386 6   1994766.74722        17.500           1.938
 91  5 20 19 48 44.9980000  0  5G18G11G16G 6G19
  23557065.639    15920950.099 5  12405900.52521         8.750           0.406
  22975754.779    -6835561.522 6  -5326396.84921        14.500           0.688
  23255497.982    -4830803.051 5  -3648723.91621         9.500           0.313
  21796353.381   -13423473.467 6 -10307897.39321        16.750           1.156
  21118396.904     2576707.173 6   2007820.05722        17.500           1.906
 91  5 20 19 48 59.9980000  0  5G18G11G16G 6G19
  23566290.342    15969422.271 5  12443670.87021         8.750           0.406
  22978932.217    -6818897.146 6  -5313411.64521        15.750           0.781
  23258324.170    -4815969.426 5  -3637165.31521         9.750           0.313
  21789822.084   -13457792.126 6 -10334639.17521        16.250           1.219
  21121591.670     2593512.004 6   2020914.70122        17.500           1.844
 91  5 20 19 49 14.9980000  0  5G18G11G16G 6G19
  23575517.217    16017922.273 5  12481462.89021         8.500           0.406
  22982118.740    -6802094.497 6                        14.000
  23261166.506    -4801033.266 5  -3625526.82421        10.000           0.281
  21783295.897   -13492090.580 6 -10361365.20021        16.500           1.250
  21124801.303     2610373.659 6                        17.250
 91  5 20 19 49 29.9980000  0  5G18G11G16G 6G19
  23584753.756    16066446.892 5  12519274.09621         8.500           0.406
  22985347.381    -6785156.730 6                        15.250
  23264024.732    -4785998.212 5  -3613811.26021         9.500           0.250
  21776771.397   -13526371.573 6 -10388077.62821        16.750           1.188
  21128018.811     2627289.357 6                        17.500
 91  5 20 19 49 44.9980000  0  5G18G11G16G 6G19
  23593992.670    16114995.270 5  12557103.81221         8.750           0.469
  22988603.365    -6768084.618 6  -5273817.53621        16.500           0.906
  23266902.600    -4770864.810 5  -3602019.09621         9.500           0.281
  21770251.436   -13560635.740 6 -10414776.94021        16.500           1.156
  21131248.568     2644258.572 6   2060457.39222        17.000           1.750
 91  5 20 19 49 59.9980000  0  5G18G11G16G 6G19
  23603235.865    16163565.785 5  12594950.77821         8.500           0.469
  22991875.592    -6750879.736 6  -5260411.16621        15.750           0.844
  23269803.740    -4755634.850 5  -3590151.66421         9.250           0.281
  21763734.022   -13594884.377 6 -10441464.14321        16.500           1.125
  21134486.662     2661279.880 6   2073720.71322        17.500           1.906
 91  5 20 19 50 14.9980000  0  5G18G11G16G 6G19
  23612482.076    16212164.180 5  12632819.47221         8.250           0.406
  22995176.225    -6733536.358 6  -5246896.87421        17.000           0.906
  23272724.154    -4740302.402 5  -3578204.36921         9.250           0.344
  21757221.756   -13629111.466 6 -10468134.56421        16.250           1.188
  21137738.131     2678359.282 6   2087029.30922        17.250           1.875
 91  5 20 19 50 29.9980000  0  5G18G11G16G 6G19
  23621733.459    16260788.015 5  12670707.99521         8.250           0.375
  22998501.951    -6716056.909 6  -5233276.54621        16.250           0.781
  23275657.584    -4724870.102 5  -3566179.28121         9.250           0.313
  21750711.756   -13663319.038 6 -10494789.77421        16.250           1.188
  21141000.857     2695494.680 6   2100381.53222        17.250           1.813
 91  5 20 19 50 44.9980000  0  5G18G11G16G 6G19
  23630993.264    16309437.492 5  12708616.48221         8.500           0.406
  23001844.412    -6698441.255 6  -5219550.09221        15.000           0.719
  23278615.186    -4709337.948 5  -3554076.38421         9.500           0.219
  21744206.537   -13697506.846 6 -10521429.58621        16.250           1.188
  21144271.201     2712686.385 6   2113777.63522        17.000           1.813
 91  5 20 19 50 59.9980000  0  5G18G11G16G 6G19
  23640255.670    16358113.253 5  12746545.44921         8.500           0.313
  23005227.834    -6680688.235 6  -5205716.59721        15.250           0.844
  23281589.107    -4693704.676 5  -3541894.68421         9.000           0.469
  21737704.084   -13731673.509 6 -10548052.92121        16.500           1.156
  21147550.451     2729935.617 6   2127218.55522        18.000           1.719
 91  5 20 19 51 14.9980000  0  5G18G11G16G 6G19
  23649523.201    16406813.591 5  12784493.56821         8.500           0.406
  23008634.865    -6662799.551 6  -5191777.38321        15.500           0.875
  23284583.311    -4677972.154 5  -3529635.66321         9.250           0.156
  21731206.732   -13765820.494 6 -10574660.92421        16.500           1.250
  21150848.701     2747241.000 6   2140703.23622        17.000           1.781
 91  5 20 19 51 29.9980000  0  5G18G11G16G 6G19
  23658797.365    16455540.680 5  12822462.52521         8.750           0.375
  23012062.647    -6644773.228 6  -5177730.92821        15.250           0.781
  23287598.178    -4662138.561 5  -3517297.87021         9.750           0.344
  21724712.482   -13799945.506 6 -10601251.80821        16.250           1.219
  21154152.467     2764604.819 6   2154233.45522        16.750           1.875
 91  5 20 19 51 44.9980000  0  5G18G11G16G 6G19
  23668074.818    16504296.193 5  12860453.64421         8.750           0.344
  23015524.701    -6626607.511 6  -5163575.83721        15.250           0.688
  23290629.381    -4646202.472 5  -3504880.21421         9.750           0.375
  21718223.865   -13834046.483 6 -10627823.95921        16.500           1.250
  21157466.779     2782029.053 6   2167810.74222        17.000           1.875
 91  5 20 19 51 59.9980000  0  5G18G11G16G 6G19
  23677356.967    16553073.745 5  12898461.93821         8.750           0.344
  23018994.998    -6608308.574 6  -5149316.95221        13.750           0.625
  23293678.607    -4630170.027 5  -3492387.47021         9.500           0.344
  21711737.436   -13868129.335 6 -10654381.98721        16.500           1.250
  21160791.561     2799507.750 6   2181430.47522        16.750           1.781
 91  5 20 19 52 14.9980000  0  5G18G11G16G 6G19
  23686644.092    16601874.835 5  12936488.58021         8.750           0.344
  23022507.201    -6589874.985 6  -5134953.14121        14.250           0.719
  23296746.748    -4614039.800 5  -3479818.55121         9.250           0.313
  21705255.045   -13902192.317 6 -10680924.54021        17.000           1.188
  21164128.725     2817042.678 6   2195094.01722        16.750           1.906
 91  5 20 19 52 29.9980000  0  5G18G11G16G 6G19
  23695935.865    16650698.423 5  12974532.73321         8.750           0.406
  23026047.506    -6571307.727 6  -5120485.17321        16.500           0.688
  23299837.584    -4597812.806 5  -3467174.21821         9.000           0.375
  21698777.670   -13936236.031 6 -10707452.07521        16.750           1.250
  21167473.951     2834633.114 6   2208800.81822        17.500           1.844
 91  5 20 19 52 44.9980000  0  5G18G11G16G 6G19
  23705229.342    16699547.388 5  13012596.66221         9.000           0.438
  23029605.967    -6552603.870 6  -5105910.76421        15.250           0.719
  23302944.061    -4581486.240 5  -3454452.29521         9.500           0.344
  21692303.943   -13970257.426 6 -10733962.22421        17.000           1.375
  21170836.279     2852282.162 6   2222553.28822        16.500           1.875
 91  5 20 19 52 59.9980000  0  5G18G11G16G 6G19
  23714529.967    16748416.710 5  13050676.45721         9.250           0.438
  23033182.920    -6533768.617 6  -5091233.96521        14.750           0.688
  23306067.209    -4565065.489 5  -3441656.97621         9.250           0.344
  21685832.084   -14004261.396 6 -10760458.79021        17.250           1.281
  21174204.170     2869984.856 6   2236347.56122        16.750           1.844
 91  5 20 19 53 14.9980000  0  5G18G11G16G 6G19
  23723834.209    16797308.628 5  13088773.87421         9.250           0.406
  23036800.287    -6514799.353 6  -5076452.73621        15.000           0.625
  23309211.272    -4548547.774 5  -3428786.11721         9.250           0.313
  21679365.326   -14038244.896 6 -10786939.40721        17.000           1.188
  21177584.240     2887744.035 6   2250185.84222        16.500           1.969
 91  5 20 19 53 29.9980000  0  5G18G11G16G 6G19
  23733141.654    16846225.126 5  13126890.42721         9.250           0.313
  23040441.537    -6495694.180 6  -5061565.61521        16.000           0.719
  23312373.865    -4531931.446 5  -3415838.40521         9.500           0.375
  21672903.857   -14072205.811 6 -10813402.42721        17.000           1.375
  21180974.678     2905561.858 6   2264069.82522        16.250           1.813
 91  5 20 19 53 44.9980000  0  5G18G11G16G 6G19
  23742453.920    16895164.397 5  13165024.72721         9.000           0.375
  23044101.459    -6476454.643 6  -5046573.78821        16.250           0.688
  23315556.147    -4515218.171 5  -3402815.16721         9.000           0.438
  21666445.068   -14106145.653 6 -10839849.02621        17.250           1.313
  21184375.897     2923436.978 6   2277998.45222        16.750           1.938
 91  5 20 19 53 59.9980000  0  5G18G11G16G 6G19
  23751770.490    16944126.069 5  13203176.48821         8.750           0.281
  23047787.529    -6457081.312 6  -5031477.70621        15.500           0.688
  23318751.998    -4498408.260 5  -3389716.61321         9.250           0.375
  21659990.412   -14140064.302 6 -10866279.11421        17.250           1.406
  21187790.420     2941369.193 6   2291971.57022        16.250           1.906
 91  5 20 19 54 14.9980000  0  5G18G11G16G 6G19
  23761092.631    16993110.383 5  13241345.88721         8.750           0.406
  23051494.459    -6437573.910 6  -5016277.15321        15.000           0.719
  23321971.772    -4481501.705 5  -3376542.74821         9.000           0.375
  21653539.522   -14173961.475 6 -10892692.46321        17.500           1.344
  21191211.475     2959359.225 6   2305989.74222        16.750           1.938
 91  5 20 19 54 29.9980000  0  5G18G11G16G 6G19
  23770418.076    17042115.182 5  13279531.23621         8.250           0.375
  23055241.936    -6417934.250 6  -5000973.54921        16.500           0.719
  23325208.725    -4464500.689 5  -3363295.28221         8.250           0.313
  21647093.920   -14207838.585 6 -10919090.18021        17.500           1.469
  21194642.123     2977405.287 6   2320051.57422        17.500           1.969
 91  5 20 19 54 44.9980000  0  5G18G11G16G 6G19
  23779746.287    17091141.957 5  13317733.71821         8.500           0.344
  23058995.600    -6398161.034 6  -4985565.86221        14.750           0.688
  23328460.318    -4447403.711 5  -3349973.05721         8.750           0.313
  21640649.576   -14241693.958 6 -10945470.95921        17.500           1.406
  21198092.537     2995508.984 6   2334158.31422        16.750           1.906
 91  5 20 19 54 59.9980000  0  5G18G11G16G 6G19
  23789077.357    17140186.511 5  13355950.07021         8.500           0.344
  23062789.334    -6378258.673 6  -4970057.55821        15.500           0.656
  23331727.865    -4430215.245 5  -3336579.52721         8.000           0.281
  21634210.818   -14275531.794 6 -10971838.07821        18.000           1.344
  21201542.467     3013666.031 6   2348306.62722        16.750           1.906
 91  5 20 19 55 14.9980000  0  5G18G11G16G 6G19
  23798415.006    17189251.597 5  13394182.40521         8.000           0.313
  23066604.217    -6358223.894 6  -4954446.06221        16.250           0.688
  23335018.490    -4412932.420 5  -3323112.48021         8.250           0.406
  21627776.318   -14309348.671 6 -10998188.86121        18.000           1.344
  21205012.326     3031879.985 6   2362499.28122        16.250           1.813
 91  5 20 19 55 29.9980000  0  5G18G11G16G 6G19
  23807755.600    17238337.793 5  13432431.18621         8.000           0.313
  23070433.357    -6338056.114 6  -4938730.92521        14.500           0.719
  23338326.131    -4395554.423 5  -3309571.26321         8.750           0.313
  21621345.209   -14343143.603 6 -11024522.54521        18.250           1.406
  21208487.975     3050151.787 6   2376737.01222        17.000           1.875
 91  5 20 19 55 44.9980000  0  5G18G11G16G 6G19
  23817100.428    17287444.451 5  13470695.92821         8.250           0.375
  23074292.170    -6317756.169 6  -4922912.83421        14.250           0.688
  23341652.428    -4378082.034 5  -3295956.49721         8.000           0.313
  21614918.686   -14376916.967 6 -11050839.42221        18.250           1.469
  21211975.334     3068480.718 6   2391019.26122        16.250           1.844
 91  5 20 19 55 59.9980000  0  5G18G11G16G 6G19
  23826449.975    17336569.262 5  13508974.78321         8.000           0.406
  23078188.568    -6297326.301 6  -4906993.46521        16.250           0.750
  23344993.123    -4360517.706 5  -3282270.10121         8.250           0.375
  21608494.131   -14410670.887 6 -11077141.15021        18.000           1.406
  21215471.920     3086864.836 6   2405344.51122        16.750           1.906
 91  5 20 19 56 14.9980000  0  5G18G11G16G 6G19
  23835802.662    17385710.109 5  13547266.13821         8.000           0.375
  23082087.295    -6276768.629 6  -4890974.52321        13.750           0.813
  23348353.904    -4342863.745 5  -3268513.84521         8.250           0.344
  21602075.647   -14444407.043 6 -11103429.02821        18.000           1.375
  21218985.959     3105302.318 6   2419711.34722        16.750           1.969
 91  5 20 19 56 29.9980000  0  5G18G11G16G 6G19
  23845155.779    17434871.277 5  13585573.34021         8.000           0.375
  23086034.623    -6256078.927 6  -4874852.71121        15.500           0.719
  23351729.451    -4325116.003 5  -3254684.53021         8.250           0.313
  21595658.654   -14478120.844 6 -11129699.49321        18.250           1.344
  21222505.232     3123797.672 6   2434123.27622        16.250           1.969
 91  5 20 19 56 44.9980000  0  5G18G11G16G 6G19
  23854512.482    17484050.489 5  13623894.59921         7.500           0.313
  23090001.701    -6235259.159 6  -4858629.53921        16.500           0.781
  23355126.725    -4307276.324 5  -3240783.56221         8.250           0.313
  21589247.029   -14511814.267 6 -11155954.07821        18.000           1.344
  21226035.592     3142349.193 6   2448578.96922        16.250           1.875
 91  5 20 19 56 59.9980000  0  5G18G11G16G 6G19
  23863874.647    17533251.537 5  13662232.88421         7.500           0.375
  23093981.951    -6214305.447 6  -4842301.98421        14.750           0.750
  23358537.732    -4289340.959 5  -3226808.01921         8.250           0.281
  21582840.475   -14545482.962 6 -11182189.39621        18.250           1.406
  21229573.381     3160961.154 6   2463081.76222        16.750           1.844
 91  5 20 19 57 14.9980000  0  5G18G11G16G 6G19
  23873242.256    17582468.520 5  13700583.59221         7.750           0.281
  23097991.482    -6193223.817 6  -4825874.76321        14.750           0.750
  23361967.482    -4271316.214 5  -3212762.86121         8.250           0.313
  21576436.240   -14579132.480 6 -11208409.76021        18.250           1.406
  21233129.100     3179627.582 6   2477627.00022        16.500           1.906
 91  5 20 19 57 29.9980000  0  5G18G11G16G 6G19
  23882611.600    17631702.555 5  13738947.57021         7.500           0.281
  23102029.818    -6172013.187 6  -4809347.03021        14.250           0.688
  23365416.670    -4253200.934 5  -3198647.15021         8.500           0.313
  21570038.482   -14612761.546 6 -11234614.20021        18.250           1.469
  21236690.014     3198349.992 6   2492215.85222        16.500           1.906
 91  5 20 19 57 44.9980000  0  5G18G11G16G 6G19
  23891984.568    17680955.103 5  13777325.97021         7.500           0.281
  23106092.061    -6150672.268 6  -4792717.76921        15.500           0.656
  23368878.076    -4234993.977 5  -3184459.98621         8.250           0.344
  21563643.139   -14646368.485 6 -11260801.39221        18.250           1.406
  21240266.107     3217129.971 6   2506849.57222        16.250           1.969
 91  5 20 19 57 59.9980000  0  4G11G16G 6G19
  23110176.311    -6129199.963 6  -4775986.13021        14.500           0.813
  23372364.943    -4216694.163 5  -3170200.47321         8.750           0.375
  21557252.092   -14679951.855 6 -11286970.21421        17.750           1.438
  21243848.053     3235968.771 6   2521529.12422        16.500           1.906
 91  5 20 19 58 14.9980000  0  4G11G16G 6G19
  23114285.904    -6107600.358 6  -4759155.28321        14.000           0.625
  23375863.342    -4198305.768 5  -3155871.92221         8.500           0.375
  21550864.537   -14713515.582 6 -11313123.74221        18.250           1.344
  21247443.584     3254862.444 6   2536251.43622        16.250           1.781
 91  5 20 19 58 29.9980000  0  4G11G16G 6G19
  23118423.990    -6085871.237 6  -4742223.53621        15.000           0.594
  23379378.795    -4179826.720 5  -3141472.76121         9.000           0.406
  21544482.545   -14747057.061 6 -11339259.92822        18.500           1.500
  21251052.240     3273813.508 6   2551018.46822        16.500           1.875
 91  5 20 19 58 44.9980000  0  5G 2G11G16G 6G19
  20359598.639          -0.97017                        26.750
  23122571.600    -6064014.624 6  -4725192.42921        13.500           0.531
  23382913.732    -4161258.996 5  -3127004.46721         8.250           0.438
  21538103.779   -14780578.079 6 -11365380.17221        19.000           1.375
  21254667.311     3292820.390 6   2565828.99222        16.000           1.781
 91  5 20 19 58 59.9980000  0  5G 2G11G16G 6G19
  20355615.404      -20931.481 7                        26.250
  23126766.647    -6042030.071 6  -4708061.63821        15.250           0.719
  23386463.795    -4142602.209 5  -3112466.81221         8.250           0.438
  21531729.670   -14814077.619 6 -11391483.67521        18.750           1.406
  21258292.420     3311883.934 6   2580683.67022        16.250           1.813
 91  5 20 19 59 14.9980000  0  5G 2G11G16G 6G19
  20351649.334      -41779.494 7        -0.39633        26.750           3.188
  23130967.084    -6019914.717 6  -4690828.92521        13.750           0.656
  23390028.811    -4123853.516 5  -3097857.53321         8.250           0.438
  21525358.647   -14847552.521 6 -11417567.98621        19.000           1.469
  21261936.107     3331007.045 6   2595584.76322        16.250           1.750
 91  5 20 19 59 29.9980000  0  5G 2G11G16G 6G19
  20347696.857      -62548.373 7    -16183.92323        26.250           3.125
  23135207.178    -5997671.984 6  -4673496.95921        16.000           0.656
  23393612.881    -4105016.433 5  -3083179.37421         8.000           0.281
  21518991.998   -14881006.064 6 -11443635.64921        18.750           1.469
  21265586.842     3350186.643 6   2610529.87122        16.500           1.781
 91  5 20 19 59 44.9980000  0  5G 2G11G16G 6G19
  20343759.772      -83239.472 7    -32306.84223        26.750           3.031
  23139460.545    -5975303.337 6  -4656066.87021        15.000           0.594
  23397216.295    -4086092.411 5  -3068433.47421         8.250           0.500
  21512630.865   -14914439.383 6 -11469687.55321        19.000           1.469
  21269244.295     3369421.574 6   2625518.09122        16.000           1.781
 91  5 20 19 59 59.9980000  0  5G 2G11G16G 6G19
  20339836.654     -103852.484 7    -48368.91223        26.250           3.063
  23143749.248    -5952808.876 6  -4638538.74221        16.250           0.625
  23400834.045    -4067081.767 5  -3053620.07121         7.750           0.438
  21506272.748   -14947852.038 6 -11495723.35621        19.000           1.375
  21272912.982     3388712.083 6   2640549.63022        16.000           1.750
 91  5 20 20  0 14.9980000  0  4G11G16G 6G19
  23148051.326    -5930186.322 6  -4620910.81121        15.250           0.656
  23404468.201    -4047982.469 5  -3038737.58821         8.250           0.375
  21499917.779   -14981241.571 6 -11521741.13821        18.500           1.469
  21276595.928     3408060.399 6   2655626.20822        17.000           1.719
 91  5 20 20  0 29.9980000  0  4G11G16G 6G19
  23152376.498    -5907436.851 6  -4603183.98621        14.500           0.656
  23408120.178    -4028795.463 5  -3023786.76921         8.250           0.406
  21493568.756   -15014609.003 6 -11547741.70321        18.750           1.406
  21280288.998     3427465.630 6   2670747.14222        15.750           1.781
 91  5 20 20  0 44.9980000  0  4G11G16G 6G19
  23156726.686    -5884561.877 6  -4585359.36721        14.500           0.531
  23411786.967    -4009522.402 5  -3008768.86221         8.000           0.344
  21487223.037   -15047955.153 6 -11573725.68422        19.000           1.563
  21283992.561     3446926.852 6   2685911.69222        16.750           1.781
 91  5 20 20  0 59.9980000  0  4G11G16G 6G19
  23161109.647    -5861563.064 6  -4567438.23921        15.000           0.688
  23415471.357    -3990164.849 5  -2993685.17521         8.500           0.344
  21480881.100   -15081281.179 6 -11599693.98321        19.000           1.406
  21287706.725     3466442.670 6   2701118.79522        16.250           1.750
 91  5 20 20  1 14.9980000  0  4G11G16G 6G19
  23165510.162    -5838435.398 6  -4549416.71121        14.750           0.594
  23419167.248    -3970718.270 5  -2978532.05121         7.750           0.313
  21474544.772   -15114582.176 6 -11625642.77322        19.500           1.531
  21291429.365     3486018.182 6   2716372.40822        16.500           1.781
 91  5 20 20  1 29.9980000  0  4G11G16G 6G19
  23169930.232    -5815186.543 6  -4531300.76921        14.250           0.656
  23422888.529    -3951190.134 5                         8.000
  21468210.975   -15147865.333 6 -11651577.66621        19.750           1.375
  21295165.982     3505646.201 6                        16.250
 91  5 20 20  1 44.9980000  0  4G11G16G 6G19
  23174386.232    -5791813.670 6  -4513088.15621        15.500           0.688
  23426618.772    -3931577.280 5                         8.000
  21461881.342   -15181127.360 6 -11677496.09521        19.000           1.344
  21298912.022     3525329.904 6                        16.250
 91  5 20 20  1 59.9980000  0  4G11G16G 6G19
  23178857.889    -5768320.317 6  -4494781.68421        15.500           0.531
  23430368.639    -3911883.717 5                         7.750
  21455556.201   -15214371.475 6 -11703400.56721        18.750           1.375
  21302666.795     3545065.965 6                        15.750
 91  5 20 20  2 14.9980000  0  4G11G16G 6G19
  23183338.506    -5744698.234 6  -4476374.88521        13.500           0.594
  23434130.357    -3892101.177 5                         7.750
  21449235.365   -15247589.054 6 -11729284.36022        18.750           1.531
  21306435.256     3564863.004 6                        16.500
 91  5 20 20  2 29.9980000  0  4G11G16G 6G19
  23187865.701    -5720952.684 6  -4457871.88621        14.250           0.688
  23437913.139    -3872235.232 5                         8.000
  21442917.115   -15280784.918 6 -11755151.23021        19.000           1.344
  21310214.482     3584716.105 6                        16.250
 91  5 20 20  2 44.9980000  0  4G11G16G 6G19
  23192409.842    -5697085.087 6  -4439273.79521        14.500           0.563
  23441707.334    -3852287.226 5                         7.750
  21436604.834   -15313960.408 6 -11781002.22721        19.250           1.469
  21313999.287     3604623.941 6                        16.250
 91  5 20 20  2 59.9980000  0  4G11G16G 6G19
  23196972.865    -5673096.887 6  -4420581.73021        14.750           0.594
  23445520.998    -3832258.484 5                         8.250
  21430295.170   -15347116.408 6 -11806838.03721        19.250           1.438
  21317801.350     3624585.203 6                        15.500
 91  5 20 20  3 14.9980000  0  4G11G16G 6G19
  23201554.772    -5648984.070 6  -4401792.54621        13.000           0.625
  23449346.201    -3812145.180 5  -2854969.30321         8.250           0.313
  21423989.982   -15380248.663 6 -11832655.34322        18.750           1.531
  21321611.506     3644604.254 6   2839945.70422        16.750           1.719
 91  5 20 20  3 29.9980000  0  4G11G16G 6G19
  23206168.678    -5624747.165 6  -4382906.67321        14.000           0.750
  23453189.397    -3791947.793 5  -2839231.15821         8.250           0.344
  21417689.514   -15413357.297 6 -11858454.24021        18.750           1.406
  21325429.818     3664681.064 6   2855589.93222        16.750           1.594
 91  5 20 20  3 44.9980000  0  4G11G16G 6G19
  23210809.482    -5600390.088 6  -4363927.15921        15.250           0.813
  23457050.584    -3771670.446 5  -2823430.71321         8.000           0.250
  21411392.990   -15446445.779 6 -11884237.43722        18.500           1.531
  21329256.107     3684811.967 6   2871276.31722        16.500           1.594
 91  5 20 20  3 59.9980000  0  4G11G16G 6G19
  23215461.811    -5575912.202 6  -4344853.50821        13.500           0.688
  23460923.475    -3751312.603 5  -2807567.56021         8.250           0.375
  21405099.482   -15479513.169 6 -11910004.20421        18.750           1.406
  21333103.264     3704997.862 6   2887005.55322        15.500           1.625
 91  5 20 20  4 14.9980000  0  4G11G16G 6G19
  23220150.842    -5551314.657 6  -4325686.61521        15.000           0.656
  23464813.475    -3730875.186 5  -2791642.36921         8.000           0.313
  21398811.889   -15512560.418 6 -11935755.27121        18.000           1.438
  21336952.623     3725237.789 6   2902776.88822        16.750           1.656
 91  5 20 20  4 29.9980000  0  4G11G16G 6G19
  23224850.951    -5526594.423 6  -4306424.11821        14.500           0.688
  23468719.334    -3710355.622 5  -2775653.19421         7.750           0.313
  21392528.061   -15545584.134 6 -11961488.00421        18.500           1.469
  21340820.998     3745535.104 6   2918592.93722        15.750           1.594
 91  5 20 20  4 44.9980000  0  4G11G16G 6G19
  23229574.717    -5501752.446 6  -4287066.75121        13.750           0.688
  23472638.545    -3689754.734 5  -2759600.65621         8.000           0.406
  21386246.568   -15578584.546 6 -11987202.57821        18.500           1.406
  21344689.373     3765889.345 6   2934453.34122        16.250           1.594
 91  5 20 20  4 59.9980000  0  4G11G16G 6G19
  23234332.912    -5476787.022 6  -4267613.20321        15.000           0.813
  23476571.818    -3669070.987 5  -2743483.53321         7.750           0.375
  21379972.826   -15611559.986 6 -12012897.68921        18.250           1.469
  21348571.107     3786302.334 6   2950359.53022        16.250           1.625
 91  5 20 20  5 14.9980000  0  4G11G16G 6G19
  23239100.123    -5451703.092 6  -4248067.32221        13.250           0.656
  23480523.529    -3648309.300 5  -2727305.71521         8.000           0.344
  21373700.576   -15644514.742 6 -12038576.68621        18.500           1.469
  21352466.834     3806769.561 6   2966307.98122        16.250           1.594
 91  5 20 20  5 29.9980000  0  4G11G16G 6G19
  23243897.295    -5426504.274 6  -4228431.89621        14.250           0.688
  23484489.326    -3627473.471 5  -2711070.07821         7.750           0.375
  21367434.123   -15677452.227 6 -12064242.22422        18.750           1.500
  21356374.889     3827287.640 6   2982296.05822        15.250           1.594
 91  5 20 20  5 44.9980000  0  4G11G16G 6G19
  23248715.256    -5401189.401 6  -4208706.05821        14.000           0.594
  23488469.436    -3606562.096 5  -2694775.60121         7.750           0.281
  21361169.279   -15710370.907 6 -12089893.11121        18.500           1.375
  21360286.162     3847857.841 6   2998324.74022        16.000           1.688
 91  5 20 20  5 59.9980000  0  4G11G16G 6G19
  23253553.068    -5375756.925 6  -4188888.56221        13.500           0.688
  23492464.842    -3585573.895 5  -2678421.23621         7.750           0.281
  21354909.529   -15743268.703 6 -12115527.72322        18.500           1.531
  21364213.826     3868482.167 6   3014395.60322        15.250           1.656
 91  5 20 20  6 14.9980000  0  4G11G16G 6G19
  23258410.162    -5350207.839 6  -4168980.23421        12.750           0.625
  23496472.951    -3564509.905 5  -2662007.85421         7.500           0.281
  21348653.287   -15776146.397 6 -12141146.67521        18.500           1.469
  21368146.107     3889159.959 6   3030508.12822        16.250           1.625
 91  5 20 20  6 29.9980000  0  4G11G16G 6G19
  23263296.826    -5324539.566 6  -4148979.01621        14.250           0.688
  23500494.811    -3543367.540 5  -2645533.37221         7.750           0.281
  21342400.482   -15809000.905 6 -12166747.55621        18.750           1.469
  21372095.482     3909894.149 6   3046664.59622        15.000           1.625
 91  5 20 20  6 44.9980000  0  4G11G16G 6G19
  23268201.467    -5298751.304 6  -4128884.30221        12.500           0.594
  23504530.248    -3522145.823 5  -2628997.04521         7.500           0.188
  21336153.357   -15841831.070 6 -12192329.46722        18.750           1.563
  21376050.568     3930685.722 6   3062865.77422        16.500           1.625
 91  5 20 20  6 59.9980000  0  4G11G16G 6G19
  23273138.037    -5272846.754 6  -4108698.95821        14.250           0.625
  23508586.920    -3500848.605 5  -2612401.90721         7.750           0.281
  21329909.951   -15874640.438 6 -12217895.17622        18.250           1.563
  21380013.912     3951531.188 6   3079108.95422        17.000           1.625
 91  5 20 20  7 14.9980000  0  4G11G16G 6G19
  23278088.639    -5246821.999 6  -4088419.96121        13.250           0.531
  23512654.428    -3479472.433 4  -2595745.24821         7.250           0.281
  21323670.607   -15907424.391 6 -12243441.07821        19.000           1.469
  21383992.623     3972434.940 6   3095397.54522        16.250           1.688
 91  5 20 20  7 29.9980000  0  4G11G16G 6G19
  23283067.100    -5220678.606 6  -4068048.53921        13.500           0.500
  23516735.506    -3458018.684 5  -2579028.10821         7.500           0.250
  21317437.740   -15940184.364 6 -12268968.30522        19.000           1.500
  21387980.045     3993395.511 6   3111730.41422        16.250           1.594
 91  5 20 20  7 44.9980000  0  4G11G16G 6G19
  23288059.373    -5194417.552 6  -4047585.38421        13.750           0.625
  23520833.717    -3436488.353 5  -2562251.31421         8.000           0.281
  21311207.647   -15972921.008 6 -12294477.34621        18.750           1.469
  21391979.084     4014412.266 6   3128107.06122        16.500           1.594
 91  5 20 20  7 59.9980000  0  4G11G16G 6G19
  23293079.818    -5168037.389 6  -4027029.44721        13.500           0.688
  23524945.061    -3414880.284 5  -2545413.94921         7.750           0.250
  21304982.725   -16005632.275 6 -12319966.61922        18.500           1.563
  21395991.959     4035487.195 6   3144529.04322        16.500           1.656
 91  5 20 20  8 14.9980000  0  4G11G16G 6G19
  23298120.795    -5141537.894 6  -4006380.52921        13.250           0.719
  23529072.162    -3393194.105 5  -2528515.74221         7.750           0.250
  21298762.740   -16038317.715 6 -12345435.76322        18.500           1.500
  21400013.264     4056620.644 6   3160996.62222        16.250           1.625
 91  5 20 20  8 29.9980000  0  4G11G16G 6G19
  23303190.467    -5114925.627 6  -3985643.74721        14.000           0.531
  23533213.006    -3371436.463 4  -2511561.80921         7.250           0.219
  21292545.662   -16070983.296 6 -12370889.42922        18.750           1.563
  21404048.811     4077806.418 6   3177504.97722        16.000           1.594
 91  5 20 20  8 44.9980000  0  4G11G16G 6G19
  23308270.881    -5088193.899 5  -3964813.84021        11.250           0.563
  23537367.834    -3349600.936 5  -2494547.19921         7.500           0.250
  21286335.498   -16103622.193 6 -12396322.30721        19.250           1.469
  21408087.990     4099051.399 6   3194059.46822        16.250           1.563
 91  5 20 20  8 59.9980000  0  4G11G16G 6G19
  23313381.748    -5061347.140 6  -3943894.33621        12.000           0.531
  23541538.162    -3327691.668 4  -2477475.14721         7.250           0.188
  21280127.725   -16136238.293 6 -12421737.42322        18.500           1.625
  21412145.022     4120351.626 6   3210657.00622        15.500           1.625
 91  5 20 20  9 14.9980000  0  4G11G16G 6G19
  23318507.857    -5034384.452 5  -3922884.48321        11.000           0.531
  23545721.147    -3305707.967 4  -2460345.05521         7.250           0.188
  21273926.186   -16168830.243 6 -12447133.71922        18.500           1.563
  21416206.279     4141708.267 6   3227298.50021        16.500           1.469
 91  5 20 20  9 29.9980000  0  4G11G16G 6G19
  23323665.897    -5007305.257 5  -3901783.84421        11.250           0.500
  23549915.787    -3283649.029 4  -2443156.40021         6.750           0.188
  21267729.795   -16201397.156 6 -12472510.50722        18.500           1.625
  21420280.115     4163122.059 6   3243984.52422        16.500           1.531
 91  5 20 20  9 44.9980000  0  4G11G16G 6G19
  23328840.842    -4980108.514 6  -3880591.59221        12.000           0.406
  23554130.209    -3261513.959 4  -2425908.39921         7.000           0.188
  21261537.889   -16233937.557 6 -12497866.63322        18.750           1.688
  21424367.561     4184594.570 6   3260716.30622        16.500           1.531
 91  5 20 20  9 59.9980000  0  4G11G16G 6G19
  23334039.881    -4952802.495 6  -3859314.18521        12.500           0.563
  23558355.076    -3239311.196 4  -2408607.61821         7.000           0.250
  21255347.818   -16266459.388 6 -12523208.29222        18.750           1.719
  21428463.654     4206117.725 6   3277487.54622        15.750           1.500
 91  5 20 20 10 14.9980000  0  4G11G16G 6G19
  23339258.092    -4925381.347 6  -3837947.09021        12.250           0.438
  23562595.678    -3217035.233 4  -2391249.83921         6.750           0.188
  21249164.631   -16298956.443 6 -12548530.64522        18.750           1.656
  21432569.131     4227697.647 6   3294303.02722        16.500           1.531
 91  5 20 20 10 29.9980000  0  4G11G16G 6G19
  23344491.990    -4897846.146 5  -3816491.10221        11.000           0.438
  23566847.217    -3194687.055 4  -2373835.77321         6.750           0.188
  21242986.951   -16331429.412 6 -12573834.22922        19.250           1.719
  21436686.217     4249333.693 6   3311162.23722        15.750           1.594
 91  5 20 20 10 44.9980000  0  5G 2G11G16G 6G19
  20185115.975          -0.31018                        28.000
  23349759.592    -4870197.318 6  -3794946.60021        13.250           0.469
  23571115.678    -3172267.107 4  -2356365.80421         7.000           0.250
  21236810.397   -16363878.304 6 -12599119.05422        19.250           1.656
  21440813.279     4271025.530 6   3328064.92321        15.750           1.469
 91  5 20 20 10 59.9980000  0  5G 2G11G16G 6G19
  20181838.709      -17221.076 7                        27.750
  23355036.990    -4842431.093 6  -3773310.58121        12.500           0.531
  23575394.639    -3149771.461 4  -2338836.81221         7.250           0.219
  21230642.186   -16396298.771 6 -12624381.72922        19.750           1.719
  21444952.397     4292777.334 6   3345014.34122        15.250           1.563
 91  5 20 20 11 14.9980000  0  5G 2G11G16G 6G19
  20178577.514      -34362.405 7        -0.32833        27.500           2.906
  23360346.357    -4814547.939 6  -3751583.48421        12.000           0.594
  23579691.303    -3127200.581 4  -2321249.21421         7.000           0.344
  21224477.217   -16428691.090 6 -12649622.47222        19.750           1.625
  21449103.654     4314588.844 6   3362010.28222        15.750           1.500
 91  5 20 20 11 29.9980000  0  5G 2G11G16G 6G19
  20175329.006      -51432.527 7    -13301.71023        27.750           2.875
  23365672.975    -4786556.421 6  -3729771.95121        12.500           0.594
  23583996.631    -3104563.305 4  -2303609.87321         7.250           0.281
  21218315.475   -16461063.315 6 -12674847.55622        19.500           1.688
  21453262.951     4336451.904 6   3379046.39322        16.000           1.594
 91  5 20 20 11 44.9980000  0  5G 2G11G16G 6G19
  20172095.881      -68423.438 7    -26541.37223        27.500           2.969
  23371018.311    -4758448.833 6  -3707869.97221        12.250           0.563
  23588320.857    -3081851.940 4  -2285912.79921         7.000           0.188
  21212162.943   -16493407.231 6 -12700050.58022        19.750           1.594
  21457437.639     4358374.647 6   3396129.00622        15.750           1.563
 91  5 20 20 11 59.9980000  0  5G 2G11G16G 6G19
  20168876.873      -85338.929 7    -39722.26523        27.750           2.906
  23376391.467    -4730229.070 6  -3685880.57321        12.250           0.594
  23592653.006    -3059070.553 4  -2268161.17721         6.750           0.344
  21206011.412   -16525726.553 7 -12725234.44622        20.000           1.688
  21461618.826     4380353.379 6   3413255.24922        15.250           1.531
 91  5 20 20 12 14.9980000  0  4G11G16G 6G19
  23381787.342    -4701896.907 6  -3663803.60221        13.250           0.594
  23597002.873    -3036218.732 4  -2250354.65721         7.000           0.344
  21199866.561   -16558020.552 6 -12750398.57822        19.250           1.531
  21465812.107     4402388.718 6   3430425.60222        15.500           1.563
 91  5 20 20 12 29.9980000  0  4G11G16G 6G19
  23387197.381    -4673452.642 6  -3641639.26421        12.500           0.594
  23601365.147    -3013297.040 4  -2232493.69621         7.250           0.375
  21193725.553   -16590289.177 7 -12775542.93722        20.000           1.688
  21470016.295     4424480.587 6   3447639.99721        15.500           1.469
 91  5 20 20 12 44.9980000  0  4G11G16G 6G19
  23392635.131    -4644896.177 6  -3619387.50321        13.250           0.563
  23605740.990    -2990305.304 4  -2214578.14321         7.250           0.344
  21187590.412   -16622531.916 7 -12800667.12722        20.000           1.625
  21474229.592     4446629.347 6   3464898.73022        16.000           1.594
 91  5 20 20 12 59.9980000  0  4G11G16G 6G19
  23398084.975    -4616231.531 6  -3597051.43121        12.750           0.469
  23610129.631    -2967247.650 5  -2196611.24821         7.500           0.344
  21181459.436   -16654752.292 7 -12825773.89322        20.000           1.719
  21478456.022     4468831.444 6   3482199.03022        15.250           1.656
 91  5 20 20 13 14.9980000  0  4G11G16G 6G19
  23403561.943    -4587456.511 6  -3574629.35421        13.500           0.531
  23614529.053    -2944121.821 4  -2178591.22821         7.000           0.344
  21175331.631   -16686947.767 7 -12850861.25222        20.250           1.781
  21482691.693     4491089.393 6   3499542.84622        16.000           1.531
 91  5 20 20 13 29.9980000  0  4G11G16G 6G19
  23409058.553    -4558571.244 6  -3552121.39221        13.500           0.375
  23618941.857    -2920927.878 4  -2160518.11721         6.250           0.313
  21169209.670   -16719117.959 7 -12875928.90922        20.250           1.625
  21486936.568     4513403.223 6   3516930.20322        15.750           1.563
 91  5 20 20 13 44.9980000  0  4G11G16G 6G19
  23414577.514    -4529577.337 6  -3529528.74421        14.000           0.406
  23623370.818    -2897667.804 4  -2142393.49121         6.500           0.250
  21163092.857   -16751264.204 7 -12900977.90422        20.750           1.781
  21491193.006     4535771.484 6   3534359.97322        16.250           1.500
 91  5 20 20 13 59.9980000  0  3G11G 6G19
  23420113.959    -4500471.932 6  -3506849.21721        13.000           0.469
  21156981.014   -16783383.247 7 -12926005.71022        21.000           1.688
  21495461.967     4558197.438 6   3551834.70622        15.750           1.563
 91  5 20 20 14 14.9980000  0  3G11G 6G19
  23425673.576    -4471254.558 6  -3484082.45421        13.000           0.469
  21150874.811   -16815473.957 7 -12951011.43822        21.000           1.688
  21499740.850     4580682.040 6   3569355.13422        15.500           1.531
 91  5 20 20 14 29.9980000  0  3G11G 6G19
  23431257.693    -4441930.183 6  -3461232.32121        14.000           0.500
  21144772.162   -16847541.026 7 -12975998.74222        21.000           1.719
  21504030.397     4603220.621 6   3586917.62521        15.250           1.438
 91  5 20 20 14 44.9980000  0  3G11G 6G19
  23436852.936    -4412495.121 6  -3438295.92621        12.750           0.406
  21138676.506   -16879580.223 7 -13000964.32922        21.000           1.813
  21508327.459     4625817.476 6   3604525.52422        15.750           1.500
 91  5 20 20 14 59.9980000  0  3G11G 6G19
  23442479.256    -4382954.471 6  -3415277.26521        13.750           0.469
  21132583.264   -16911596.271 7 -13025911.87322        21.250           1.719
  21512638.397     4648467.683 6   3622174.99422        15.500           1.500
 91  5 20 20 15 14.9980000  0  3G11G 6G19
  23448122.373    -4353306.027 6  -3392174.62721        14.000           0.344
  21126495.990   -16943586.598 7 -13050839.37822        20.750           1.781
  21516962.201     4671173.526 6   3639867.81822        15.500           1.500
 91  5 20 20 15 29.9980000  0  3G11G 6G19
  23453780.639    -4323551.305 6  -3368989.14021        12.250           0.469
  21120412.686   -16975552.336 7 -13075747.72222        21.000           1.719
  21521293.779     4693933.880 6   3657603.11921        14.750           1.438
 91  5 20 20 15 44.9980000  0  3G11G 6G19
  23459467.873    -4293689.352 6  -3345720.14621        12.250           0.438
  21114334.865   -17007492.037 7 -13100635.78222        21.250           1.813
  21525633.897     4716750.031 6   3675381.90221        15.500           1.375
 91  5 20 20 15 59.9980000  0  3G11G 6G19
  23465164.732    -4263721.875 5  -3322368.89121        11.250           0.469
  21108261.553   -17039406.964 7 -13125504.53322        21.000           1.719
  21529984.443     4739620.674 6   3693203.14521        15.750           1.344
 91  5 20 20 16 14.9980000  0  3G11G 6G19
  23470891.943    -4233648.354 6  -3298935.03221        12.250           0.531
  21102193.873   -17071296.239 7 -13150353.29922        21.000           1.906
  21534348.186     4762546.622 6   3711067.47421        15.000           1.375
 91  5 20 20 16 29.9980000  0  3G11G 6G19
  23476632.303    -4203469.118 6  -3275418.75621        12.250           0.563
  21096129.865   -17103159.795 7 -13175182.01822        21.250           1.781
  21538726.053     4785527.844 6   3728974.88221        14.750           1.344
 91  5 20 20 16 44.9980000  0  3G11G 6G19
  23482394.998    -4173185.701 5  -3251821.33721        11.750           0.531
  21090070.459   -17134998.642 7 -13199991.48722        21.000           1.781
  21543102.795     4808563.075 6   3746924.36421        15.000           1.438
 91  5 20 20 16 59.9980000  0  3G11G 6G19
  23488173.100    -4142798.638 5  -3228143.12521        10.000           0.375
  21084016.732   -17166812.938 7 -13224781.82822        21.250           1.969
  21547497.811     4831652.020 6   3764915.71521        14.500           1.438
 91  5 20 20 17 14.9980000  0  3G11G 6G19
  23493985.654    -4112307.814 6  -3204384.08221        12.500           0.469
  21077967.889   -17198602.048 7 -13249552.53522        20.750           1.938
  21551903.186     4854795.303 6   3782949.39721        14.750           1.469
 91  5 20 20 17 29.9980000  0  3G11G 6G19
  23499800.764    -4081710.421 5  -3180541.99021        11.500           0.438
  21071923.397   -17230362.884 7 -13274301.21922        20.750           1.938
  21556317.154     4877995.787 6   3801027.64921        15.000           1.281
 91  5 20 20 17 44.9980000  0  3G11G 6G19
  23505644.467    -4051008.363 5  -3156618.31321        10.500           0.469
  21065884.779   -17262096.723 7 -13299028.85922        21.000           2.000
  21560746.381     4901252.309 6   3819149.56821        15.000           1.375
 91  5 20 20 17 59.9980000  0  3G11G 6G19
  23511510.397    -4020203.018 6  -3132614.18721        12.250           0.500
  21059850.178   -17293804.592 7 -13323736.26822        20.500           1.969
  21565182.647     4924563.775 6   3837314.30421        14.250           1.250
 91  5 20 20 18 14.9980000  0  3G11G 6G19
  23517390.076    -3989296.821 5  -3108531.46521        11.500           0.500
  21053822.006   -17325488.471 7 -13348424.98022        20.750           1.969
  21569624.436     4947927.905 6   3855520.07621        14.500           1.406
 91  5 20 20 18 29.9980000  0  3G11G 6G19
  23523293.123    -3958286.498 5  -3084367.58621        11.000           0.500
  21047798.568   -17357144.689 7 -13373092.13722        20.500           1.969
  21574083.607     4971348.185 6   3873769.59721        14.000           1.469
 91  5 20 20 18 44.9980000  0  3G11G 6G19
  23529210.420    -3927171.876 5  -3060122.48621        10.500           0.344
  21041780.162   -17388772.644 7 -13397737.27522        20.500           2.094
  21578551.436     4994825.158 6   3892063.29821        15.250           1.250
 91  5 20 20 18 59.9980000  0  3G11G 6G19
  23535151.998    -3895954.300 5  -3035797.10021        10.750           0.594
  21035765.178   -17420373.157 7 -13422361.02322        20.750           1.969
  21583030.037     5018357.881 6   3910400.43621        14.500           1.281
 91  5 20 20 19 14.9980000  0  3G11G 6G19
  23541114.326    -3864633.047 5  -3011390.97321        11.500           0.469
  21029756.998   -17451945.094 7 -13446962.50822        20.750           2.000
  21587515.373     5041947.337 6   3928781.77421        15.500           1.313
 91  5 20 20 19 29.9980000  0  3G11G 6G19
  23547085.451    -3833209.674 5  -2986905.24721         9.250           0.500
  21023754.615   -17483489.601 7 -13471542.62122        21.000           1.969
  21592014.811     5065592.301 6   3947206.37221        15.500           1.313
 91  5 20 20 19 44.9980000  0  3G11G 6G19
  23553091.592    -3801681.556 5  -2962337.91921        10.500           0.469
  21017758.170   -17515003.541 7 -13496098.91922        20.750           1.969
  21596527.740     5089295.886 6   3965676.65221        15.250           1.281
 91  5 20 20 19 59.9980000  0  3G11G 6G19
  23559109.107    -3770051.963 5  -2937691.52321        10.500           0.563
  21011766.186   -17546489.843 7 -13520633.67422        21.000           2.031
  21601049.389     5113054.988 6   3984190.18421        15.500           1.281
 91  5 20 20 20 14.9980000  0  3G11G 6G19
  23565146.162    -3738324.276 5  -2912968.68221        11.250           0.656
  21005779.342   -17577951.414 7 -13545149.15922        20.750           2.000
  21605579.451     5136866.388 6   4002744.47221        15.250           1.250
 91  5 20 20 20 29.9980000  0  3G11G 6G19
  23571206.662    -3706495.482 5  -2888167.06421        11.750           0.500
  20999796.842   -17609384.789 7 -13569642.67322        20.500           2.031
  21610122.279     5160733.606 6   4021342.25421        15.250           1.313
 91  5 20 20 20 44.9980000  0  3G11G 6G19
  23577281.154    -3674565.899 5  -2863286.91321        11.000           0.344
  20993821.193   -17640789.820 7 -13594114.10222        21.000           1.938
  21614675.529     5184656.620 6   4039983.50821        15.500           1.219
 91  5 20 20 20 59.9980000  0  3G11G 6G19
  23583374.857    -3642537.899 5  -2838330.04321        11.500           0.594
  20987850.701   -17672168.453 7 -13618564.96022        21.000           2.000
  21619232.443     5208633.472 6   4058666.72421        14.250           1.219
 91  5 20 20 21 14.9980000  0  3G11G 6G19
  23589489.162    -3610407.992 6  -2813293.78421        12.000           0.500
  20981885.537   -17703516.554 7 -13642992.02322        21.000           2.031
  21623809.029     5232668.020 6   4077394.88921        14.750           1.094
 91  5 20 20 21 29.9980000  0  3G11G 6G19
  23595619.748    -3578173.629 5  -2788176.11621        11.500           0.563
  20975926.826   -17734831.313 7 -13667393.11022        21.000           2.000
  21628400.623     5256762.911 6   4096170.07921        14.500           1.250
 91  5 20 20 21 44.9980000  0  3G11G 6G19
  23601772.209    -3545840.093 5  -2762981.18821        11.750           0.625
  20969972.397   -17766117.562 7 -13691771.97822        21.250           1.906
  21632988.139     5280913.225 6   4114988.45121        14.750           1.188
 91  5 20 20 21 59.9980000  0  3G11G 6G19
  23607945.076    -3513407.704 5  -2737709.24121        11.250           0.594
  20964024.686   -17797375.122 7 -13716128.49022        21.250           2.125
  21637595.475     5305119.042 6   4133850.07621        14.250           1.125
 91  5 20 20 22 14.9980000  0  3G11G 6G19
  23614138.443    -3480878.112 6  -2712361.55121        13.500           0.594
  20958082.514   -17828605.186 7 -13740463.58022        21.000           1.969
  21642210.818     5329379.117 6   4152753.97721        14.750           1.188
 91  5 20 20 22 29.9980000  0  3G11G 6G19
  23620349.904    -3448249.365 6  -2686936.57521        12.250           0.438
  20952144.482   -17859805.428 7 -13764775.42922        21.000           1.938
  21646837.623     5353695.792 6   4171701.98521        14.250           1.250
 91  5 20 20 22 44.9980000  0  3G11G 6G19
  23626574.412    -3415520.346 5  -2661433.48421        11.250           0.438
  20946212.115   -17890974.115 7 -13789062.69322        20.750           1.875
  21651477.334     5378070.329 6   4190695.07721        14.750           1.188
 91  5 20 20 22 59.9980000  0  3G11G 6G19
  23632821.404    -3382698.139 5  -2635857.78121        11.000           0.375
  20940287.623   -17922117.831 7 -13813330.49922        22.000           1.969
  21656127.615     5402496.120 6   4209728.10921        14.750           1.188
 91  5 20 20 23 14.9980000  0  3G11G 6G19
  23639085.670    -3349777.827 6  -2610205.62721        12.250           0.438
  20934365.787   -17953231.314 7 -13837574.74822        21.500           1.938
  21660786.092     5426978.463 6   4228805.20221        15.250           1.250
 91  5 20 20 23 29.9980000  0  3G11G 6G19
  23645369.232    -3316760.535 5  -2584477.91321        10.750           0.406
  20928449.529   -17984315.269 7 -13861795.98722        21.500           1.938
  21665457.607     5451516.420 6   4247925.64321        14.750           1.250
 91  5 20 20 23 44.9980000  0  3G11G 6G19
  23651669.975    -3283648.453 6  -2558676.33721        12.000           0.406
  20922541.967   -18015371.294 7 -13885995.46122        21.500           1.844
  21670134.318     5476108.135 6   4267087.96121        15.250           1.250
 91  5 20 20 23 59.9980000  0  3G11G 6G19
  23657992.061    -3250432.112 5  -2532793.49221        11.500           0.344
  20916636.764   -18046389.578 7 -13910165.53222        21.500           1.875
  21674827.850     5500763.382 6   4286299.79121        15.250           1.281
 91  5 20 20 24 14.9980000  0  3G11G 6G19
  23664332.428    -3217113.237 6  -2506830.75921        13.000           0.344
  20910744.092   -18077371.335 7 -13934307.13322        21.750           1.906
  21679528.443     5525480.711 6   4305559.99421        15.250           1.250
 91  5 20 20 24 29.9980000  0  3G11G 6G19
  23670685.826    -3183698.197 5  -2480793.10021        11.000           0.313
  20904851.279   -18108322.250 7 -13958424.70822        21.500           1.875
  21684245.654     5550254.262 6   4324864.00521        15.000           1.250
 91  5 20 20 24 44.9980000  0  3G11G 6G19
  23677064.670    -3150188.792 5  -2454681.94521        11.000           0.219
  20898970.139   -18139243.870 7 -13982519.44922        21.750           2.000
  21688972.607     5575082.546 6   4344210.66321        15.000           1.281
 91  5 20 20 24 59.9980000  0  3G11G 6G19
  23683457.482    -3116585.315 5  -2428497.43321        11.000           0.375
  20893088.389   -18170135.972 7 -14006591.19122        21.500           2.000
  21693711.514     5599965.644 6   4363600.03521        15.000           1.250
 91  5 20 20 25 14.9980000  0  3G11G 6G19
  23689870.389    -3082888.747 5  -2402240.39521        11.250           0.344
  20887217.311   -18200999.113 7 -14030640.37022        21.750           1.906
  21698447.850     5624902.752 6   4383031.49621        15.000           1.219
 91  5 20 20 25 29.9980000  0  3G11G 6G19
  23696306.412    -3049094.207 5  -2375907.03421        11.000           0.281
  20881349.678   -18231827.768 7 -14054662.67522        22.000           1.906
  21703209.373     5649899.231 6   4402509.21821        14.500           1.219
 91  5 20 20 25 44.9980000  0  3G11G 6G19
  23702750.412    -3015203.506 5  -2349498.72921        10.500           0.406
  20875489.897   -18262623.487 7 -14078659.31322        21.750           1.906
  21707974.654     5674953.373 6   4422031.86321        15.000           1.188
 91  5 20 20 25 59.9980000  0  3G11G 6G19
  23709220.498    -2981218.975 6  -2323017.32121        12.000           0.313
  20869637.592   -18293388.049 7 -14102631.67722        22.000           1.875
  21712751.967     5700063.303 6   4441597.98621        14.750           1.094
 91  5 20 20 26 14.9980000  0  3G11G 6G19
  23715702.740    -2947139.551 5  -2296461.95721        10.250           0.438
  20863787.928   -18324120.101 7 -14126578.70722        21.750           1.813
  21717545.904     5725230.356 6   4461208.62121        15.500           1.031
 91  5 20 20 26 29.9980000  0  3G11G 6G19
  23722206.436    -2912965.491 5  -2269832.87621         9.750           0.344
  20857944.670   -18354819.248 7 -14150500.09522        22.250           1.813
  21722338.600     5750454.746 6   4480863.93721        14.250           1.063
 91  5 20 20 26 44.9980000  0  3G11G 6G19
  23728729.772    -2878698.725 5  -2243131.52721         9.500           0.281
  20852111.154   -18385486.960 7 -14174396.99222        22.250           1.906
  21727153.584     5775734.731 6   4500562.57221        15.000           1.063
 91  5 20 20 26 59.9980000  0  3G11G 6G19
  23735264.904    -2844340.891 5  -2216359.24521         9.250           0.469
  20846280.787   -18416124.255 7 -14198270.18722        22.250           1.938
  21731973.803     5801069.182 6   4520303.64921        14.750           1.094
 91  5 20 20 27 14.9980000  0  3G11G 6G19
  23741820.225    -2809891.128 5  -2189515.31721         9.000           0.344
  20840455.545   -18446729.991 7 -14222118.78822        22.750           1.938
  21736802.279     5826459.180 6   4540088.00421        14.750           1.031
 91  5 20 20 27 29.9980000  0  3G11G 6G19
  23748395.709    -2775346.708 5  -2162597.63321         9.250           0.375
  20834637.693   -18477300.742 7 -14245940.13722        22.500           1.938
  21741649.061     5851907.852 6   4559918.08421        14.000           1.188
 91  5 20 20 27 44.9980000  0  3G11G 6G19
  23754987.256    -2740712.281 5  -2135609.81621         9.250           0.313
  20828826.318   -18507840.886 7 -14269737.62922        22.500           2.094
  21746499.904     5877410.772 6   4579790.43021        14.500           1.188
 91  5 20 20 27 59.9980000  0  3G11G 6G19
  23761596.092    -2705984.079 5  -2108548.92121         9.500           0.219
  20823021.287   -18538346.010 7 -14293507.84122        22.500           2.000
  21751370.928     5902972.067 6   4599708.26221        13.750           1.156
 91  5 20 20 28 14.9980000  0  3G11G 6G19
  23768221.592    -2671165.476 5  -2081417.57721         9.250           0.344
  20817223.443   -18568819.300 7 -14317253.24022        22.250           2.000
  21756240.100     5928588.630 6   4619669.16821        14.250           1.063
 91  5 20 20 28 29.9980000  0  3G11G 6G19
  23774865.717    -2636255.427 5  -2054214.99421        10.750           0.344
  20811432.287   -18599258.898 7 -14340972.38622        22.250           2.094
  21761124.154     5954262.053 6   4639674.36821        13.750           1.031
 91  5 20 20 28 44.9980000  0  3G11G 6G19
  23781526.131    -2601253.762 5  -2026940.98421        10.250           0.250
  20805646.725   -18629664.392 7 -14364664.96122        22.500           2.031
  21766021.022     5979992.626 6   4659724.10521        13.500           1.063
 91  5 20 20 28 59.9980000  0  3G11G 6G19
  23788202.482    -2566163.273 5  -1999597.79521        11.000           0.344
  20799866.318   -18660037.910 7 -14388332.61922        22.750           2.063
  21770928.936     6005778.040 6   4679816.58421        13.000           1.094
 91  5 20 20 29 14.9980000  0  3G11G 6G19
  23794894.068    -2530983.823 5  -1972185.26821        10.000           0.406
  20794091.014   -18690378.965 7 -14411974.98422        22.750           2.063
  21775845.740     6031618.692 6   4699952.08821        13.750           1.125
 91  5 20 20 29 29.9980000  0  3G11G 6G19
  23801608.272    -2495718.556 5  -1944705.85821        11.250           0.406
  20788324.279   -18720689.959 7 -14435593.92222        22.750           2.156
  21780778.404     6057512.134 6   4720128.73421        13.000           1.125
 91  5 20 20 29 44.9970000  0  3G11G 6G19
  23808333.681    -2460366.428 5  -1917158.76921        10.000           0.281
  20782562.032   -18750965.198 7 -14459185.00122        22.750           2.094
  21785712.071     6083460.028 6   4740347.80421        14.000           1.031
 91  5 20 20 29 59.9970000  0  3G11G 6G19
  23815081.751    -2424921.349 6  -1889539.28821        12.500           0.438
  20776807.938   -18781206.807 7 -14482749.87422        22.750           2.156
  21790657.962     6109467.502 6   4760613.30621        13.750           1.156
 91  5 20 20 30 14.9970000  0  3G11G 6G19
  23821840.938    -2389388.120 5  -1861851.05521        10.750           0.313
  20771058.571   -18811414.704 7 -14506288.47822        22.750           2.094
  21795614.774     6135530.810 6   4780922.31821        13.500           1.156
 91  5 20 20 30 29.9970000  0  3G11G 6G19
  23828619.368    -2353770.120 5  -1834096.81021        10.750           0.438
  20765316.220   -18841591.835 7 -14529803.11122        22.500           2.188
  21800597.962     6161646.839 6   4801272.40821        13.250           1.063
 91  5 20 20 30 44.9970000  0  3G11G 6G19
  23835412.634    -2318065.047 5  -1806274.75521        10.250           0.313
  20759577.853   -18871735.312 7 -14553291.51622        22.250           2.250
  21805568.938     6187818.048 6   4821665.49221        14.250           1.000
 91  5 20 20 30 59.9970000  0  3G11G 6G19
  23842223.423    -2282276.922 5  -1778387.90921        10.500           0.469
  20753848.157   -18901848.782 7 -14576756.53822        22.750           2.219
  21810564.978     6214040.777 6   4842098.72221        13.250           1.063
 91  5 20 20 31 14.9970000  0  3G11G 6G19
  23849053.181    -2246399.184 5  -1750431.30321        11.250           0.531
  20748126.399   -18931925.063 7 -14600192.58322        22.250           2.188
  21815565.806     6240322.074 6   4862577.58821        14.250           1.031
 91  5 20 20 31 29.9970000  0  2G 6G19
  20742411.024   -18961967.096 7 -14623601.94322        22.250           2.219
  21820577.681     6266658.884 6   4883099.71721        13.000           1.063
 91  5 20 20 31 44.9970000  0  2G 6G19
  20736699.345   -18991969.521 7 -14646980.43822        22.250           2.219
  21825591.790     6293056.479 6   4903669.20621        13.750           1.031
 91  5 20 20 31 59.9970000  0  2G 6G19
  20730995.595   -19021936.441 7 -14670331.26622        22.500           2.219
  21830629.595     6319510.598 6   4924282.74421        14.250           1.000
 91  5 20 20 32 14.9970000  0  2G 6G19
  20725302.329   -19051868.976 7 -14693655.30222        22.750           2.188
  21835673.759     6346019.876 6   4944939.25221        14.000           0.906
 91  5 20 20 32 29.9970000  0  2G 6G19
  20719613.618   -19081766.331 7 -14716951.92822        23.000           2.188
  21840729.899     6372585.034 6   4965639.31521        14.000           1.031
 91  5 20 20 32 44.9970000  0  2G 6G19
  20713928.235   -19111630.182 7 -14740222.45022        22.500           2.125
  21845799.556     6399203.976 6   4986381.27521        14.000           1.000
 91  5 20 20 32 59.9970000  0  2G 6G19
  20708253.954   -19141455.905 7 -14763463.25322        23.000           2.250
  21850869.845     6425881.436 6   5007168.83621        13.250           1.063
 91  5 20 20 33 14.9970000  0  2G 6G19
  20702585.149   -19171247.932 7 -14786677.79922        23.000           2.281
  21855951.384     6452612.646 6   5027998.28821        13.000           0.875
 91  5 20 20 33 29.9970000  0  2G 6G19
  20696921.274   -19201001.778 7 -14809862.59622        23.250           2.344
  21861053.173     6479401.903 6   5048872.97021        13.000           0.969
 91  5 20 20 33 44.9970000  0  2G 6G19
  20691267.431   -19230721.732 7 -14833020.98622        23.250           2.250
  21866162.392     6506244.778 6   5069789.42121        13.500           1.000
 91  5 20 20 33 59.9970000  0  2G 6G19
  20685617.282   -19260405.273 7 -14856150.99922        23.250           2.313
  21871277.470     6533143.639 6   5090749.49721        12.250           1.000
 91  5 20 20 34 14.9970000  0  2G 6G19
  20679978.634   -19290051.447 7 -14879251.89322        23.500           2.375
  21876405.103     6560099.227 6   5111753.79321        13.000           0.969
 91  5 20 20 34 29.9970000  0  2G 6G19
  20674341.868   -19319661.611 7 -14902324.73122        23.250           2.344
  21881543.337     6587109.986 6   5132801.07021        12.500           1.031
 91  5 20 20 34 44.9970000  0  2G 6G19
  20668715.165   -19349234.106 7 -14925368.21822        23.250           2.406
  21886706.274     6614177.509 6   5153892.56921        13.500           0.969
 91  5 20 20 34 59.9970000  0  2G 6G19
  20663093.306   -19378771.062 7 -14948384.01022        23.000           2.344
  21891869.110     6641299.420 6   5175026.46021        13.500           1.000
 91  5 20 20 35 14.9970000  0  2G 6G19
  20657481.282   -19408271.801 7 -14971371.58422        22.750           2.406
  21897032.267     6668476.292 6   5196203.17521        13.250           1.000
 91  5 20 20 35 29.9970000  0  2G 6G19
  20651872.071   -19437733.693 7 -14994328.88422        22.750           2.313
  21902215.149     6695710.555 6   5217424.61121        12.750           1.000
 91  5 20 20 35 44.9970000  0  2G 6G19
  20646275.595   -19467157.822 7 -15017256.75822        23.000           2.438
  21907409.485     6723000.957 6   5238689.78921        13.000           0.969
 91  5 20 20 35 59.9970000  0  2G 6G19
  20640681.376   -19496544.044 7 -15040155.09522        22.750           2.438
  21912612.735     6750347.337 6   5259998.59021        12.500           1.031
 91  5 20 20 36 14.9970000  0  2G 6G19
  20635097.063   -19525894.180 7 -15063025.31623        22.000           2.531
  21917832.954     6777747.861 6   5281349.57721        13.250           1.000
 91  5 20 20 36 29.9970000  0  2G 6G19
  20629520.306   -19555207.407 7 -15085866.77723        22.000           2.563
  21923063.587     6805203.081 6   5302743.18821        13.000           1.031
 91  5 20 20 36 44.9970000  0  3G 2G 6G19
  19919094.931       -9773.401 8                        29.750
  20623947.704   -19584481.562 7 -15108677.79022        22.250           2.469
  21928292.103     6832714.984 6   5324180.95821        12.500           1.000
 91  5 20 20 36 59.9970000  0  3G 2G 6G19
  19917248.931      -19471.394 8                        29.750
  20618385.540   -19613711.969 7 -15131454.71623        22.250           2.531
  21933534.813     6860288.186 6   5345666.49821        12.250           1.000
 91  5 20 20 37 14.9970000  0  3G 2G 6G19
  19915416.173      -29099.401 8        -0.43733        29.250           3.063
  20612832.462   -19642902.759 7 -15154200.77123        21.750           2.625
  21938797.438     6887918.381 6   5367196.45921        12.750           0.938
 91  5 20 20 37 29.9970000  0  3G 2G 6G19
  19913598.610      -38656.907 8     -7447.83923        29.500           3.188
  20607283.384   -19672053.307 7 -15176915.46422        21.750           2.438
  21944069.251     6915605.924 6   5388771.10021        12.750           0.906
 91  5 20 20 37 44.9970000  0  3G 2G 6G19
  19911792.931      -48145.652 8    -14841.66323        29.000           3.094
  20601743.571   -19701165.158 7 -15199600.00822        21.750           2.469
  21949346.642     6943349.110 6   5410389.09221        12.750           0.875
